<?xml version="1.0" encoding="UTF-8" standalone="no" ?>
<gpx xmlns="http://www.topografix.com/GPX/1/1" xmlns:xsi="http://www.w3.org/2001/XMLSchema-instance" xsi:schemaLocation="http://www.topografix.com/GPX/1/1 http://www.topografix.com/GPX/1/1/gpx.xsd" version="1.1" creator="VisuGPX - https://www.visugpx.com">
  <metadata>
    <name>Les Monts - Malpassant</name>
    <desc><![CDATA[Des montées qui tapent un peu !]]></desc>
  </metadata>
  <trk>
    <name><![CDATA[2015-03-31-02]]></name>
    <trkseg>
      <trkpt lat="45.58246" lon="5.94408">
        <ele>313.6</ele>
        <time>2015-03-31T12:07:18Z</time>
      </trkpt>
      <trkpt lat="45.58246" lon="5.94408">
        <ele>313.6</ele>
        <time>2015-03-31T12:07:19Z</time>
      </trkpt>
      <trkpt lat="45.58256" lon="5.94407">
        <ele>313.3</ele>
        <time>2015-03-31T12:07:27Z</time>
      </trkpt>
      <trkpt lat="45.58267" lon="5.94408">
        <ele>313.5</ele>
        <time>2015-03-31T12:07:31Z</time>
      </trkpt>
      <trkpt lat="45.58276" lon="5.94409">
        <ele>312.1</ele>
        <time>2015-03-31T12:07:34Z</time>
      </trkpt>
      <trkpt lat="45.58286" lon="5.94408">
        <ele>312.4</ele>
        <time>2015-03-31T12:07:37Z</time>
      </trkpt>
      <trkpt lat="45.58295" lon="5.94409">
        <ele>313.1</ele>
        <time>2015-03-31T12:07:40Z</time>
      </trkpt>
      <trkpt lat="45.58304" lon="5.9441">
        <ele>312.9</ele>
        <time>2015-03-31T12:07:43Z</time>
      </trkpt>
      <trkpt lat="45.58313" lon="5.94412">
        <ele>313.4</ele>
        <time>2015-03-31T12:07:46Z</time>
      </trkpt>
      <trkpt lat="45.58323" lon="5.94413">
        <ele>313.8</ele>
        <time>2015-03-31T12:07:49Z</time>
      </trkpt>
      <trkpt lat="45.58333" lon="5.94414">
        <ele>314.2</ele>
        <time>2015-03-31T12:07:52Z</time>
      </trkpt>
      <trkpt lat="45.58344" lon="5.94414">
        <ele>314.5</ele>
        <time>2015-03-31T12:07:55Z</time>
      </trkpt>
      <trkpt lat="45.58356" lon="5.94416">
        <ele>314.8</ele>
        <time>2015-03-31T12:07:58Z</time>
      </trkpt>
      <trkpt lat="45.58368" lon="5.94417">
        <ele>315.3</ele>
        <time>2015-03-31T12:08:02Z</time>
      </trkpt>
      <trkpt lat="45.58379" lon="5.94417">
        <ele>315.8</ele>
        <time>2015-03-31T12:08:06Z</time>
      </trkpt>
      <trkpt lat="45.58389" lon="5.94416">
        <ele>316.2</ele>
        <time>2015-03-31T12:08:09Z</time>
      </trkpt>
      <trkpt lat="45.58401" lon="5.94418">
        <ele>316.8</ele>
        <time>2015-03-31T12:08:13Z</time>
      </trkpt>
      <trkpt lat="45.58413" lon="5.94419">
        <ele>317.3</ele>
        <time>2015-03-31T12:08:17Z</time>
      </trkpt>
      <trkpt lat="45.58422" lon="5.9442">
        <ele>317.7</ele>
        <time>2015-03-31T12:08:20Z</time>
      </trkpt>
      <trkpt lat="45.58434" lon="5.9442">
        <ele>318.2</ele>
        <time>2015-03-31T12:08:24Z</time>
      </trkpt>
      <trkpt lat="45.58444" lon="5.94422">
        <ele>318.6</ele>
        <time>2015-03-31T12:08:27Z</time>
      </trkpt>
      <trkpt lat="45.58455" lon="5.9442">
        <ele>319</ele>
        <time>2015-03-31T12:08:30Z</time>
      </trkpt>
      <trkpt lat="45.58466" lon="5.94419">
        <ele>319.4</ele>
        <time>2015-03-31T12:08:33Z</time>
      </trkpt>
      <trkpt lat="45.58477" lon="5.94419">
        <ele>319.9</ele>
        <time>2015-03-31T12:08:36Z</time>
      </trkpt>
      <trkpt lat="45.58487" lon="5.9442">
        <ele>320.3</ele>
        <time>2015-03-31T12:08:39Z</time>
      </trkpt>
      <trkpt lat="45.58497" lon="5.9442">
        <ele>320.8</ele>
        <time>2015-03-31T12:08:42Z</time>
      </trkpt>
      <trkpt lat="45.58508" lon="5.9442">
        <ele>321.3</ele>
        <time>2015-03-31T12:08:45Z</time>
      </trkpt>
      <trkpt lat="45.58518" lon="5.94418">
        <ele>321.9</ele>
        <time>2015-03-31T12:08:49Z</time>
      </trkpt>
      <trkpt lat="45.58527" lon="5.94417">
        <ele>322.4</ele>
        <time>2015-03-31T12:08:52Z</time>
      </trkpt>
      <trkpt lat="45.58536" lon="5.94418">
        <ele>323</ele>
        <time>2015-03-31T12:08:55Z</time>
      </trkpt>
      <trkpt lat="45.58546" lon="5.94417">
        <ele>323.4</ele>
        <time>2015-03-31T12:08:58Z</time>
      </trkpt>
      <trkpt lat="45.58557" lon="5.94417">
        <ele>323.9</ele>
        <time>2015-03-31T12:09:01Z</time>
      </trkpt>
      <trkpt lat="45.58567" lon="5.94418">
        <ele>324.4</ele>
        <time>2015-03-31T12:09:04Z</time>
      </trkpt>
      <trkpt lat="45.58578" lon="5.94418">
        <ele>325.2</ele>
        <time>2015-03-31T12:09:08Z</time>
      </trkpt>
      <trkpt lat="45.58591" lon="5.94421">
        <ele>326</ele>
        <time>2015-03-31T12:09:12Z</time>
      </trkpt>
      <trkpt lat="45.58602" lon="5.94423">
        <ele>326.6</ele>
        <time>2015-03-31T12:09:15Z</time>
      </trkpt>
      <trkpt lat="45.58612" lon="5.94424">
        <ele>327</ele>
        <time>2015-03-31T12:09:18Z</time>
      </trkpt>
      <trkpt lat="45.58623" lon="5.94426">
        <ele>327.4</ele>
        <time>2015-03-31T12:09:21Z</time>
      </trkpt>
      <trkpt lat="45.58633" lon="5.94427">
        <ele>327.9</ele>
        <time>2015-03-31T12:09:24Z</time>
      </trkpt>
      <trkpt lat="45.58643" lon="5.94429">
        <ele>328.3</ele>
        <time>2015-03-31T12:09:27Z</time>
      </trkpt>
      <trkpt lat="45.58653" lon="5.9443">
        <ele>328.8</ele>
        <time>2015-03-31T12:09:30Z</time>
      </trkpt>
      <trkpt lat="45.58665" lon="5.94431">
        <ele>328.8</ele>
        <time>2015-03-31T12:09:34Z</time>
      </trkpt>
      <trkpt lat="45.58675" lon="5.94433">
        <ele>329.6</ele>
        <time>2015-03-31T12:09:37Z</time>
      </trkpt>
      <trkpt lat="45.58685" lon="5.94435">
        <ele>330.2</ele>
        <time>2015-03-31T12:09:40Z</time>
      </trkpt>
      <trkpt lat="45.58695" lon="5.94438">
        <ele>330.8</ele>
        <time>2015-03-31T12:09:43Z</time>
      </trkpt>
      <trkpt lat="45.58705" lon="5.9444">
        <ele>331.4</ele>
        <time>2015-03-31T12:09:46Z</time>
      </trkpt>
      <trkpt lat="45.58714" lon="5.94443">
        <ele>331.9</ele>
        <time>2015-03-31T12:09:49Z</time>
      </trkpt>
      <trkpt lat="45.58724" lon="5.94448">
        <ele>332.4</ele>
        <time>2015-03-31T12:09:52Z</time>
      </trkpt>
      <trkpt lat="45.58733" lon="5.94454">
        <ele>333</ele>
        <time>2015-03-31T12:09:55Z</time>
      </trkpt>
      <trkpt lat="45.58743" lon="5.94459">
        <ele>333.9</ele>
        <time>2015-03-31T12:09:59Z</time>
      </trkpt>
      <trkpt lat="45.58753" lon="5.9446">
        <ele>334.6</ele>
        <time>2015-03-31T12:10:02Z</time>
      </trkpt>
      <trkpt lat="45.58762" lon="5.94462">
        <ele>335.1</ele>
        <time>2015-03-31T12:10:05Z</time>
      </trkpt>
      <trkpt lat="45.5877" lon="5.94455">
        <ele>335.6</ele>
        <time>2015-03-31T12:10:08Z</time>
      </trkpt>
      <trkpt lat="45.58768" lon="5.94439">
        <ele>336.2</ele>
        <time>2015-03-31T12:10:12Z</time>
      </trkpt>
      <trkpt lat="45.58758" lon="5.94433">
        <ele>336.6</ele>
        <time>2015-03-31T12:10:15Z</time>
      </trkpt>
      <trkpt lat="45.58746" lon="5.94425">
        <ele>336.9</ele>
        <time>2015-03-31T12:10:18Z</time>
      </trkpt>
      <trkpt lat="45.58738" lon="5.94413">
        <ele>337.2</ele>
        <time>2015-03-31T12:10:21Z</time>
      </trkpt>
      <trkpt lat="45.58731" lon="5.94402">
        <ele>337.5</ele>
        <time>2015-03-31T12:10:24Z</time>
      </trkpt>
      <trkpt lat="45.58724" lon="5.94393">
        <ele>337.6</ele>
        <time>2015-03-31T12:10:27Z</time>
      </trkpt>
      <trkpt lat="45.58719" lon="5.94382">
        <ele>337.8</ele>
        <time>2015-03-31T12:10:30Z</time>
      </trkpt>
      <trkpt lat="45.5872" lon="5.94369">
        <ele>338</ele>
        <time>2015-03-31T12:10:34Z</time>
      </trkpt>
      <trkpt lat="45.58728" lon="5.9436">
        <ele>339.2</ele>
        <time>2015-03-31T12:10:39Z</time>
      </trkpt>
      <trkpt lat="45.58737" lon="5.94353">
        <ele>340</ele>
        <time>2015-03-31T12:10:44Z</time>
      </trkpt>
      <trkpt lat="45.58741" lon="5.9434">
        <ele>340.7</ele>
        <time>2015-03-31T12:10:49Z</time>
      </trkpt>
      <trkpt lat="45.58741" lon="5.94327">
        <ele>341.4</ele>
        <time>2015-03-31T12:10:53Z</time>
      </trkpt>
      <trkpt lat="45.58741" lon="5.94313">
        <ele>342.3</ele>
        <time>2015-03-31T12:10:58Z</time>
      </trkpt>
      <trkpt lat="45.5875" lon="5.94308">
        <ele>343.3</ele>
        <time>2015-03-31T12:11:04Z</time>
      </trkpt>
      <trkpt lat="45.58757" lon="5.94296">
        <ele>344.5</ele>
        <time>2015-03-31T12:11:11Z</time>
      </trkpt>
      <trkpt lat="45.58759" lon="5.94283">
        <ele>345.7</ele>
        <time>2015-03-31T12:11:18Z</time>
      </trkpt>
      <trkpt lat="45.5876" lon="5.94269">
        <ele>346.8</ele>
        <time>2015-03-31T12:11:25Z</time>
      </trkpt>
      <trkpt lat="45.58761" lon="5.94257">
        <ele>348</ele>
        <time>2015-03-31T12:11:32Z</time>
      </trkpt>
      <trkpt lat="45.58763" lon="5.94243">
        <ele>349.5</ele>
        <time>2015-03-31T12:11:39Z</time>
      </trkpt>
      <trkpt lat="45.58767" lon="5.9423">
        <ele>351.3</ele>
        <time>2015-03-31T12:11:47Z</time>
      </trkpt>
      <trkpt lat="45.5877" lon="5.94218">
        <ele>353.4</ele>
        <time>2015-03-31T12:11:55Z</time>
      </trkpt>
      <trkpt lat="45.58774" lon="5.94205">
        <ele>355.7</ele>
        <time>2015-03-31T12:12:03Z</time>
      </trkpt>
      <trkpt lat="45.58777" lon="5.94192">
        <ele>358.3</ele>
        <time>2015-03-31T12:12:12Z</time>
      </trkpt>
      <trkpt lat="45.5878" lon="5.9418">
        <ele>363.1</ele>
        <time>2015-03-31T12:12:29Z</time>
      </trkpt>
      <trkpt lat="45.58781" lon="5.94166">
        <ele>374</ele>
        <time>2015-03-31T12:13:38Z</time>
      </trkpt>
      <trkpt lat="45.58783" lon="5.94152">
        <ele>374.1</ele>
        <time>2015-03-31T12:13:42Z</time>
      </trkpt>
      <trkpt lat="45.5878" lon="5.94139">
        <ele>374.4</ele>
        <time>2015-03-31T12:13:48Z</time>
      </trkpt>
      <trkpt lat="45.58775" lon="5.94127">
        <ele>374.7</ele>
        <time>2015-03-31T12:13:55Z</time>
      </trkpt>
      <trkpt lat="45.5877" lon="5.94116">
        <ele>375.2</ele>
        <time>2015-03-31T12:14:03Z</time>
      </trkpt>
      <trkpt lat="45.58761" lon="5.9411">
        <ele>375.4</ele>
        <time>2015-03-31T12:14:09Z</time>
      </trkpt>
      <trkpt lat="45.58751" lon="5.94102">
        <ele>375.3</ele>
        <time>2015-03-31T12:14:12Z</time>
      </trkpt>
      <trkpt lat="45.58744" lon="5.94094">
        <ele>375.1</ele>
        <time>2015-03-31T12:14:15Z</time>
      </trkpt>
      <trkpt lat="45.58734" lon="5.94087">
        <ele>374.6</ele>
        <time>2015-03-31T12:14:19Z</time>
      </trkpt>
      <trkpt lat="45.58726" lon="5.94081">
        <ele>373.5</ele>
        <time>2015-03-31T12:14:25Z</time>
      </trkpt>
      <trkpt lat="45.58716" lon="5.94081">
        <ele>372.7</ele>
        <time>2015-03-31T12:14:30Z</time>
      </trkpt>
      <trkpt lat="45.58708" lon="5.94076">
        <ele>372.2</ele>
        <time>2015-03-31T12:14:34Z</time>
      </trkpt>
      <trkpt lat="45.587" lon="5.9407">
        <ele>371.8</ele>
        <time>2015-03-31T12:14:38Z</time>
      </trkpt>
      <trkpt lat="45.5869" lon="5.94063">
        <ele>371.5</ele>
        <time>2015-03-31T12:14:42Z</time>
      </trkpt>
      <trkpt lat="45.58681" lon="5.94056">
        <ele>371.3</ele>
        <time>2015-03-31T12:14:46Z</time>
      </trkpt>
      <trkpt lat="45.58671" lon="5.94049">
        <ele>371.2</ele>
        <time>2015-03-31T12:14:50Z</time>
      </trkpt>
      <trkpt lat="45.5866" lon="5.94041">
        <ele>371.2</ele>
        <time>2015-03-31T12:14:54Z</time>
      </trkpt>
      <trkpt lat="45.5865" lon="5.94035">
        <ele>371.2</ele>
        <time>2015-03-31T12:14:58Z</time>
      </trkpt>
      <trkpt lat="45.58641" lon="5.94029">
        <ele>371.2</ele>
        <time>2015-03-31T12:15:02Z</time>
      </trkpt>
      <trkpt lat="45.58632" lon="5.94022">
        <ele>371.2</ele>
        <time>2015-03-31T12:15:06Z</time>
      </trkpt>
      <trkpt lat="45.58625" lon="5.94009">
        <ele>371.6</ele>
        <time>2015-03-31T12:15:11Z</time>
      </trkpt>
      <trkpt lat="45.58621" lon="5.93994">
        <ele>371.9</ele>
        <time>2015-03-31T12:15:16Z</time>
      </trkpt>
      <trkpt lat="45.58617" lon="5.93979">
        <ele>371.8</ele>
        <time>2015-03-31T12:15:20Z</time>
      </trkpt>
      <trkpt lat="45.58611" lon="5.93966">
        <ele>371.7</ele>
        <time>2015-03-31T12:15:24Z</time>
      </trkpt>
      <trkpt lat="45.58602" lon="5.93957">
        <ele>371.6</ele>
        <time>2015-03-31T12:15:28Z</time>
      </trkpt>
      <trkpt lat="45.58593" lon="5.93947">
        <ele>371.6</ele>
        <time>2015-03-31T12:15:33Z</time>
      </trkpt>
      <trkpt lat="45.58585" lon="5.93941">
        <ele>371.7</ele>
        <time>2015-03-31T12:15:37Z</time>
      </trkpt>
      <trkpt lat="45.58575" lon="5.93938">
        <ele>371.7</ele>
        <time>2015-03-31T12:15:41Z</time>
      </trkpt>
      <trkpt lat="45.58566" lon="5.93935">
        <ele>371.6</ele>
        <time>2015-03-31T12:15:44Z</time>
      </trkpt>
      <trkpt lat="45.58557" lon="5.93931">
        <ele>371.6</ele>
        <time>2015-03-31T12:15:50Z</time>
      </trkpt>
      <trkpt lat="45.58548" lon="5.93926">
        <ele>372.1</ele>
        <time>2015-03-31T12:15:58Z</time>
      </trkpt>
      <trkpt lat="45.58557" lon="5.93918">
        <ele>373.7</ele>
        <time>2015-03-31T12:16:11Z</time>
      </trkpt>
      <trkpt lat="45.58565" lon="5.93912">
        <ele>374.2</ele>
        <time>2015-03-31T12:16:16Z</time>
      </trkpt>
      <trkpt lat="45.58573" lon="5.93906">
        <ele>375.1</ele>
        <time>2015-03-31T12:16:21Z</time>
      </trkpt>
      <trkpt lat="45.58582" lon="5.939">
        <ele>376</ele>
        <time>2015-03-31T12:16:26Z</time>
      </trkpt>
      <trkpt lat="45.5859" lon="5.93896">
        <ele>377</ele>
        <time>2015-03-31T12:16:31Z</time>
      </trkpt>
      <trkpt lat="45.586" lon="5.93892">
        <ele>378.4</ele>
        <time>2015-03-31T12:16:37Z</time>
      </trkpt>
      <trkpt lat="45.58609" lon="5.93889">
        <ele>379.9</ele>
        <time>2015-03-31T12:16:43Z</time>
      </trkpt>
      <trkpt lat="45.58618" lon="5.93884">
        <ele>381.3</ele>
        <time>2015-03-31T12:16:50Z</time>
      </trkpt>
      <trkpt lat="45.58629" lon="5.93883">
        <ele>382.6</ele>
        <time>2015-03-31T12:16:57Z</time>
      </trkpt>
      <trkpt lat="45.58639" lon="5.93883">
        <ele>383.9</ele>
        <time>2015-03-31T12:17:04Z</time>
      </trkpt>
      <trkpt lat="45.58648" lon="5.93881">
        <ele>385.3</ele>
        <time>2015-03-31T12:17:11Z</time>
      </trkpt>
      <trkpt lat="45.58657" lon="5.93875">
        <ele>387.1</ele>
        <time>2015-03-31T12:17:19Z</time>
      </trkpt>
      <trkpt lat="45.58664" lon="5.93867">
        <ele>389.4</ele>
        <time>2015-03-31T12:17:28Z</time>
      </trkpt>
      <trkpt lat="45.58673" lon="5.93862">
        <ele>391.5</ele>
        <time>2015-03-31T12:17:37Z</time>
      </trkpt>
      <trkpt lat="45.58682" lon="5.9386">
        <ele>393</ele>
        <time>2015-03-31T12:17:44Z</time>
      </trkpt>
      <trkpt lat="45.58691" lon="5.93855">
        <ele>394.2</ele>
        <time>2015-03-31T12:17:50Z</time>
      </trkpt>
      <trkpt lat="45.58699" lon="5.93847">
        <ele>395.8</ele>
        <time>2015-03-31T12:17:57Z</time>
      </trkpt>
      <trkpt lat="45.58707" lon="5.93841">
        <ele>397.5</ele>
        <time>2015-03-31T12:18:04Z</time>
      </trkpt>
      <trkpt lat="45.58716" lon="5.93836">
        <ele>399.6</ele>
        <time>2015-03-31T12:18:12Z</time>
      </trkpt>
      <trkpt lat="45.58725" lon="5.93829">
        <ele>401.5</ele>
        <time>2015-03-31T12:18:20Z</time>
      </trkpt>
      <trkpt lat="45.58733" lon="5.93823">
        <ele>403.5</ele>
        <time>2015-03-31T12:18:28Z</time>
      </trkpt>
      <trkpt lat="45.58741" lon="5.93815">
        <ele>405.8</ele>
        <time>2015-03-31T12:18:37Z</time>
      </trkpt>
      <trkpt lat="45.5875" lon="5.9381">
        <ele>407.9</ele>
        <time>2015-03-31T12:18:45Z</time>
      </trkpt>
      <trkpt lat="45.58759" lon="5.93804">
        <ele>410</ele>
        <time>2015-03-31T12:18:53Z</time>
      </trkpt>
      <trkpt lat="45.58767" lon="5.93798">
        <ele>411.9</ele>
        <time>2015-03-31T12:19:00Z</time>
      </trkpt>
      <trkpt lat="45.58774" lon="5.93791">
        <ele>413.9</ele>
        <time>2015-03-31T12:19:08Z</time>
      </trkpt>
      <trkpt lat="45.58783" lon="5.93784">
        <ele>415.9</ele>
        <time>2015-03-31T12:19:16Z</time>
      </trkpt>
      <trkpt lat="45.58791" lon="5.93776">
        <ele>417.9</ele>
        <time>2015-03-31T12:19:24Z</time>
      </trkpt>
      <trkpt lat="45.588" lon="5.93771">
        <ele>420.3</ele>
        <time>2015-03-31T12:19:34Z</time>
      </trkpt>
      <trkpt lat="45.58806" lon="5.93762">
        <ele>422.3</ele>
        <time>2015-03-31T12:19:42Z</time>
      </trkpt>
      <trkpt lat="45.58813" lon="5.9375">
        <ele>425</ele>
        <time>2015-03-31T12:19:55Z</time>
      </trkpt>
      <trkpt lat="45.58821" lon="5.93744">
        <ele>427.6</ele>
        <time>2015-03-31T12:20:09Z</time>
      </trkpt>
      <trkpt lat="45.58828" lon="5.93734">
        <ele>430.7</ele>
        <time>2015-03-31T12:20:24Z</time>
      </trkpt>
      <trkpt lat="45.58835" lon="5.93721">
        <ele>434.2</ele>
        <time>2015-03-31T12:20:55Z</time>
      </trkpt>
      <trkpt lat="45.58838" lon="5.93708">
        <ele>435.5</ele>
        <time>2015-03-31T12:21:05Z</time>
      </trkpt>
      <trkpt lat="45.58844" lon="5.93698">
        <ele>437</ele>
        <time>2015-03-31T12:21:13Z</time>
      </trkpt>
      <trkpt lat="45.58852" lon="5.9369">
        <ele>440.1</ele>
        <time>2015-03-31T12:21:25Z</time>
      </trkpt>
      <trkpt lat="45.5886" lon="5.93684">
        <ele>442.5</ele>
        <time>2015-03-31T12:21:33Z</time>
      </trkpt>
      <trkpt lat="45.58869" lon="5.93676">
        <ele>444.7</ele>
        <time>2015-03-31T12:21:41Z</time>
      </trkpt>
      <trkpt lat="45.58877" lon="5.9367">
        <ele>446.5</ele>
        <time>2015-03-31T12:21:48Z</time>
      </trkpt>
      <trkpt lat="45.58884" lon="5.93659">
        <ele>448.4</ele>
        <time>2015-03-31T12:21:56Z</time>
      </trkpt>
      <trkpt lat="45.5889" lon="5.93647">
        <ele>450</ele>
        <time>2015-03-31T12:22:03Z</time>
      </trkpt>
      <trkpt lat="45.58893" lon="5.93634">
        <ele>451.6</ele>
        <time>2015-03-31T12:22:10Z</time>
      </trkpt>
      <trkpt lat="45.58898" lon="5.93623">
        <ele>455.3</ele>
        <time>2015-03-31T12:22:30Z</time>
      </trkpt>
      <trkpt lat="45.58905" lon="5.93613">
        <ele>459.8</ele>
        <time>2015-03-31T12:23:30Z</time>
      </trkpt>
      <trkpt lat="45.58913" lon="5.93604">
        <ele>460.2</ele>
        <time>2015-03-31T12:23:41Z</time>
      </trkpt>
      <trkpt lat="45.58921" lon="5.93596">
        <ele>460.8</ele>
        <time>2015-03-31T12:23:48Z</time>
      </trkpt>
      <trkpt lat="45.5893" lon="5.93591">
        <ele>462.1</ele>
        <time>2015-03-31T12:23:56Z</time>
      </trkpt>
      <trkpt lat="45.5894" lon="5.93589">
        <ele>463.7</ele>
        <time>2015-03-31T12:24:04Z</time>
      </trkpt>
      <trkpt lat="45.58949" lon="5.93587">
        <ele>465.4</ele>
        <time>2015-03-31T12:24:12Z</time>
      </trkpt>
      <trkpt lat="45.58945" lon="5.93575">
        <ele>467.6</ele>
        <time>2015-03-31T12:24:21Z</time>
      </trkpt>
      <trkpt lat="45.58937" lon="5.93569">
        <ele>469.3</ele>
        <time>2015-03-31T12:24:29Z</time>
      </trkpt>
      <trkpt lat="45.58929" lon="5.93562">
        <ele>471.2</ele>
        <time>2015-03-31T12:24:37Z</time>
      </trkpt>
      <trkpt lat="45.58921" lon="5.93554">
        <ele>473</ele>
        <time>2015-03-31T12:24:45Z</time>
      </trkpt>
      <trkpt lat="45.58914" lon="5.93547">
        <ele>474.7</ele>
        <time>2015-03-31T12:24:53Z</time>
      </trkpt>
      <trkpt lat="45.58907" lon="5.93538">
        <ele>476.4</ele>
        <time>2015-03-31T12:25:02Z</time>
      </trkpt>
      <trkpt lat="45.58899" lon="5.93529">
        <ele>478.5</ele>
        <time>2015-03-31T12:25:14Z</time>
      </trkpt>
      <trkpt lat="45.58891" lon="5.93521">
        <ele>480</ele>
        <time>2015-03-31T12:25:22Z</time>
      </trkpt>
      <trkpt lat="45.58885" lon="5.93511">
        <ele>481.7</ele>
        <time>2015-03-31T12:25:31Z</time>
      </trkpt>
      <trkpt lat="45.58879" lon="5.935">
        <ele>483.6</ele>
        <time>2015-03-31T12:25:40Z</time>
      </trkpt>
      <trkpt lat="45.58871" lon="5.93495">
        <ele>484.6</ele>
        <time>2015-03-31T12:25:46Z</time>
      </trkpt>
      <trkpt lat="45.58862" lon="5.9349">
        <ele>485.2</ele>
        <time>2015-03-31T12:25:51Z</time>
      </trkpt>
      <trkpt lat="45.58853" lon="5.93488">
        <ele>485.7</ele>
        <time>2015-03-31T12:25:56Z</time>
      </trkpt>
      <trkpt lat="45.58843" lon="5.93484">
        <ele>486.1</ele>
        <time>2015-03-31T12:26:01Z</time>
      </trkpt>
      <trkpt lat="45.58833" lon="5.9348">
        <ele>486.4</ele>
        <time>2015-03-31T12:26:06Z</time>
      </trkpt>
      <trkpt lat="45.58825" lon="5.93475">
        <ele>486.6</ele>
        <time>2015-03-31T12:26:10Z</time>
      </trkpt>
      <trkpt lat="45.58817" lon="5.93466">
        <ele>486.7</ele>
        <time>2015-03-31T12:26:14Z</time>
      </trkpt>
      <trkpt lat="45.58811" lon="5.93452">
        <ele>486.8</ele>
        <time>2015-03-31T12:26:18Z</time>
      </trkpt>
      <trkpt lat="45.58806" lon="5.93439">
        <ele>486.9</ele>
        <time>2015-03-31T12:26:22Z</time>
      </trkpt>
      <trkpt lat="45.58802" lon="5.93426">
        <ele>486.9</ele>
        <time>2015-03-31T12:26:26Z</time>
      </trkpt>
      <trkpt lat="45.58798" lon="5.93411">
        <ele>486.9</ele>
        <time>2015-03-31T12:26:30Z</time>
      </trkpt>
      <trkpt lat="45.58793" lon="5.93396">
        <ele>486.8</ele>
        <time>2015-03-31T12:26:34Z</time>
      </trkpt>
      <trkpt lat="45.58787" lon="5.93382">
        <ele>486.7</ele>
        <time>2015-03-31T12:26:38Z</time>
      </trkpt>
      <trkpt lat="45.58779" lon="5.9337">
        <ele>486.7</ele>
        <time>2015-03-31T12:26:42Z</time>
      </trkpt>
      <trkpt lat="45.5877" lon="5.93364">
        <ele>486.6</ele>
        <time>2015-03-31T12:26:45Z</time>
      </trkpt>
      <trkpt lat="45.58756" lon="5.93359">
        <ele>486.3</ele>
        <time>2015-03-31T12:26:48Z</time>
      </trkpt>
      <trkpt lat="45.58746" lon="5.93355">
        <ele>486.2</ele>
        <time>2015-03-31T12:26:50Z</time>
      </trkpt>
      <trkpt lat="45.58734" lon="5.93351">
        <ele>485.9</ele>
        <time>2015-03-31T12:26:52Z</time>
      </trkpt>
      <trkpt lat="45.58722" lon="5.93347">
        <ele>485.5</ele>
        <time>2015-03-31T12:26:54Z</time>
      </trkpt>
      <trkpt lat="45.58711" lon="5.93343">
        <ele>485.1</ele>
        <time>2015-03-31T12:26:56Z</time>
      </trkpt>
      <trkpt lat="45.58701" lon="5.93337">
        <ele>484.4</ele>
        <time>2015-03-31T12:26:58Z</time>
      </trkpt>
      <trkpt lat="45.58693" lon="5.93328">
        <ele>483.9</ele>
        <time>2015-03-31T12:27:00Z</time>
      </trkpt>
      <trkpt lat="45.58685" lon="5.93318">
        <ele>483.4</ele>
        <time>2015-03-31T12:27:02Z</time>
      </trkpt>
      <trkpt lat="45.58675" lon="5.93307">
        <ele>482.8</ele>
        <time>2015-03-31T12:27:05Z</time>
      </trkpt>
      <trkpt lat="45.58668" lon="5.93299">
        <ele>482.3</ele>
        <time>2015-03-31T12:27:08Z</time>
      </trkpt>
      <trkpt lat="45.5866" lon="5.93291">
        <ele>481.9</ele>
        <time>2015-03-31T12:27:11Z</time>
      </trkpt>
      <trkpt lat="45.58653" lon="5.93281">
        <ele>481.6</ele>
        <time>2015-03-31T12:27:14Z</time>
      </trkpt>
      <trkpt lat="45.58648" lon="5.9327">
        <ele>481.4</ele>
        <time>2015-03-31T12:27:17Z</time>
      </trkpt>
      <trkpt lat="45.58641" lon="5.9326">
        <ele>481.2</ele>
        <time>2015-03-31T12:27:20Z</time>
      </trkpt>
      <trkpt lat="45.58632" lon="5.93245">
        <ele>480.8</ele>
        <time>2015-03-31T12:27:23Z</time>
      </trkpt>
      <trkpt lat="45.58624" lon="5.93234">
        <ele>480.6</ele>
        <time>2015-03-31T12:27:25Z</time>
      </trkpt>
      <trkpt lat="45.58616" lon="5.93224">
        <ele>480.4</ele>
        <time>2015-03-31T12:27:27Z</time>
      </trkpt>
      <trkpt lat="45.58609" lon="5.93214">
        <ele>480.2</ele>
        <time>2015-03-31T12:27:29Z</time>
      </trkpt>
      <trkpt lat="45.58599" lon="5.932">
        <ele>479.9</ele>
        <time>2015-03-31T12:27:32Z</time>
      </trkpt>
      <trkpt lat="45.58592" lon="5.93188">
        <ele>479.7</ele>
        <time>2015-03-31T12:27:35Z</time>
      </trkpt>
      <trkpt lat="45.58586" lon="5.93175">
        <ele>479.5</ele>
        <time>2015-03-31T12:27:38Z</time>
      </trkpt>
      <trkpt lat="45.5858" lon="5.93161">
        <ele>479.3</ele>
        <time>2015-03-31T12:27:42Z</time>
      </trkpt>
      <trkpt lat="45.58578" lon="5.93148">
        <ele>479.2</ele>
        <time>2015-03-31T12:27:45Z</time>
      </trkpt>
      <trkpt lat="45.58575" lon="5.93132">
        <ele>479.1</ele>
        <time>2015-03-31T12:27:49Z</time>
      </trkpt>
      <trkpt lat="45.58571" lon="5.9312">
        <ele>479</ele>
        <time>2015-03-31T12:27:52Z</time>
      </trkpt>
      <trkpt lat="45.58566" lon="5.93109">
        <ele>478.9</ele>
        <time>2015-03-31T12:27:55Z</time>
      </trkpt>
      <trkpt lat="45.58562" lon="5.93097">
        <ele>478.8</ele>
        <time>2015-03-31T12:27:58Z</time>
      </trkpt>
      <trkpt lat="45.58554" lon="5.93086">
        <ele>478.8</ele>
        <time>2015-03-31T12:28:01Z</time>
      </trkpt>
      <trkpt lat="45.58547" lon="5.93076">
        <ele>478.7</ele>
        <time>2015-03-31T12:28:04Z</time>
      </trkpt>
      <trkpt lat="45.5854" lon="5.93064">
        <ele>478.7</ele>
        <time>2015-03-31T12:28:07Z</time>
      </trkpt>
      <trkpt lat="45.58533" lon="5.93052">
        <ele>478.7</ele>
        <time>2015-03-31T12:28:10Z</time>
      </trkpt>
      <trkpt lat="45.58525" lon="5.93041">
        <ele>478.6</ele>
        <time>2015-03-31T12:28:13Z</time>
      </trkpt>
      <trkpt lat="45.58518" lon="5.93031">
        <ele>478.6</ele>
        <time>2015-03-31T12:28:16Z</time>
      </trkpt>
      <trkpt lat="45.5851" lon="5.93021">
        <ele>478.6</ele>
        <time>2015-03-31T12:28:19Z</time>
      </trkpt>
      <trkpt lat="45.58502" lon="5.93012">
        <ele>478.6</ele>
        <time>2015-03-31T12:28:22Z</time>
      </trkpt>
      <trkpt lat="45.58493" lon="5.93">
        <ele>478.6</ele>
        <time>2015-03-31T12:28:26Z</time>
      </trkpt>
      <trkpt lat="45.58484" lon="5.9299">
        <ele>478.7</ele>
        <time>2015-03-31T12:28:30Z</time>
      </trkpt>
      <trkpt lat="45.58475" lon="5.9298">
        <ele>478.8</ele>
        <time>2015-03-31T12:28:34Z</time>
      </trkpt>
      <trkpt lat="45.58467" lon="5.92969">
        <ele>479</ele>
        <time>2015-03-31T12:28:38Z</time>
      </trkpt>
      <trkpt lat="45.58476" lon="5.92964">
        <ele>479.4</ele>
        <time>2015-03-31T12:28:46Z</time>
      </trkpt>
      <trkpt lat="45.58484" lon="5.92971">
        <ele>479.8</ele>
        <time>2015-03-31T12:28:53Z</time>
      </trkpt>
      <trkpt lat="45.58493" lon="5.92975">
        <ele>480.2</ele>
        <time>2015-03-31T12:28:58Z</time>
      </trkpt>
      <trkpt lat="45.58501" lon="5.92979">
        <ele>480.8</ele>
        <time>2015-03-31T12:29:03Z</time>
      </trkpt>
      <trkpt lat="45.58511" lon="5.92985">
        <ele>481.5</ele>
        <time>2015-03-31T12:29:09Z</time>
      </trkpt>
      <trkpt lat="45.58521" lon="5.92991">
        <ele>482.1</ele>
        <time>2015-03-31T12:29:15Z</time>
      </trkpt>
      <trkpt lat="45.58529" lon="5.92996">
        <ele>482.7</ele>
        <time>2015-03-31T12:29:21Z</time>
      </trkpt>
      <trkpt lat="45.58539" lon="5.92997">
        <ele>483.5</ele>
        <time>2015-03-31T12:29:28Z</time>
      </trkpt>
      <trkpt lat="45.58548" lon="5.92995">
        <ele>485.7</ele>
        <time>2015-03-31T12:29:37Z</time>
      </trkpt>
      <trkpt lat="45.58558" lon="5.92997">
        <ele>487.7</ele>
        <time>2015-03-31T12:29:46Z</time>
      </trkpt>
      <trkpt lat="45.58568" lon="5.92996">
        <ele>488.6</ele>
        <time>2015-03-31T12:29:52Z</time>
      </trkpt>
      <trkpt lat="45.58576" lon="5.92988">
        <ele>489.4</ele>
        <time>2015-03-31T12:29:58Z</time>
      </trkpt>
      <trkpt lat="45.58581" lon="5.92976">
        <ele>490.4</ele>
        <time>2015-03-31T12:30:05Z</time>
      </trkpt>
      <trkpt lat="45.58585" lon="5.92963">
        <ele>491.8</ele>
        <time>2015-03-31T12:30:12Z</time>
      </trkpt>
      <trkpt lat="45.58587" lon="5.9295">
        <ele>492.9</ele>
        <time>2015-03-31T12:30:18Z</time>
      </trkpt>
      <trkpt lat="45.58595" lon="5.9294">
        <ele>494.2</ele>
        <time>2015-03-31T12:30:25Z</time>
      </trkpt>
      <trkpt lat="45.58602" lon="5.9293">
        <ele>495.1</ele>
        <time>2015-03-31T12:30:31Z</time>
      </trkpt>
      <trkpt lat="45.58608" lon="5.9292">
        <ele>496</ele>
        <time>2015-03-31T12:30:37Z</time>
      </trkpt>
      <trkpt lat="45.58614" lon="5.92909">
        <ele>497</ele>
        <time>2015-03-31T12:30:43Z</time>
      </trkpt>
      <trkpt lat="45.58618" lon="5.92896">
        <ele>498.1</ele>
        <time>2015-03-31T12:30:50Z</time>
      </trkpt>
      <trkpt lat="45.5862" lon="5.92884">
        <ele>498.9</ele>
        <time>2015-03-31T12:30:56Z</time>
      </trkpt>
      <trkpt lat="45.58621" lon="5.92869">
        <ele>500.3</ele>
        <time>2015-03-31T12:31:04Z</time>
      </trkpt>
      <trkpt lat="45.58618" lon="5.92855">
        <ele>501.5</ele>
        <time>2015-03-31T12:31:10Z</time>
      </trkpt>
      <trkpt lat="45.58615" lon="5.92842">
        <ele>502</ele>
        <time>2015-03-31T12:31:15Z</time>
      </trkpt>
      <trkpt lat="45.58612" lon="5.92828">
        <ele>502.7</ele>
        <time>2015-03-31T12:31:21Z</time>
      </trkpt>
      <trkpt lat="45.58609" lon="5.92816">
        <ele>505.9</ele>
        <time>2015-03-31T12:31:26Z</time>
      </trkpt>
      <trkpt lat="45.58605" lon="5.92803">
        <ele>507</ele>
        <time>2015-03-31T12:31:31Z</time>
      </trkpt>
      <trkpt lat="45.58601" lon="5.92789">
        <ele>504.8</ele>
        <time>2015-03-31T12:31:37Z</time>
      </trkpt>
      <trkpt lat="45.58601" lon="5.92775">
        <ele>504.7</ele>
        <time>2015-03-31T12:31:44Z</time>
      </trkpt>
      <trkpt lat="45.58605" lon="5.92762">
        <ele>506.6</ele>
        <time>2015-03-31T12:31:53Z</time>
      </trkpt>
      <trkpt lat="45.58612" lon="5.92753">
        <ele>507.9</ele>
        <time>2015-03-31T12:32:12Z</time>
      </trkpt>
      <trkpt lat="45.5862" lon="5.92746">
        <ele>508</ele>
        <time>2015-03-31T12:32:18Z</time>
      </trkpt>
      <trkpt lat="45.58629" lon="5.92746">
        <ele>508</ele>
        <time>2015-03-31T12:32:22Z</time>
      </trkpt>
      <trkpt lat="45.58639" lon="5.92745">
        <ele>507.9</ele>
        <time>2015-03-31T12:32:26Z</time>
      </trkpt>
      <trkpt lat="45.58648" lon="5.92745">
        <ele>507.8</ele>
        <time>2015-03-31T12:32:30Z</time>
      </trkpt>
      <trkpt lat="45.58657" lon="5.92749">
        <ele>507.8</ele>
        <time>2015-03-31T12:32:34Z</time>
      </trkpt>
      <trkpt lat="45.58667" lon="5.92755">
        <ele>507.8</ele>
        <time>2015-03-31T12:32:38Z</time>
      </trkpt>
      <trkpt lat="45.58675" lon="5.92767">
        <ele>508</ele>
        <time>2015-03-31T12:32:42Z</time>
      </trkpt>
      <trkpt lat="45.5868" lon="5.92781">
        <ele>508</ele>
        <time>2015-03-31T12:32:46Z</time>
      </trkpt>
      <trkpt lat="45.58681" lon="5.92795">
        <ele>508</ele>
        <time>2015-03-31T12:32:50Z</time>
      </trkpt>
      <trkpt lat="45.58685" lon="5.92782">
        <ele>508.1</ele>
        <time>2015-03-31T12:33:03Z</time>
      </trkpt>
      <trkpt lat="45.5869" lon="5.92767">
        <ele>507.9</ele>
        <time>2015-03-31T12:33:09Z</time>
      </trkpt>
      <trkpt lat="45.58696" lon="5.92752">
        <ele>507.8</ele>
        <time>2015-03-31T12:33:13Z</time>
      </trkpt>
      <trkpt lat="45.58703" lon="5.92741">
        <ele>507.4</ele>
        <time>2015-03-31T12:33:16Z</time>
      </trkpt>
      <trkpt lat="45.5871" lon="5.9273">
        <ele>506.5</ele>
        <time>2015-03-31T12:33:21Z</time>
      </trkpt>
      <trkpt lat="45.58715" lon="5.92713">
        <ele>505.4</ele>
        <time>2015-03-31T12:33:24Z</time>
      </trkpt>
      <trkpt lat="45.5872" lon="5.927">
        <ele>504.1</ele>
        <time>2015-03-31T12:33:27Z</time>
      </trkpt>
      <trkpt lat="45.5873" lon="5.92703">
        <ele>502.3</ele>
        <time>2015-03-31T12:33:31Z</time>
      </trkpt>
      <trkpt lat="45.58734" lon="5.92715">
        <ele>501.3</ele>
        <time>2015-03-31T12:33:33Z</time>
      </trkpt>
      <trkpt lat="45.58737" lon="5.92729">
        <ele>500.4</ele>
        <time>2015-03-31T12:33:35Z</time>
      </trkpt>
      <trkpt lat="45.58742" lon="5.9274">
        <ele>499.3</ele>
        <time>2015-03-31T12:33:37Z</time>
      </trkpt>
      <trkpt lat="45.58749" lon="5.92758">
        <ele>498</ele>
        <time>2015-03-31T12:33:39Z</time>
      </trkpt>
      <trkpt lat="45.58754" lon="5.9277">
        <ele>496.1</ele>
        <time>2015-03-31T12:33:42Z</time>
      </trkpt>
      <trkpt lat="45.58764" lon="5.92775">
        <ele>486</ele>
        <time>2015-03-31T12:34:48Z</time>
      </trkpt>
      <trkpt lat="45.58774" lon="5.92778">
        <ele>485.3</ele>
        <time>2015-03-31T12:34:51Z</time>
      </trkpt>
      <trkpt lat="45.58785" lon="5.92777">
        <ele>484</ele>
        <time>2015-03-31T12:34:54Z</time>
      </trkpt>
      <trkpt lat="45.58791" lon="5.92765">
        <ele>482.9</ele>
        <time>2015-03-31T12:34:57Z</time>
      </trkpt>
      <trkpt lat="45.58802" lon="5.92768">
        <ele>481.3</ele>
        <time>2015-03-31T12:35:01Z</time>
      </trkpt>
      <trkpt lat="45.58814" lon="5.92774">
        <ele>480.1</ele>
        <time>2015-03-31T12:35:04Z</time>
      </trkpt>
      <trkpt lat="45.58821" lon="5.92783">
        <ele>479.2</ele>
        <time>2015-03-31T12:35:07Z</time>
      </trkpt>
      <trkpt lat="45.5883" lon="5.92789">
        <ele>478</ele>
        <time>2015-03-31T12:35:11Z</time>
      </trkpt>
      <trkpt lat="45.58839" lon="5.92787">
        <ele>476.8</ele>
        <time>2015-03-31T12:35:17Z</time>
      </trkpt>
      <trkpt lat="45.58849" lon="5.9279">
        <ele>475.4</ele>
        <time>2015-03-31T12:35:29Z</time>
      </trkpt>
      <trkpt lat="45.58858" lon="5.92793">
        <ele>475.5</ele>
        <time>2015-03-31T12:35:36Z</time>
      </trkpt>
      <trkpt lat="45.58868" lon="5.92797">
        <ele>475.9</ele>
        <time>2015-03-31T12:35:43Z</time>
      </trkpt>
      <trkpt lat="45.58878" lon="5.92803">
        <ele>476.6</ele>
        <time>2015-03-31T12:35:49Z</time>
      </trkpt>
      <trkpt lat="45.58887" lon="5.92811">
        <ele>477.4</ele>
        <time>2015-03-31T12:35:53Z</time>
      </trkpt>
      <trkpt lat="45.58897" lon="5.92809">
        <ele>478.9</ele>
        <time>2015-03-31T12:36:00Z</time>
      </trkpt>
      <trkpt lat="45.58906" lon="5.92801">
        <ele>479.9</ele>
        <time>2015-03-31T12:36:06Z</time>
      </trkpt>
      <trkpt lat="45.58916" lon="5.92799">
        <ele>480.7</ele>
        <time>2015-03-31T12:36:13Z</time>
      </trkpt>
      <trkpt lat="45.58925" lon="5.92794">
        <ele>481</ele>
        <time>2015-03-31T12:36:17Z</time>
      </trkpt>
      <trkpt lat="45.58935" lon="5.92793">
        <ele>481.2</ele>
        <time>2015-03-31T12:36:20Z</time>
      </trkpt>
      <trkpt lat="45.58945" lon="5.92791">
        <ele>481.6</ele>
        <time>2015-03-31T12:36:24Z</time>
      </trkpt>
      <trkpt lat="45.58954" lon="5.92794">
        <ele>482.1</ele>
        <time>2015-03-31T12:36:30Z</time>
      </trkpt>
      <trkpt lat="45.58964" lon="5.92796">
        <ele>482.8</ele>
        <time>2015-03-31T12:36:36Z</time>
      </trkpt>
      <trkpt lat="45.58973" lon="5.92797">
        <ele>483.5</ele>
        <time>2015-03-31T12:36:42Z</time>
      </trkpt>
      <trkpt lat="45.58983" lon="5.92796">
        <ele>484.2</ele>
        <time>2015-03-31T12:36:48Z</time>
      </trkpt>
      <trkpt lat="45.58993" lon="5.92793">
        <ele>484.6</ele>
        <time>2015-03-31T12:36:53Z</time>
      </trkpt>
      <trkpt lat="45.59001" lon="5.92786">
        <ele>484.9</ele>
        <time>2015-03-31T12:36:57Z</time>
      </trkpt>
      <trkpt lat="45.59009" lon="5.9278">
        <ele>485</ele>
        <time>2015-03-31T12:37:00Z</time>
      </trkpt>
      <trkpt lat="45.59018" lon="5.92787">
        <ele>485.3</ele>
        <time>2015-03-31T12:37:06Z</time>
      </trkpt>
      <trkpt lat="45.59026" lon="5.92797">
        <ele>486.4</ele>
        <time>2015-03-31T12:37:13Z</time>
      </trkpt>
      <trkpt lat="45.59033" lon="5.92807">
        <ele>488.2</ele>
        <time>2015-03-31T12:37:19Z</time>
      </trkpt>
      <trkpt lat="45.59042" lon="5.92812">
        <ele>490.2</ele>
        <time>2015-03-31T12:37:25Z</time>
      </trkpt>
      <trkpt lat="45.5905" lon="5.92818">
        <ele>492</ele>
        <time>2015-03-31T12:37:31Z</time>
      </trkpt>
      <trkpt lat="45.59057" lon="5.92827">
        <ele>493.5</ele>
        <time>2015-03-31T12:37:37Z</time>
      </trkpt>
      <trkpt lat="45.59063" lon="5.92839">
        <ele>495.7</ele>
        <time>2015-03-31T12:37:44Z</time>
      </trkpt>
      <trkpt lat="45.59071" lon="5.92847">
        <ele>497.9</ele>
        <time>2015-03-31T12:37:51Z</time>
      </trkpt>
      <trkpt lat="45.59081" lon="5.92854">
        <ele>499.8</ele>
        <time>2015-03-31T12:37:57Z</time>
      </trkpt>
      <trkpt lat="45.59089" lon="5.92862">
        <ele>502.2</ele>
        <time>2015-03-31T12:38:04Z</time>
      </trkpt>
      <trkpt lat="45.59096" lon="5.92874">
        <ele>505.3</ele>
        <time>2015-03-31T12:38:13Z</time>
      </trkpt>
      <trkpt lat="45.59093" lon="5.92886">
        <ele>509.5</ele>
        <time>2015-03-31T12:38:33Z</time>
      </trkpt>
      <trkpt lat="45.59084" lon="5.92892">
        <ele>511.8</ele>
        <time>2015-03-31T12:38:59Z</time>
      </trkpt>
      <trkpt lat="45.5908" lon="5.92904">
        <ele>512.2</ele>
        <time>2015-03-31T12:39:05Z</time>
      </trkpt>
      <trkpt lat="45.59074" lon="5.92915">
        <ele>512.9</ele>
        <time>2015-03-31T12:39:13Z</time>
      </trkpt>
      <trkpt lat="45.59067" lon="5.92926">
        <ele>513.9</ele>
        <time>2015-03-31T12:39:21Z</time>
      </trkpt>
      <trkpt lat="45.59066" lon="5.92939">
        <ele>514.8</ele>
        <time>2015-03-31T12:39:27Z</time>
      </trkpt>
      <trkpt lat="45.5907" lon="5.92952">
        <ele>515.8</ele>
        <time>2015-03-31T12:39:33Z</time>
      </trkpt>
      <trkpt lat="45.59077" lon="5.9296">
        <ele>516.9</ele>
        <time>2015-03-31T12:39:40Z</time>
      </trkpt>
      <trkpt lat="45.59084" lon="5.92969">
        <ele>518.2</ele>
        <time>2015-03-31T12:39:48Z</time>
      </trkpt>
      <trkpt lat="45.59092" lon="5.92963">
        <ele>519.3</ele>
        <time>2015-03-31T12:39:55Z</time>
      </trkpt>
      <trkpt lat="45.59102" lon="5.92958">
        <ele>520</ele>
        <time>2015-03-31T12:40:01Z</time>
      </trkpt>
      <trkpt lat="45.59109" lon="5.92947">
        <ele>520.2</ele>
        <time>2015-03-31T12:40:05Z</time>
      </trkpt>
      <trkpt lat="45.59117" lon="5.92934">
        <ele>520.1</ele>
        <time>2015-03-31T12:40:08Z</time>
      </trkpt>
      <trkpt lat="45.59123" lon="5.92925">
        <ele>519.8</ele>
        <time>2015-03-31T12:40:10Z</time>
      </trkpt>
      <trkpt lat="45.59136" lon="5.92918">
        <ele>519.1</ele>
        <time>2015-03-31T12:40:13Z</time>
      </trkpt>
      <trkpt lat="45.59147" lon="5.92918">
        <ele>518.5</ele>
        <time>2015-03-31T12:40:16Z</time>
      </trkpt>
      <trkpt lat="45.59158" lon="5.92918">
        <ele>518</ele>
        <time>2015-03-31T12:40:20Z</time>
      </trkpt>
      <trkpt lat="45.59168" lon="5.92918">
        <ele>517.6</ele>
        <time>2015-03-31T12:40:24Z</time>
      </trkpt>
      <trkpt lat="45.59177" lon="5.92917">
        <ele>517.7</ele>
        <time>2015-03-31T12:40:28Z</time>
      </trkpt>
      <trkpt lat="45.59188" lon="5.92918">
        <ele>517.9</ele>
        <time>2015-03-31T12:40:32Z</time>
      </trkpt>
      <trkpt lat="45.59198" lon="5.92917">
        <ele>518</ele>
        <time>2015-03-31T12:40:36Z</time>
      </trkpt>
      <trkpt lat="45.59209" lon="5.92919">
        <ele>518</ele>
        <time>2015-03-31T12:40:40Z</time>
      </trkpt>
      <trkpt lat="45.59221" lon="5.92921">
        <ele>518</ele>
        <time>2015-03-31T12:40:43Z</time>
      </trkpt>
      <trkpt lat="45.5923" lon="5.92922">
        <ele>517.9</ele>
        <time>2015-03-31T12:40:46Z</time>
      </trkpt>
      <trkpt lat="45.5924" lon="5.92925">
        <ele>517.6</ele>
        <time>2015-03-31T12:40:50Z</time>
      </trkpt>
      <trkpt lat="45.59249" lon="5.92924">
        <ele>517.4</ele>
        <time>2015-03-31T12:40:54Z</time>
      </trkpt>
      <trkpt lat="45.59258" lon="5.92925">
        <ele>517.1</ele>
        <time>2015-03-31T12:41:01Z</time>
      </trkpt>
      <trkpt lat="45.59268" lon="5.92926">
        <ele>517</ele>
        <time>2015-03-31T12:41:08Z</time>
      </trkpt>
      <trkpt lat="45.59261" lon="5.92935">
        <ele>517.4</ele>
        <time>2015-03-31T12:41:42Z</time>
      </trkpt>
      <trkpt lat="45.59255" lon="5.92945">
        <ele>518.3</ele>
        <time>2015-03-31T12:41:52Z</time>
      </trkpt>
      <trkpt lat="45.59254" lon="5.92959">
        <ele>520.1</ele>
        <time>2015-03-31T12:42:10Z</time>
      </trkpt>
      <trkpt lat="45.59252" lon="5.92972">
        <ele>521</ele>
        <time>2015-03-31T12:42:18Z</time>
      </trkpt>
      <trkpt lat="45.59255" lon="5.92986">
        <ele>521.9</ele>
        <time>2015-03-31T12:42:26Z</time>
      </trkpt>
      <trkpt lat="45.59253" lon="5.92998">
        <ele>524.2</ele>
        <time>2015-03-31T12:42:40Z</time>
      </trkpt>
      <trkpt lat="45.59251" lon="5.93011">
        <ele>527.8</ele>
        <time>2015-03-31T12:43:07Z</time>
      </trkpt>
      <trkpt lat="45.59259" lon="5.93018">
        <ele>529.8</ele>
        <time>2015-03-31T12:43:21Z</time>
      </trkpt>
      <trkpt lat="45.59269" lon="5.93022">
        <ele>530.6</ele>
        <time>2015-03-31T12:43:30Z</time>
      </trkpt>
      <trkpt lat="45.59278" lon="5.93025">
        <ele>530.1</ele>
        <time>2015-03-31T12:43:35Z</time>
      </trkpt>
      <trkpt lat="45.59284" lon="5.93035">
        <ele>529.9</ele>
        <time>2015-03-31T12:43:41Z</time>
      </trkpt>
      <trkpt lat="45.59288" lon="5.93047">
        <ele>530.3</ele>
        <time>2015-03-31T12:43:50Z</time>
      </trkpt>
      <trkpt lat="45.59295" lon="5.93058">
        <ele>531.4</ele>
        <time>2015-03-31T12:44:00Z</time>
      </trkpt>
      <trkpt lat="45.59294" lon="5.93071">
        <ele>535.6</ele>
        <time>2015-03-31T12:44:26Z</time>
      </trkpt>
      <trkpt lat="45.593" lon="5.93082">
        <ele>536</ele>
        <time>2015-03-31T12:44:38Z</time>
      </trkpt>
      <trkpt lat="45.59308" lon="5.93091">
        <ele>537.4</ele>
        <time>2015-03-31T12:44:44Z</time>
      </trkpt>
      <trkpt lat="45.59317" lon="5.93099">
        <ele>538.2</ele>
        <time>2015-03-31T12:44:52Z</time>
      </trkpt>
      <trkpt lat="45.59317" lon="5.93113">
        <ele>541</ele>
        <time>2015-03-31T12:45:15Z</time>
      </trkpt>
      <trkpt lat="45.59321" lon="5.93124">
        <ele>542.4</ele>
        <time>2015-03-31T12:45:27Z</time>
      </trkpt>
      <trkpt lat="45.59325" lon="5.93137">
        <ele>544.3</ele>
        <time>2015-03-31T12:45:39Z</time>
      </trkpt>
      <trkpt lat="45.59329" lon="5.93149">
        <ele>546</ele>
        <time>2015-03-31T12:45:49Z</time>
      </trkpt>
      <trkpt lat="45.59332" lon="5.93163">
        <ele>547.7</ele>
        <time>2015-03-31T12:46:03Z</time>
      </trkpt>
      <trkpt lat="45.59338" lon="5.93174">
        <ele>548.5</ele>
        <time>2015-03-31T12:46:11Z</time>
      </trkpt>
      <trkpt lat="45.59347" lon="5.9318">
        <ele>549.3</ele>
        <time>2015-03-31T12:46:19Z</time>
      </trkpt>
      <trkpt lat="45.59351" lon="5.93192">
        <ele>550.1</ele>
        <time>2015-03-31T12:46:28Z</time>
      </trkpt>
      <trkpt lat="45.59361" lon="5.93201">
        <ele>550.1</ele>
        <time>2015-03-31T12:46:33Z</time>
      </trkpt>
      <trkpt lat="45.59367" lon="5.9321">
        <ele>550.1</ele>
        <time>2015-03-31T12:46:40Z</time>
      </trkpt>
      <trkpt lat="45.59377" lon="5.93214">
        <ele>550.1</ele>
        <time>2015-03-31T12:46:49Z</time>
      </trkpt>
      <trkpt lat="45.59386" lon="5.93219">
        <ele>550.1</ele>
        <time>2015-03-31T12:46:57Z</time>
      </trkpt>
      <trkpt lat="45.59395" lon="5.93226">
        <ele>550.2</ele>
        <time>2015-03-31T12:47:03Z</time>
      </trkpt>
      <trkpt lat="45.59404" lon="5.9323">
        <ele>550.4</ele>
        <time>2015-03-31T12:47:09Z</time>
      </trkpt>
      <trkpt lat="45.59412" lon="5.93238">
        <ele>550.5</ele>
        <time>2015-03-31T12:47:15Z</time>
      </trkpt>
      <trkpt lat="45.59421" lon="5.93246">
        <ele>550.9</ele>
        <time>2015-03-31T12:47:22Z</time>
      </trkpt>
      <trkpt lat="45.5943" lon="5.93247">
        <ele>552</ele>
        <time>2015-03-31T12:47:28Z</time>
      </trkpt>
      <trkpt lat="45.5944" lon="5.93245">
        <ele>553.3</ele>
        <time>2015-03-31T12:47:35Z</time>
      </trkpt>
      <trkpt lat="45.59449" lon="5.93242">
        <ele>554.6</ele>
        <time>2015-03-31T12:47:42Z</time>
      </trkpt>
      <trkpt lat="45.59458" lon="5.93238">
        <ele>555.7</ele>
        <time>2015-03-31T12:47:49Z</time>
      </trkpt>
      <trkpt lat="45.59468" lon="5.93237">
        <ele>556.6</ele>
        <time>2015-03-31T12:47:56Z</time>
      </trkpt>
      <trkpt lat="45.59478" lon="5.93237">
        <ele>557.1</ele>
        <time>2015-03-31T12:48:01Z</time>
      </trkpt>
      <trkpt lat="45.59488" lon="5.9324">
        <ele>557.6</ele>
        <time>2015-03-31T12:48:07Z</time>
      </trkpt>
      <trkpt lat="45.59497" lon="5.9324">
        <ele>558.1</ele>
        <time>2015-03-31T12:48:12Z</time>
      </trkpt>
      <trkpt lat="45.59507" lon="5.93239">
        <ele>559.5</ele>
        <time>2015-03-31T12:48:21Z</time>
      </trkpt>
      <trkpt lat="45.59517" lon="5.93241">
        <ele>560.7</ele>
        <time>2015-03-31T12:48:30Z</time>
      </trkpt>
      <trkpt lat="45.59528" lon="5.9324">
        <ele>561.4</ele>
        <time>2015-03-31T12:48:36Z</time>
      </trkpt>
      <trkpt lat="45.59537" lon="5.93241">
        <ele>562</ele>
        <time>2015-03-31T12:48:41Z</time>
      </trkpt>
      <trkpt lat="45.59547" lon="5.93244">
        <ele>562.6</ele>
        <time>2015-03-31T12:48:47Z</time>
      </trkpt>
      <trkpt lat="45.59555" lon="5.93236">
        <ele>563.5</ele>
        <time>2015-03-31T12:49:00Z</time>
      </trkpt>
      <trkpt lat="45.59565" lon="5.93238">
        <ele>563.5</ele>
        <time>2015-03-31T12:49:06Z</time>
      </trkpt>
      <trkpt lat="45.59575" lon="5.93236">
        <ele>563.4</ele>
        <time>2015-03-31T12:49:11Z</time>
      </trkpt>
      <trkpt lat="45.59584" lon="5.93233">
        <ele>563</ele>
        <time>2015-03-31T12:49:16Z</time>
      </trkpt>
      <trkpt lat="45.59595" lon="5.93237">
        <ele>562.5</ele>
        <time>2015-03-31T12:49:21Z</time>
      </trkpt>
      <trkpt lat="45.59605" lon="5.9324">
        <ele>561.9</ele>
        <time>2015-03-31T12:49:26Z</time>
      </trkpt>
      <trkpt lat="45.59614" lon="5.9324">
        <ele>561.6</ele>
        <time>2015-03-31T12:49:30Z</time>
      </trkpt>
      <trkpt lat="45.59624" lon="5.93243">
        <ele>561.3</ele>
        <time>2015-03-31T12:49:34Z</time>
      </trkpt>
      <trkpt lat="45.59633" lon="5.93247">
        <ele>561.1</ele>
        <time>2015-03-31T12:49:38Z</time>
      </trkpt>
      <trkpt lat="45.59642" lon="5.93252">
        <ele>560.9</ele>
        <time>2015-03-31T12:49:42Z</time>
      </trkpt>
      <trkpt lat="45.59651" lon="5.93257">
        <ele>560.7</ele>
        <time>2015-03-31T12:49:46Z</time>
      </trkpt>
      <trkpt lat="45.5966" lon="5.93261">
        <ele>560.5</ele>
        <time>2015-03-31T12:49:49Z</time>
      </trkpt>
      <trkpt lat="45.59669" lon="5.93267">
        <ele>560</ele>
        <time>2015-03-31T12:49:52Z</time>
      </trkpt>
      <trkpt lat="45.5968" lon="5.93271">
        <ele>559.5</ele>
        <time>2015-03-31T12:49:55Z</time>
      </trkpt>
      <trkpt lat="45.59691" lon="5.93276">
        <ele>559</ele>
        <time>2015-03-31T12:49:58Z</time>
      </trkpt>
      <trkpt lat="45.59697" lon="5.93286">
        <ele>558.3</ele>
        <time>2015-03-31T12:50:02Z</time>
      </trkpt>
      <trkpt lat="45.59699" lon="5.93299">
        <ele>557.6</ele>
        <time>2015-03-31T12:50:06Z</time>
      </trkpt>
      <trkpt lat="45.59708" lon="5.93309">
        <ele>555.4</ele>
        <time>2015-03-31T12:50:19Z</time>
      </trkpt>
      <trkpt lat="45.59717" lon="5.93314">
        <ele>554.8</ele>
        <time>2015-03-31T12:50:22Z</time>
      </trkpt>
      <trkpt lat="45.59725" lon="5.93321">
        <ele>553.8</ele>
        <time>2015-03-31T12:50:25Z</time>
      </trkpt>
      <trkpt lat="45.59732" lon="5.93332">
        <ele>552.1</ele>
        <time>2015-03-31T12:50:30Z</time>
      </trkpt>
      <trkpt lat="45.59741" lon="5.93342">
        <ele>549.7</ele>
        <time>2015-03-31T12:50:35Z</time>
      </trkpt>
      <trkpt lat="45.59752" lon="5.93347">
        <ele>547</ele>
        <time>2015-03-31T12:50:40Z</time>
      </trkpt>
      <trkpt lat="45.59763" lon="5.93349">
        <ele>544.2</ele>
        <time>2015-03-31T12:50:45Z</time>
      </trkpt>
      <trkpt lat="45.59771" lon="5.93358">
        <ele>542.1</ele>
        <time>2015-03-31T12:50:49Z</time>
      </trkpt>
      <trkpt lat="45.5978" lon="5.93368">
        <ele>539.4</ele>
        <time>2015-03-31T12:50:54Z</time>
      </trkpt>
      <trkpt lat="45.5979" lon="5.93371">
        <ele>536.8</ele>
        <time>2015-03-31T12:50:59Z</time>
      </trkpt>
      <trkpt lat="45.59794" lon="5.93384">
        <ele>534.4</ele>
        <time>2015-03-31T12:51:04Z</time>
      </trkpt>
      <trkpt lat="45.59798" lon="5.93395">
        <ele>531.1</ele>
        <time>2015-03-31T12:51:11Z</time>
      </trkpt>
      <trkpt lat="45.59803" lon="5.93407">
        <ele>527.2</ele>
        <time>2015-03-31T12:51:21Z</time>
      </trkpt>
      <trkpt lat="45.59811" lon="5.93413">
        <ele>522.2</ele>
        <time>2015-03-31T12:51:36Z</time>
      </trkpt>
      <trkpt lat="45.59818" lon="5.93422">
        <ele>518.2</ele>
        <time>2015-03-31T12:51:54Z</time>
      </trkpt>
      <trkpt lat="45.59827" lon="5.93421">
        <ele>516.8</ele>
        <time>2015-03-31T12:52:00Z</time>
      </trkpt>
      <trkpt lat="45.59835" lon="5.93431">
        <ele>512.7</ele>
        <time>2015-03-31T12:52:15Z</time>
      </trkpt>
      <trkpt lat="45.59839" lon="5.93444">
        <ele>509.9</ele>
        <time>2015-03-31T12:52:23Z</time>
      </trkpt>
      <trkpt lat="45.59848" lon="5.93449">
        <ele>506.9</ele>
        <time>2015-03-31T12:52:30Z</time>
      </trkpt>
      <trkpt lat="45.59854" lon="5.9346">
        <ele>502</ele>
        <time>2015-03-31T12:52:42Z</time>
      </trkpt>
      <trkpt lat="45.59862" lon="5.93471">
        <ele>499.7</ele>
        <time>2015-03-31T12:52:48Z</time>
      </trkpt>
      <trkpt lat="45.59869" lon="5.93481">
        <ele>498.7</ele>
        <time>2015-03-31T12:52:51Z</time>
      </trkpt>
      <trkpt lat="45.59875" lon="5.93492">
        <ele>495.4</ele>
        <time>2015-03-31T12:53:04Z</time>
      </trkpt>
      <trkpt lat="45.59871" lon="5.93507">
        <ele>494.6</ele>
        <time>2015-03-31T12:53:09Z</time>
      </trkpt>
      <trkpt lat="45.5987" lon="5.9352">
        <ele>494</ele>
        <time>2015-03-31T12:53:14Z</time>
      </trkpt>
      <trkpt lat="45.59865" lon="5.93535">
        <ele>493.5</ele>
        <time>2015-03-31T12:53:19Z</time>
      </trkpt>
      <trkpt lat="45.59859" lon="5.93544">
        <ele>493.1</ele>
        <time>2015-03-31T12:53:23Z</time>
      </trkpt>
      <trkpt lat="45.59853" lon="5.93556">
        <ele>492.5</ele>
        <time>2015-03-31T12:53:26Z</time>
      </trkpt>
      <trkpt lat="45.59849" lon="5.93569">
        <ele>491.5</ele>
        <time>2015-03-31T12:53:30Z</time>
      </trkpt>
      <trkpt lat="45.5984" lon="5.93583">
        <ele>490.3</ele>
        <time>2015-03-31T12:53:33Z</time>
      </trkpt>
      <trkpt lat="45.59836" lon="5.93596">
        <ele>489.3</ele>
        <time>2015-03-31T12:53:35Z</time>
      </trkpt>
      <trkpt lat="45.59833" lon="5.93608">
        <ele>488.4</ele>
        <time>2015-03-31T12:53:37Z</time>
      </trkpt>
      <trkpt lat="45.59831" lon="5.93625">
        <ele>486.4</ele>
        <time>2015-03-31T12:53:41Z</time>
      </trkpt>
      <trkpt lat="45.59829" lon="5.93638">
        <ele>484.9</ele>
        <time>2015-03-31T12:53:44Z</time>
      </trkpt>
      <trkpt lat="45.59833" lon="5.93651">
        <ele>482.2</ele>
        <time>2015-03-31T12:53:49Z</time>
      </trkpt>
      <trkpt lat="45.59838" lon="5.93662">
        <ele>478.4</ele>
        <time>2015-03-31T12:53:59Z</time>
      </trkpt>
      <trkpt lat="45.59838" lon="5.93677">
        <ele>468.8</ele>
        <time>2015-03-31T12:55:03Z</time>
      </trkpt>
      <trkpt lat="45.59835" lon="5.9369">
        <ele>467.4</ele>
        <time>2015-03-31T12:55:09Z</time>
      </trkpt>
      <trkpt lat="45.59837" lon="5.93703">
        <ele>462.1</ele>
        <time>2015-03-31T12:55:33Z</time>
      </trkpt>
      <trkpt lat="45.59841" lon="5.93715">
        <ele>460.8</ele>
        <time>2015-03-31T12:55:39Z</time>
      </trkpt>
      <trkpt lat="45.59843" lon="5.93728">
        <ele>456.6</ele>
        <time>2015-03-31T12:55:57Z</time>
      </trkpt>
      <trkpt lat="45.59853" lon="5.93728">
        <ele>453.1</ele>
        <time>2015-03-31T12:56:16Z</time>
      </trkpt>
      <trkpt lat="45.59861" lon="5.93723">
        <ele>450.6</ele>
        <time>2015-03-31T12:56:29Z</time>
      </trkpt>
      <trkpt lat="45.5987" lon="5.93731">
        <ele>444.5</ele>
        <time>2015-03-31T12:57:00Z</time>
      </trkpt>
      <trkpt lat="45.59879" lon="5.93728">
        <ele>441.5</ele>
        <time>2015-03-31T12:57:19Z</time>
      </trkpt>
      <trkpt lat="45.59889" lon="5.93724">
        <ele>439.8</ele>
        <time>2015-03-31T12:57:38Z</time>
      </trkpt>
      <trkpt lat="45.59886" lon="5.93739">
        <ele>438.6</ele>
        <time>2015-03-31T12:57:45Z</time>
      </trkpt>
      <trkpt lat="45.59879" lon="5.93751">
        <ele>434.8</ele>
        <time>2015-03-31T12:58:03Z</time>
      </trkpt>
      <trkpt lat="45.59871" lon="5.9376">
        <ele>433.3</ele>
        <time>2015-03-31T12:58:11Z</time>
      </trkpt>
      <trkpt lat="45.59863" lon="5.93767">
        <ele>430.4</ele>
        <time>2015-03-31T12:58:26Z</time>
      </trkpt>
      <trkpt lat="45.59872" lon="5.9377">
        <ele>425.7</ele>
        <time>2015-03-31T12:58:56Z</time>
      </trkpt>
      <trkpt lat="45.59882" lon="5.93771">
        <ele>424.8</ele>
        <time>2015-03-31T12:59:00Z</time>
      </trkpt>
      <trkpt lat="45.59894" lon="5.93773">
        <ele>420.8</ele>
        <time>2015-03-31T12:59:20Z</time>
      </trkpt>
      <trkpt lat="45.59903" lon="5.93776">
        <ele>418.4</ele>
        <time>2015-03-31T12:59:32Z</time>
      </trkpt>
      <trkpt lat="45.59912" lon="5.93772">
        <ele>415.8</ele>
        <time>2015-03-31T12:59:49Z</time>
      </trkpt>
      <trkpt lat="45.59903" lon="5.93778">
        <ele>413.2</ele>
        <time>2015-03-31T13:01:21Z</time>
      </trkpt>
      <trkpt lat="45.59893" lon="5.93781">
        <ele>413.3</ele>
        <time>2015-03-31T13:01:26Z</time>
      </trkpt>
      <trkpt lat="45.59882" lon="5.93785">
        <ele>413.4</ele>
        <time>2015-03-31T13:01:30Z</time>
      </trkpt>
      <trkpt lat="45.59872" lon="5.93789">
        <ele>413.5</ele>
        <time>2015-03-31T13:01:33Z</time>
      </trkpt>
      <trkpt lat="45.5986" lon="5.93792">
        <ele>413.6</ele>
        <time>2015-03-31T13:01:36Z</time>
      </trkpt>
      <trkpt lat="45.59848" lon="5.93797">
        <ele>413.7</ele>
        <time>2015-03-31T13:01:39Z</time>
      </trkpt>
      <trkpt lat="45.59838" lon="5.93801">
        <ele>413.9</ele>
        <time>2015-03-31T13:01:42Z</time>
      </trkpt>
      <trkpt lat="45.59829" lon="5.93807">
        <ele>414.1</ele>
        <time>2015-03-31T13:01:45Z</time>
      </trkpt>
      <trkpt lat="45.5982" lon="5.93815">
        <ele>414.2</ele>
        <time>2015-03-31T13:01:48Z</time>
      </trkpt>
      <trkpt lat="45.59811" lon="5.93825">
        <ele>414.4</ele>
        <time>2015-03-31T13:01:51Z</time>
      </trkpt>
      <trkpt lat="45.59801" lon="5.93835">
        <ele>414.5</ele>
        <time>2015-03-31T13:01:54Z</time>
      </trkpt>
      <trkpt lat="45.59791" lon="5.93843">
        <ele>414.6</ele>
        <time>2015-03-31T13:01:58Z</time>
      </trkpt>
      <trkpt lat="45.5978" lon="5.93845">
        <ele>414.8</ele>
        <time>2015-03-31T13:02:01Z</time>
      </trkpt>
      <trkpt lat="45.59769" lon="5.93847">
        <ele>415</ele>
        <time>2015-03-31T13:02:04Z</time>
      </trkpt>
      <trkpt lat="45.59757" lon="5.93847">
        <ele>415.2</ele>
        <time>2015-03-31T13:02:07Z</time>
      </trkpt>
      <trkpt lat="45.59746" lon="5.93849">
        <ele>415.3</ele>
        <time>2015-03-31T13:02:10Z</time>
      </trkpt>
      <trkpt lat="45.59734" lon="5.93849">
        <ele>415.5</ele>
        <time>2015-03-31T13:02:13Z</time>
      </trkpt>
      <trkpt lat="45.59722" lon="5.93852">
        <ele>415.6</ele>
        <time>2015-03-31T13:02:16Z</time>
      </trkpt>
      <trkpt lat="45.59714" lon="5.93861">
        <ele>415.7</ele>
        <time>2015-03-31T13:02:19Z</time>
      </trkpt>
      <trkpt lat="45.59714" lon="5.93878">
        <ele>415.7</ele>
        <time>2015-03-31T13:02:22Z</time>
      </trkpt>
      <trkpt lat="45.59718" lon="5.93892">
        <ele>415.8</ele>
        <time>2015-03-31T13:02:25Z</time>
      </trkpt>
      <trkpt lat="45.59721" lon="5.93908">
        <ele>415.9</ele>
        <time>2015-03-31T13:02:28Z</time>
      </trkpt>
      <trkpt lat="45.59723" lon="5.93922">
        <ele>415.9</ele>
        <time>2015-03-31T13:02:31Z</time>
      </trkpt>
      <trkpt lat="45.59722" lon="5.93939">
        <ele>415.9</ele>
        <time>2015-03-31T13:02:35Z</time>
      </trkpt>
      <trkpt lat="45.59718" lon="5.93953">
        <ele>416.2</ele>
        <time>2015-03-31T13:02:38Z</time>
      </trkpt>
      <trkpt lat="45.59712" lon="5.93966">
        <ele>416.7</ele>
        <time>2015-03-31T13:02:41Z</time>
      </trkpt>
      <trkpt lat="45.59704" lon="5.93976">
        <ele>416.3</ele>
        <time>2015-03-31T13:02:44Z</time>
      </trkpt>
      <trkpt lat="45.59695" lon="5.93984">
        <ele>416.2</ele>
        <time>2015-03-31T13:02:47Z</time>
      </trkpt>
      <trkpt lat="45.59687" lon="5.93991">
        <ele>416.3</ele>
        <time>2015-03-31T13:02:50Z</time>
      </trkpt>
      <trkpt lat="45.59678" lon="5.94002">
        <ele>416.4</ele>
        <time>2015-03-31T13:02:54Z</time>
      </trkpt>
      <trkpt lat="45.59672" lon="5.94012">
        <ele>416.4</ele>
        <time>2015-03-31T13:02:57Z</time>
      </trkpt>
      <trkpt lat="45.59666" lon="5.94023">
        <ele>417.8</ele>
        <time>2015-03-31T13:03:00Z</time>
      </trkpt>
      <trkpt lat="45.5966" lon="5.94037">
        <ele>417.7</ele>
        <time>2015-03-31T13:03:04Z</time>
      </trkpt>
      <trkpt lat="45.59656" lon="5.94049">
        <ele>418.5</ele>
        <time>2015-03-31T13:03:07Z</time>
      </trkpt>
      <trkpt lat="45.59651" lon="5.94061">
        <ele>418.5</ele>
        <time>2015-03-31T13:03:10Z</time>
      </trkpt>
      <trkpt lat="45.59646" lon="5.94072">
        <ele>418.5</ele>
        <time>2015-03-31T13:03:13Z</time>
      </trkpt>
      <trkpt lat="45.59653" lon="5.94084">
        <ele>418.4</ele>
        <time>2015-03-31T13:03:17Z</time>
      </trkpt>
      <trkpt lat="45.59662" lon="5.94086">
        <ele>418.4</ele>
        <time>2015-03-31T13:03:20Z</time>
      </trkpt>
      <trkpt lat="45.59671" lon="5.94087">
        <ele>418.4</ele>
        <time>2015-03-31T13:03:23Z</time>
      </trkpt>
      <trkpt lat="45.59681" lon="5.94087">
        <ele>418.3</ele>
        <time>2015-03-31T13:03:26Z</time>
      </trkpt>
      <trkpt lat="45.59691" lon="5.94086">
        <ele>418.4</ele>
        <time>2015-03-31T13:03:29Z</time>
      </trkpt>
      <trkpt lat="45.597" lon="5.94085">
        <ele>418.5</ele>
        <time>2015-03-31T13:03:32Z</time>
      </trkpt>
      <trkpt lat="45.59711" lon="5.94083">
        <ele>418.7</ele>
        <time>2015-03-31T13:03:36Z</time>
      </trkpt>
      <trkpt lat="45.59721" lon="5.9408">
        <ele>418.9</ele>
        <time>2015-03-31T13:03:40Z</time>
      </trkpt>
      <trkpt lat="45.59732" lon="5.9408">
        <ele>419.2</ele>
        <time>2015-03-31T13:03:44Z</time>
      </trkpt>
      <trkpt lat="45.59741" lon="5.9408">
        <ele>420.5</ele>
        <time>2015-03-31T13:03:48Z</time>
      </trkpt>
      <trkpt lat="45.59752" lon="5.94082">
        <ele>421</ele>
        <time>2015-03-31T13:03:52Z</time>
      </trkpt>
      <trkpt lat="45.59763" lon="5.94084">
        <ele>421.3</ele>
        <time>2015-03-31T13:03:56Z</time>
      </trkpt>
      <trkpt lat="45.59772" lon="5.94085">
        <ele>421.6</ele>
        <time>2015-03-31T13:03:59Z</time>
      </trkpt>
      <trkpt lat="45.59782" lon="5.94086">
        <ele>421.9</ele>
        <time>2015-03-31T13:04:03Z</time>
      </trkpt>
      <trkpt lat="45.59791" lon="5.94089">
        <ele>422.4</ele>
        <time>2015-03-31T13:04:07Z</time>
      </trkpt>
      <trkpt lat="45.59801" lon="5.9409">
        <ele>422.9</ele>
        <time>2015-03-31T13:04:11Z</time>
      </trkpt>
      <trkpt lat="45.5981" lon="5.94092">
        <ele>423.5</ele>
        <time>2015-03-31T13:04:15Z</time>
      </trkpt>
      <trkpt lat="45.59819" lon="5.94094">
        <ele>424.1</ele>
        <time>2015-03-31T13:04:19Z</time>
      </trkpt>
      <trkpt lat="45.59828" lon="5.94096">
        <ele>424.8</ele>
        <time>2015-03-31T13:04:23Z</time>
      </trkpt>
      <trkpt lat="45.5984" lon="5.94099">
        <ele>425.7</ele>
        <time>2015-03-31T13:04:28Z</time>
      </trkpt>
      <trkpt lat="45.59849" lon="5.94101">
        <ele>426.3</ele>
        <time>2015-03-31T13:04:32Z</time>
      </trkpt>
      <trkpt lat="45.59859" lon="5.94106">
        <ele>427.3</ele>
        <time>2015-03-31T13:04:37Z</time>
      </trkpt>
      <trkpt lat="45.59869" lon="5.94109">
        <ele>428.2</ele>
        <time>2015-03-31T13:04:42Z</time>
      </trkpt>
      <trkpt lat="45.59878" lon="5.94115">
        <ele>429.1</ele>
        <time>2015-03-31T13:04:47Z</time>
      </trkpt>
      <trkpt lat="45.59887" lon="5.9412">
        <ele>430.2</ele>
        <time>2015-03-31T13:04:52Z</time>
      </trkpt>
      <trkpt lat="45.59895" lon="5.94126">
        <ele>431.2</ele>
        <time>2015-03-31T13:04:57Z</time>
      </trkpt>
      <trkpt lat="45.59903" lon="5.94133">
        <ele>432.3</ele>
        <time>2015-03-31T13:05:02Z</time>
      </trkpt>
      <trkpt lat="45.59911" lon="5.94143">
        <ele>433.6</ele>
        <time>2015-03-31T13:05:08Z</time>
      </trkpt>
      <trkpt lat="45.59916" lon="5.94155">
        <ele>434.8</ele>
        <time>2015-03-31T13:05:14Z</time>
      </trkpt>
      <trkpt lat="45.59925" lon="5.94164">
        <ele>436.1</ele>
        <time>2015-03-31T13:05:21Z</time>
      </trkpt>
      <trkpt lat="45.59934" lon="5.94171">
        <ele>437</ele>
        <time>2015-03-31T13:05:27Z</time>
      </trkpt>
      <trkpt lat="45.59943" lon="5.94176">
        <ele>437.6</ele>
        <time>2015-03-31T13:05:32Z</time>
      </trkpt>
      <trkpt lat="45.59952" lon="5.94182">
        <ele>438.3</ele>
        <time>2015-03-31T13:05:38Z</time>
      </trkpt>
      <trkpt lat="45.5996" lon="5.94191">
        <ele>439</ele>
        <time>2015-03-31T13:05:44Z</time>
      </trkpt>
      <trkpt lat="45.5997" lon="5.94187">
        <ele>439.7</ele>
        <time>2015-03-31T13:05:51Z</time>
      </trkpt>
      <trkpt lat="45.59976" lon="5.94177">
        <ele>440.5</ele>
        <time>2015-03-31T13:05:57Z</time>
      </trkpt>
      <trkpt lat="45.59983" lon="5.94166">
        <ele>441.6</ele>
        <time>2015-03-31T13:06:05Z</time>
      </trkpt>
      <trkpt lat="45.59988" lon="5.94155">
        <ele>442.6</ele>
        <time>2015-03-31T13:06:11Z</time>
      </trkpt>
      <trkpt lat="45.59993" lon="5.94142">
        <ele>444.1</ele>
        <time>2015-03-31T13:06:18Z</time>
      </trkpt>
      <trkpt lat="45.59998" lon="5.94131">
        <ele>445.4</ele>
        <time>2015-03-31T13:06:24Z</time>
      </trkpt>
      <trkpt lat="45.60002" lon="5.94118">
        <ele>447</ele>
        <time>2015-03-31T13:06:31Z</time>
      </trkpt>
      <trkpt lat="45.60006" lon="5.94104">
        <ele>448.8</ele>
        <time>2015-03-31T13:06:38Z</time>
      </trkpt>
      <trkpt lat="45.60013" lon="5.94093">
        <ele>450.5</ele>
        <time>2015-03-31T13:06:45Z</time>
      </trkpt>
      <trkpt lat="45.60021" lon="5.94085">
        <ele>451.9</ele>
        <time>2015-03-31T13:06:51Z</time>
      </trkpt>
      <trkpt lat="45.60027" lon="5.94076">
        <ele>453.2</ele>
        <time>2015-03-31T13:06:57Z</time>
      </trkpt>
      <trkpt lat="45.60037" lon="5.94069">
        <ele>454.5</ele>
        <time>2015-03-31T13:07:03Z</time>
      </trkpt>
      <trkpt lat="45.60046" lon="5.94065">
        <ele>455.5</ele>
        <time>2015-03-31T13:07:08Z</time>
      </trkpt>
      <trkpt lat="45.60055" lon="5.94059">
        <ele>456.9</ele>
        <time>2015-03-31T13:07:14Z</time>
      </trkpt>
      <trkpt lat="45.60063" lon="5.94051">
        <ele>459.1</ele>
        <time>2015-03-31T13:07:22Z</time>
      </trkpt>
      <trkpt lat="45.60071" lon="5.94044">
        <ele>462.7</ele>
        <time>2015-03-31T13:07:29Z</time>
      </trkpt>
      <trkpt lat="45.6008" lon="5.94037">
        <ele>463.6</ele>
        <time>2015-03-31T13:07:36Z</time>
      </trkpt>
      <trkpt lat="45.60087" lon="5.94028">
        <ele>464.5</ele>
        <time>2015-03-31T13:07:43Z</time>
      </trkpt>
      <trkpt lat="45.60095" lon="5.94023">
        <ele>465.4</ele>
        <time>2015-03-31T13:07:49Z</time>
      </trkpt>
      <trkpt lat="45.60103" lon="5.94016">
        <ele>466.5</ele>
        <time>2015-03-31T13:07:55Z</time>
      </trkpt>
      <trkpt lat="45.60112" lon="5.94013">
        <ele>467.8</ele>
        <time>2015-03-31T13:08:01Z</time>
      </trkpt>
      <trkpt lat="45.60121" lon="5.94013">
        <ele>469.3</ele>
        <time>2015-03-31T13:08:07Z</time>
      </trkpt>
      <trkpt lat="45.60131" lon="5.94012">
        <ele>470.9</ele>
        <time>2015-03-31T13:08:14Z</time>
      </trkpt>
      <trkpt lat="45.60141" lon="5.94015">
        <ele>472.5</ele>
        <time>2015-03-31T13:08:21Z</time>
      </trkpt>
      <trkpt lat="45.6015" lon="5.94014">
        <ele>473.9</ele>
        <time>2015-03-31T13:08:27Z</time>
      </trkpt>
      <trkpt lat="45.60159" lon="5.94012">
        <ele>475.3</ele>
        <time>2015-03-31T13:08:33Z</time>
      </trkpt>
      <trkpt lat="45.60168" lon="5.94009">
        <ele>476.7</ele>
        <time>2015-03-31T13:08:40Z</time>
      </trkpt>
      <trkpt lat="45.60177" lon="5.94012">
        <ele>477.9</ele>
        <time>2015-03-31T13:08:46Z</time>
      </trkpt>
      <trkpt lat="45.60186" lon="5.94017">
        <ele>479.1</ele>
        <time>2015-03-31T13:08:52Z</time>
      </trkpt>
      <trkpt lat="45.60194" lon="5.94025">
        <ele>481.5</ele>
        <time>2015-03-31T13:08:58Z</time>
      </trkpt>
      <trkpt lat="45.60203" lon="5.9403">
        <ele>484.4</ele>
        <time>2015-03-31T13:09:04Z</time>
      </trkpt>
      <trkpt lat="45.60213" lon="5.94036">
        <ele>485</ele>
        <time>2015-03-31T13:09:12Z</time>
      </trkpt>
      <trkpt lat="45.60222" lon="5.94036">
        <ele>485.2</ele>
        <time>2015-03-31T13:09:18Z</time>
      </trkpt>
      <trkpt lat="45.60231" lon="5.94033">
        <ele>485.9</ele>
        <time>2015-03-31T13:09:24Z</time>
      </trkpt>
      <trkpt lat="45.6024" lon="5.9403">
        <ele>486.8</ele>
        <time>2015-03-31T13:09:30Z</time>
      </trkpt>
      <trkpt lat="45.60251" lon="5.94029">
        <ele>488.4</ele>
        <time>2015-03-31T13:09:38Z</time>
      </trkpt>
      <trkpt lat="45.60259" lon="5.94023">
        <ele>490.1</ele>
        <time>2015-03-31T13:09:46Z</time>
      </trkpt>
      <trkpt lat="45.60253" lon="5.94014">
        <ele>491.3</ele>
        <time>2015-03-31T13:09:52Z</time>
      </trkpt>
      <trkpt lat="45.60251" lon="5.94001">
        <ele>493.1</ele>
        <time>2015-03-31T13:10:00Z</time>
      </trkpt>
      <trkpt lat="45.6026" lon="5.94002">
        <ele>495</ele>
        <time>2015-03-31T13:10:08Z</time>
      </trkpt>
      <trkpt lat="45.60266" lon="5.93992">
        <ele>496.6</ele>
        <time>2015-03-31T13:10:15Z</time>
      </trkpt>
      <trkpt lat="45.6026" lon="5.93981">
        <ele>498</ele>
        <time>2015-03-31T13:10:22Z</time>
      </trkpt>
      <trkpt lat="45.60269" lon="5.93978">
        <ele>500.1</ele>
        <time>2015-03-31T13:10:31Z</time>
      </trkpt>
      <trkpt lat="45.6028" lon="5.93979">
        <ele>501.8</ele>
        <time>2015-03-31T13:10:39Z</time>
      </trkpt>
      <trkpt lat="45.60289" lon="5.93979">
        <ele>503</ele>
        <time>2015-03-31T13:10:45Z</time>
      </trkpt>
      <trkpt lat="45.60298" lon="5.93972">
        <ele>504.5</ele>
        <time>2015-03-31T13:10:53Z</time>
      </trkpt>
      <trkpt lat="45.60306" lon="5.93964">
        <ele>506</ele>
        <time>2015-03-31T13:11:00Z</time>
      </trkpt>
      <trkpt lat="45.60314" lon="5.93957">
        <ele>507.5</ele>
        <time>2015-03-31T13:11:07Z</time>
      </trkpt>
      <trkpt lat="45.6032" lon="5.93947">
        <ele>509.9</ele>
        <time>2015-03-31T13:11:17Z</time>
      </trkpt>
      <trkpt lat="45.60323" lon="5.93935">
        <ele>512.1</ele>
        <time>2015-03-31T13:11:25Z</time>
      </trkpt>
      <trkpt lat="45.60328" lon="5.93922">
        <ele>514.5</ele>
        <time>2015-03-31T13:11:34Z</time>
      </trkpt>
      <trkpt lat="45.60332" lon="5.93909">
        <ele>516.4</ele>
        <time>2015-03-31T13:11:42Z</time>
      </trkpt>
      <trkpt lat="45.60338" lon="5.93899">
        <ele>518.7</ele>
        <time>2015-03-31T13:11:51Z</time>
      </trkpt>
      <trkpt lat="45.60343" lon="5.93886">
        <ele>521</ele>
        <time>2015-03-31T13:12:01Z</time>
      </trkpt>
      <trkpt lat="45.60349" lon="5.93876">
        <ele>522.9</ele>
        <time>2015-03-31T13:12:09Z</time>
      </trkpt>
      <trkpt lat="45.60354" lon="5.93864">
        <ele>524.7</ele>
        <time>2015-03-31T13:12:18Z</time>
      </trkpt>
      <trkpt lat="45.60359" lon="5.93853">
        <ele>526.7</ele>
        <time>2015-03-31T13:12:27Z</time>
      </trkpt>
      <trkpt lat="45.60367" lon="5.93845">
        <ele>528.4</ele>
        <time>2015-03-31T13:12:35Z</time>
      </trkpt>
      <trkpt lat="45.60374" lon="5.93838">
        <ele>530</ele>
        <time>2015-03-31T13:12:43Z</time>
      </trkpt>
      <trkpt lat="45.60384" lon="5.93837">
        <ele>531.2</ele>
        <time>2015-03-31T13:12:50Z</time>
      </trkpt>
      <trkpt lat="45.60394" lon="5.93837">
        <ele>532.4</ele>
        <time>2015-03-31T13:12:57Z</time>
      </trkpt>
      <trkpt lat="45.60403" lon="5.93833">
        <ele>533.8</ele>
        <time>2015-03-31T13:13:05Z</time>
      </trkpt>
      <trkpt lat="45.60412" lon="5.93826">
        <ele>535.7</ele>
        <time>2015-03-31T13:13:14Z</time>
      </trkpt>
      <trkpt lat="45.60421" lon="5.93822">
        <ele>537.4</ele>
        <time>2015-03-31T13:13:22Z</time>
      </trkpt>
      <trkpt lat="45.6043" lon="5.93816">
        <ele>539</ele>
        <time>2015-03-31T13:13:30Z</time>
      </trkpt>
      <trkpt lat="45.60439" lon="5.93809">
        <ele>540.5</ele>
        <time>2015-03-31T13:13:38Z</time>
      </trkpt>
      <trkpt lat="45.60447" lon="5.93801">
        <ele>541.7</ele>
        <time>2015-03-31T13:13:45Z</time>
      </trkpt>
      <trkpt lat="45.60456" lon="5.93796">
        <ele>542.4</ele>
        <time>2015-03-31T13:13:51Z</time>
      </trkpt>
      <trkpt lat="45.60465" lon="5.93792">
        <ele>543.3</ele>
        <time>2015-03-31T13:13:58Z</time>
      </trkpt>
      <trkpt lat="45.60473" lon="5.93787">
        <ele>543.9</ele>
        <time>2015-03-31T13:14:05Z</time>
      </trkpt>
      <trkpt lat="45.60482" lon="5.93783">
        <ele>544.5</ele>
        <time>2015-03-31T13:14:12Z</time>
      </trkpt>
      <trkpt lat="45.60491" lon="5.93778">
        <ele>545.1</ele>
        <time>2015-03-31T13:14:20Z</time>
      </trkpt>
      <trkpt lat="45.605" lon="5.93776">
        <ele>545.8</ele>
        <time>2015-03-31T13:14:27Z</time>
      </trkpt>
      <trkpt lat="45.6051" lon="5.93773">
        <ele>546.6</ele>
        <time>2015-03-31T13:14:35Z</time>
      </trkpt>
      <trkpt lat="45.6052" lon="5.9377">
        <ele>547.6</ele>
        <time>2015-03-31T13:14:42Z</time>
      </trkpt>
      <trkpt lat="45.6053" lon="5.93766">
        <ele>548.2</ele>
        <time>2015-03-31T13:14:47Z</time>
      </trkpt>
      <trkpt lat="45.60539" lon="5.93764">
        <ele>548.5</ele>
        <time>2015-03-31T13:14:51Z</time>
      </trkpt>
      <trkpt lat="45.60548" lon="5.9376">
        <ele>548.9</ele>
        <time>2015-03-31T13:14:56Z</time>
      </trkpt>
      <trkpt lat="45.60557" lon="5.93759">
        <ele>549.3</ele>
        <time>2015-03-31T13:15:02Z</time>
      </trkpt>
      <trkpt lat="45.60567" lon="5.93755">
        <ele>549.6</ele>
        <time>2015-03-31T13:15:08Z</time>
      </trkpt>
      <trkpt lat="45.60577" lon="5.93752">
        <ele>550.1</ele>
        <time>2015-03-31T13:15:15Z</time>
      </trkpt>
      <trkpt lat="45.60586" lon="5.93751">
        <ele>550.6</ele>
        <time>2015-03-31T13:15:21Z</time>
      </trkpt>
      <trkpt lat="45.60596" lon="5.93746">
        <ele>551.3</ele>
        <time>2015-03-31T13:15:27Z</time>
      </trkpt>
      <trkpt lat="45.60605" lon="5.93744">
        <ele>552.1</ele>
        <time>2015-03-31T13:15:34Z</time>
      </trkpt>
      <trkpt lat="45.60615" lon="5.93742">
        <ele>553</ele>
        <time>2015-03-31T13:15:41Z</time>
      </trkpt>
      <trkpt lat="45.60625" lon="5.93744">
        <ele>554.2</ele>
        <time>2015-03-31T13:15:48Z</time>
      </trkpt>
      <trkpt lat="45.60635" lon="5.93742">
        <ele>555.4</ele>
        <time>2015-03-31T13:15:55Z</time>
      </trkpt>
      <trkpt lat="45.60644" lon="5.9374">
        <ele>556.8</ele>
        <time>2015-03-31T13:16:03Z</time>
      </trkpt>
      <trkpt lat="45.60654" lon="5.93739">
        <ele>558.2</ele>
        <time>2015-03-31T13:16:11Z</time>
      </trkpt>
      <trkpt lat="45.60662" lon="5.93746">
        <ele>559.6</ele>
        <time>2015-03-31T13:16:19Z</time>
      </trkpt>
      <trkpt lat="45.60665" lon="5.93758">
        <ele>561.1</ele>
        <time>2015-03-31T13:16:27Z</time>
      </trkpt>
      <trkpt lat="45.60669" lon="5.9377">
        <ele>563</ele>
        <time>2015-03-31T13:16:34Z</time>
      </trkpt>
      <trkpt lat="45.60672" lon="5.93782">
        <ele>564.6</ele>
        <time>2015-03-31T13:16:41Z</time>
      </trkpt>
      <trkpt lat="45.60678" lon="5.93793">
        <ele>565.9</ele>
        <time>2015-03-31T13:16:48Z</time>
      </trkpt>
      <trkpt lat="45.60686" lon="5.93802">
        <ele>567.1</ele>
        <time>2015-03-31T13:16:55Z</time>
      </trkpt>
      <trkpt lat="45.60694" lon="5.93809">
        <ele>569.3</ele>
        <time>2015-03-31T13:17:05Z</time>
      </trkpt>
      <trkpt lat="45.60696" lon="5.93825">
        <ele>570.5</ele>
        <time>2015-03-31T13:17:13Z</time>
      </trkpt>
      <trkpt lat="45.60692" lon="5.93841">
        <ele>570.6</ele>
        <time>2015-03-31T13:17:16Z</time>
      </trkpt>
      <trkpt lat="45.6069" lon="5.93858">
        <ele>570.5</ele>
        <time>2015-03-31T13:17:19Z</time>
      </trkpt>
      <trkpt lat="45.6069" lon="5.93875">
        <ele>570.3</ele>
        <time>2015-03-31T13:17:22Z</time>
      </trkpt>
      <trkpt lat="45.6069" lon="5.93889">
        <ele>570.1</ele>
        <time>2015-03-31T13:17:25Z</time>
      </trkpt>
      <trkpt lat="45.60693" lon="5.93901">
        <ele>570</ele>
        <time>2015-03-31T13:17:28Z</time>
      </trkpt>
      <trkpt lat="45.60698" lon="5.93914">
        <ele>569.8</ele>
        <time>2015-03-31T13:17:33Z</time>
      </trkpt>
      <trkpt lat="45.60701" lon="5.93926">
        <ele>569.8</ele>
        <time>2015-03-31T13:17:38Z</time>
      </trkpt>
      <trkpt lat="45.60705" lon="5.9394">
        <ele>569.8</ele>
        <time>2015-03-31T13:17:44Z</time>
      </trkpt>
      <trkpt lat="45.60709" lon="5.93953">
        <ele>570</ele>
        <time>2015-03-31T13:17:48Z</time>
      </trkpt>
      <trkpt lat="45.60714" lon="5.93968">
        <ele>569.6</ele>
        <time>2015-03-31T13:17:51Z</time>
      </trkpt>
      <trkpt lat="45.60718" lon="5.9398">
        <ele>569.3</ele>
        <time>2015-03-31T13:17:53Z</time>
      </trkpt>
      <trkpt lat="45.60725" lon="5.93994">
        <ele>569</ele>
        <time>2015-03-31T13:17:55Z</time>
      </trkpt>
      <trkpt lat="45.6073" lon="5.94006">
        <ele>568.8</ele>
        <time>2015-03-31T13:17:57Z</time>
      </trkpt>
      <trkpt lat="45.6074" lon="5.94018">
        <ele>568.5</ele>
        <time>2015-03-31T13:18:00Z</time>
      </trkpt>
      <trkpt lat="45.60749" lon="5.94024">
        <ele>568</ele>
        <time>2015-03-31T13:18:03Z</time>
      </trkpt>
      <trkpt lat="45.60757" lon="5.94031">
        <ele>567.1</ele>
        <time>2015-03-31T13:18:08Z</time>
      </trkpt>
      <trkpt lat="45.60765" lon="5.94041">
        <ele>566.3</ele>
        <time>2015-03-31T13:18:14Z</time>
      </trkpt>
      <trkpt lat="45.60771" lon="5.94053">
        <ele>565.9</ele>
        <time>2015-03-31T13:18:19Z</time>
      </trkpt>
      <trkpt lat="45.60774" lon="5.94066">
        <ele>565.8</ele>
        <time>2015-03-31T13:18:25Z</time>
      </trkpt>
      <trkpt lat="45.60778" lon="5.94079">
        <ele>565</ele>
        <time>2015-03-31T13:18:32Z</time>
      </trkpt>
      <trkpt lat="45.6078" lon="5.94093">
        <ele>565.8</ele>
        <time>2015-03-31T13:18:40Z</time>
      </trkpt>
      <trkpt lat="45.60783" lon="5.94105">
        <ele>566.4</ele>
        <time>2015-03-31T13:18:47Z</time>
      </trkpt>
      <trkpt lat="45.60789" lon="5.94114">
        <ele>567.2</ele>
        <time>2015-03-31T13:18:54Z</time>
      </trkpt>
      <trkpt lat="45.60796" lon="5.94126">
        <ele>568.3</ele>
        <time>2015-03-31T13:19:02Z</time>
      </trkpt>
      <trkpt lat="45.60785" lon="5.94127">
        <ele>574</ele>
        <time>2015-03-31T13:19:36Z</time>
      </trkpt>
      <trkpt lat="45.60775" lon="5.94129">
        <ele>574.5</ele>
        <time>2015-03-31T13:19:39Z</time>
      </trkpt>
      <trkpt lat="45.6076" lon="5.94133">
        <ele>575</ele>
        <time>2015-03-31T13:19:43Z</time>
      </trkpt>
      <trkpt lat="45.60751" lon="5.94137">
        <ele>575.5</ele>
        <time>2015-03-31T13:19:46Z</time>
      </trkpt>
      <trkpt lat="45.60741" lon="5.94142">
        <ele>576</ele>
        <time>2015-03-31T13:19:49Z</time>
      </trkpt>
      <trkpt lat="45.60731" lon="5.94149">
        <ele>577.1</ele>
        <time>2015-03-31T13:19:54Z</time>
      </trkpt>
      <trkpt lat="45.60725" lon="5.94158">
        <ele>578.8</ele>
        <time>2015-03-31T13:20:01Z</time>
      </trkpt>
      <trkpt lat="45.6073" lon="5.94171">
        <ele>581.3</ele>
        <time>2015-03-31T13:20:39Z</time>
      </trkpt>
      <trkpt lat="45.6073" lon="5.94184">
        <ele>582.6</ele>
        <time>2015-03-31T13:20:48Z</time>
      </trkpt>
      <trkpt lat="45.60734" lon="5.94197">
        <ele>583.8</ele>
        <time>2015-03-31T13:20:56Z</time>
      </trkpt>
      <trkpt lat="45.6074" lon="5.9421">
        <ele>585.1</ele>
        <time>2015-03-31T13:21:04Z</time>
      </trkpt>
      <trkpt lat="45.60744" lon="5.94222">
        <ele>586.5</ele>
        <time>2015-03-31T13:21:13Z</time>
      </trkpt>
      <trkpt lat="45.60749" lon="5.94234">
        <ele>588</ele>
        <time>2015-03-31T13:21:22Z</time>
      </trkpt>
      <trkpt lat="45.60753" lon="5.94248">
        <ele>589.7</ele>
        <time>2015-03-31T13:21:32Z</time>
      </trkpt>
      <trkpt lat="45.60759" lon="5.94259">
        <ele>590.6</ele>
        <time>2015-03-31T13:21:38Z</time>
      </trkpt>
      <trkpt lat="45.60764" lon="5.94271">
        <ele>591.7</ele>
        <time>2015-03-31T13:21:45Z</time>
      </trkpt>
      <trkpt lat="45.60769" lon="5.94283">
        <ele>592.9</ele>
        <time>2015-03-31T13:21:53Z</time>
      </trkpt>
      <trkpt lat="45.60776" lon="5.94292">
        <ele>594.1</ele>
        <time>2015-03-31T13:22:01Z</time>
      </trkpt>
      <trkpt lat="45.60781" lon="5.94303">
        <ele>595.8</ele>
        <time>2015-03-31T13:22:11Z</time>
      </trkpt>
      <trkpt lat="45.60789" lon="5.94309">
        <ele>596.9</ele>
        <time>2015-03-31T13:22:18Z</time>
      </trkpt>
      <trkpt lat="45.60798" lon="5.94314">
        <ele>598</ele>
        <time>2015-03-31T13:22:25Z</time>
      </trkpt>
      <trkpt lat="45.60808" lon="5.94317">
        <ele>599.9</ele>
        <time>2015-03-31T13:22:36Z</time>
      </trkpt>
      <trkpt lat="45.60817" lon="5.94321">
        <ele>601.8</ele>
        <time>2015-03-31T13:22:46Z</time>
      </trkpt>
      <trkpt lat="45.60826" lon="5.94325">
        <ele>602.9</ele>
        <time>2015-03-31T13:22:52Z</time>
      </trkpt>
      <trkpt lat="45.60834" lon="5.94331">
        <ele>604.2</ele>
        <time>2015-03-31T13:23:00Z</time>
      </trkpt>
      <trkpt lat="45.60841" lon="5.94339">
        <ele>606.1</ele>
        <time>2015-03-31T13:23:11Z</time>
      </trkpt>
      <trkpt lat="45.60849" lon="5.94347">
        <ele>607.2</ele>
        <time>2015-03-31T13:23:17Z</time>
      </trkpt>
      <trkpt lat="45.60857" lon="5.94354">
        <ele>608.8</ele>
        <time>2015-03-31T13:23:25Z</time>
      </trkpt>
      <trkpt lat="45.60866" lon="5.9436">
        <ele>610.9</ele>
        <time>2015-03-31T13:23:37Z</time>
      </trkpt>
      <trkpt lat="45.60873" lon="5.94369">
        <ele>612.1</ele>
        <time>2015-03-31T13:23:46Z</time>
      </trkpt>
      <trkpt lat="45.60881" lon="5.94378">
        <ele>613.4</ele>
        <time>2015-03-31T13:23:55Z</time>
      </trkpt>
      <trkpt lat="45.60889" lon="5.94384">
        <ele>614.8</ele>
        <time>2015-03-31T13:24:04Z</time>
      </trkpt>
      <trkpt lat="45.60897" lon="5.94392">
        <ele>616.6</ele>
        <time>2015-03-31T13:24:15Z</time>
      </trkpt>
      <trkpt lat="45.60905" lon="5.944">
        <ele>617.9</ele>
        <time>2015-03-31T13:24:21Z</time>
      </trkpt>
      <trkpt lat="45.60912" lon="5.94409">
        <ele>621</ele>
        <time>2015-03-31T13:24:38Z</time>
      </trkpt>
      <trkpt lat="45.60914" lon="5.94422">
        <ele>623.3</ele>
        <time>2015-03-31T13:25:19Z</time>
      </trkpt>
      <trkpt lat="45.60914" lon="5.94436">
        <ele>623.8</ele>
        <time>2015-03-31T13:25:30Z</time>
      </trkpt>
      <trkpt lat="45.60923" lon="5.9443">
        <ele>624.9</ele>
        <time>2015-03-31T13:25:40Z</time>
      </trkpt>
      <trkpt lat="45.60931" lon="5.94424">
        <ele>626.3</ele>
        <time>2015-03-31T13:25:48Z</time>
      </trkpt>
      <trkpt lat="45.60941" lon="5.94423">
        <ele>628.4</ele>
        <time>2015-03-31T13:26:00Z</time>
      </trkpt>
      <trkpt lat="45.6095" lon="5.94424">
        <ele>631.2</ele>
        <time>2015-03-31T13:26:16Z</time>
      </trkpt>
      <trkpt lat="45.60959" lon="5.94421">
        <ele>633.4</ele>
        <time>2015-03-31T13:26:29Z</time>
      </trkpt>
      <trkpt lat="45.60968" lon="5.94417">
        <ele>635.6</ele>
        <time>2015-03-31T13:26:44Z</time>
      </trkpt>
      <trkpt lat="45.60976" lon="5.9441">
        <ele>638.3</ele>
        <time>2015-03-31T13:27:07Z</time>
      </trkpt>
      <trkpt lat="45.60983" lon="5.944">
        <ele>639</ele>
        <time>2015-03-31T13:27:16Z</time>
      </trkpt>
      <trkpt lat="45.60991" lon="5.94392">
        <ele>640</ele>
        <time>2015-03-31T13:27:24Z</time>
      </trkpt>
      <trkpt lat="45.60999" lon="5.94385">
        <ele>642.2</ele>
        <time>2015-03-31T13:27:35Z</time>
      </trkpt>
      <trkpt lat="45.61009" lon="5.94382">
        <ele>646</ele>
        <time>2015-03-31T13:28:01Z</time>
      </trkpt>
      <trkpt lat="45.61015" lon="5.9437">
        <ele>649.3</ele>
        <time>2015-03-31T13:28:29Z</time>
      </trkpt>
      <trkpt lat="45.61015" lon="5.94357">
        <ele>651.5</ele>
        <time>2015-03-31T13:28:53Z</time>
      </trkpt>
      <trkpt lat="45.6102" lon="5.94345">
        <ele>652.4</ele>
        <time>2015-03-31T13:29:07Z</time>
      </trkpt>
      <trkpt lat="45.61026" lon="5.94332">
        <ele>652.7</ele>
        <time>2015-03-31T13:29:13Z</time>
      </trkpt>
      <trkpt lat="45.61031" lon="5.9432">
        <ele>653.2</ele>
        <time>2015-03-31T13:29:20Z</time>
      </trkpt>
      <trkpt lat="45.61036" lon="5.94308">
        <ele>654.1</ele>
        <time>2015-03-31T13:29:27Z</time>
      </trkpt>
      <trkpt lat="45.61042" lon="5.94296">
        <ele>654.9</ele>
        <time>2015-03-31T13:29:35Z</time>
      </trkpt>
      <trkpt lat="45.61049" lon="5.94287">
        <ele>656.1</ele>
        <time>2015-03-31T13:29:42Z</time>
      </trkpt>
      <trkpt lat="45.61047" lon="5.94274">
        <ele>659.2</ele>
        <time>2015-03-31T13:30:24Z</time>
      </trkpt>
      <trkpt lat="45.61058" lon="5.94275">
        <ele>658.4</ele>
        <time>2015-03-31T13:30:31Z</time>
      </trkpt>
      <trkpt lat="45.61066" lon="5.94282">
        <ele>656.9</ele>
        <time>2015-03-31T13:30:37Z</time>
      </trkpt>
      <trkpt lat="45.61076" lon="5.94288">
        <ele>654.6</ele>
        <time>2015-03-31T13:30:49Z</time>
      </trkpt>
      <trkpt lat="45.61087" lon="5.94294">
        <ele>654</ele>
        <time>2015-03-31T13:30:52Z</time>
      </trkpt>
      <trkpt lat="45.61096" lon="5.94298">
        <ele>653.3</ele>
        <time>2015-03-31T13:30:54Z</time>
      </trkpt>
      <trkpt lat="45.61106" lon="5.94303">
        <ele>652.4</ele>
        <time>2015-03-31T13:30:56Z</time>
      </trkpt>
      <trkpt lat="45.61119" lon="5.94311">
        <ele>651</ele>
        <time>2015-03-31T13:30:59Z</time>
      </trkpt>
      <trkpt lat="45.61129" lon="5.94314">
        <ele>649.9</ele>
        <time>2015-03-31T13:31:01Z</time>
      </trkpt>
      <trkpt lat="45.61138" lon="5.94317">
        <ele>648.2</ele>
        <time>2015-03-31T13:31:03Z</time>
      </trkpt>
      <trkpt lat="45.61149" lon="5.94319">
        <ele>646.8</ele>
        <time>2015-03-31T13:31:05Z</time>
      </trkpt>
      <trkpt lat="45.61161" lon="5.94321">
        <ele>645.3</ele>
        <time>2015-03-31T13:31:07Z</time>
      </trkpt>
      <trkpt lat="45.61176" lon="5.9432">
        <ele>643.9</ele>
        <time>2015-03-31T13:31:09Z</time>
      </trkpt>
      <trkpt lat="45.61188" lon="5.94317">
        <ele>642.7</ele>
        <time>2015-03-31T13:31:11Z</time>
      </trkpt>
      <trkpt lat="45.61199" lon="5.94309">
        <ele>641.4</ele>
        <time>2015-03-31T13:31:13Z</time>
      </trkpt>
      <trkpt lat="45.61207" lon="5.94302">
        <ele>639.9</ele>
        <time>2015-03-31T13:31:16Z</time>
      </trkpt>
      <trkpt lat="45.61214" lon="5.94312">
        <ele>651.2</ele>
        <time>2015-03-31T13:35:27Z</time>
      </trkpt>
      <trkpt lat="45.61222" lon="5.94321">
        <ele>651.5</ele>
        <time>2015-03-31T13:35:33Z</time>
      </trkpt>
      <trkpt lat="45.61229" lon="5.9433">
        <ele>651.6</ele>
        <time>2015-03-31T13:35:36Z</time>
      </trkpt>
      <trkpt lat="45.61236" lon="5.94338">
        <ele>651.7</ele>
        <time>2015-03-31T13:35:41Z</time>
      </trkpt>
      <trkpt lat="45.61278" lon="5.94365">
        <ele>656</ele>
        <time>2015-03-31T13:37:27Z</time>
      </trkpt>
      <trkpt lat="45.6129" lon="5.94373">
        <ele>657.5</ele>
        <time>2015-03-31T13:37:32Z</time>
      </trkpt>
      <trkpt lat="45.61299" lon="5.94367">
        <ele>657.7</ele>
        <time>2015-03-31T13:37:33Z</time>
      </trkpt>
      <trkpt lat="45.61309" lon="5.94362">
        <ele>658</ele>
        <time>2015-03-31T13:37:35Z</time>
      </trkpt>
      <trkpt lat="45.61335" lon="5.94362">
        <ele>660</ele>
        <time>2015-03-31T13:37:48Z</time>
      </trkpt>
      <trkpt lat="45.61345" lon="5.94368">
        <ele>661.2</ele>
        <time>2015-03-31T13:37:55Z</time>
      </trkpt>
      <trkpt lat="45.61353" lon="5.94374">
        <ele>664.1</ele>
        <time>2015-03-31T13:38:20Z</time>
      </trkpt>
      <trkpt lat="45.6136" lon="5.94383">
        <ele>667.8</ele>
        <time>2015-03-31T13:38:45Z</time>
      </trkpt>
      <trkpt lat="45.61365" lon="5.94394">
        <ele>668.9</ele>
        <time>2015-03-31T13:38:53Z</time>
      </trkpt>
      <trkpt lat="45.6137" lon="5.94405">
        <ele>670.3</ele>
        <time>2015-03-31T13:39:03Z</time>
      </trkpt>
      <trkpt lat="45.6138" lon="5.94407">
        <ele>672.6</ele>
        <time>2015-03-31T13:39:28Z</time>
      </trkpt>
      <trkpt lat="45.61388" lon="5.94401">
        <ele>674.3</ele>
        <time>2015-03-31T13:40:04Z</time>
      </trkpt>
      <trkpt lat="45.61394" lon="5.94411">
        <ele>676.1</ele>
        <time>2015-03-31T13:40:25Z</time>
      </trkpt>
      <trkpt lat="45.61389" lon="5.94423">
        <ele>681.2</ele>
        <time>2015-03-31T13:41:54Z</time>
      </trkpt>
      <trkpt lat="45.6138" lon="5.94428">
        <ele>681.3</ele>
        <time>2015-03-31T13:42:04Z</time>
      </trkpt>
      <trkpt lat="45.61371" lon="5.94432">
        <ele>681.5</ele>
        <time>2015-03-31T13:42:15Z</time>
      </trkpt>
      <trkpt lat="45.61361" lon="5.94436">
        <ele>681.8</ele>
        <time>2015-03-31T13:42:23Z</time>
      </trkpt>
      <trkpt lat="45.61352" lon="5.94442">
        <ele>681.7</ele>
        <time>2015-03-31T13:42:30Z</time>
      </trkpt>
      <trkpt lat="45.61361" lon="5.94444">
        <ele>682.5</ele>
        <time>2015-03-31T13:42:51Z</time>
      </trkpt>
      <trkpt lat="45.61372" lon="5.94445">
        <ele>685.2</ele>
        <time>2015-03-31T13:43:12Z</time>
      </trkpt>
      <trkpt lat="45.6138" lon="5.94451">
        <ele>687</ele>
        <time>2015-03-31T13:43:22Z</time>
      </trkpt>
      <trkpt lat="45.61388" lon="5.94457">
        <ele>689.8</ele>
        <time>2015-03-31T13:43:42Z</time>
      </trkpt>
      <trkpt lat="45.61389" lon="5.9447">
        <ele>694.1</ele>
        <time>2015-03-31T13:44:34Z</time>
      </trkpt>
      <trkpt lat="45.61386" lon="5.94483">
        <ele>697.6</ele>
        <time>2015-03-31T13:45:08Z</time>
      </trkpt>
      <trkpt lat="45.61376" lon="5.94488">
        <ele>698.1</ele>
        <time>2015-03-31T13:45:18Z</time>
      </trkpt>
      <trkpt lat="45.61366" lon="5.9449">
        <ele>698.3</ele>
        <time>2015-03-31T13:45:25Z</time>
      </trkpt>
      <trkpt lat="45.61357" lon="5.94493">
        <ele>698.4</ele>
        <time>2015-03-31T13:45:31Z</time>
      </trkpt>
      <trkpt lat="45.61347" lon="5.94493">
        <ele>698.5</ele>
        <time>2015-03-31T13:45:36Z</time>
      </trkpt>
      <trkpt lat="45.61337" lon="5.94495">
        <ele>698.5</ele>
        <time>2015-03-31T13:45:41Z</time>
      </trkpt>
      <trkpt lat="45.61327" lon="5.94499">
        <ele>698.5</ele>
        <time>2015-03-31T13:45:46Z</time>
      </trkpt>
      <trkpt lat="45.61318" lon="5.94501">
        <ele>698.5</ele>
        <time>2015-03-31T13:45:51Z</time>
      </trkpt>
      <trkpt lat="45.61309" lon="5.94502">
        <ele>698.5</ele>
        <time>2015-03-31T13:45:55Z</time>
      </trkpt>
      <trkpt lat="45.61299" lon="5.94504">
        <ele>698.5</ele>
        <time>2015-03-31T13:45:59Z</time>
      </trkpt>
      <trkpt lat="45.61288" lon="5.94507">
        <ele>698.5</ele>
        <time>2015-03-31T13:46:03Z</time>
      </trkpt>
      <trkpt lat="45.61278" lon="5.94511">
        <ele>698.5</ele>
        <time>2015-03-31T13:46:08Z</time>
      </trkpt>
      <trkpt lat="45.61267" lon="5.94518">
        <ele>698.4</ele>
        <time>2015-03-31T13:46:12Z</time>
      </trkpt>
      <trkpt lat="45.61258" lon="5.94523">
        <ele>698.4</ele>
        <time>2015-03-31T13:46:16Z</time>
      </trkpt>
      <trkpt lat="45.61249" lon="5.94531">
        <ele>698.5</ele>
        <time>2015-03-31T13:46:20Z</time>
      </trkpt>
      <trkpt lat="45.61242" lon="5.94539">
        <ele>698.4</ele>
        <time>2015-03-31T13:46:24Z</time>
      </trkpt>
      <trkpt lat="45.61234" lon="5.94547">
        <ele>698.9</ele>
        <time>2015-03-31T13:46:28Z</time>
      </trkpt>
      <trkpt lat="45.61224" lon="5.94557">
        <ele>698.7</ele>
        <time>2015-03-31T13:46:32Z</time>
      </trkpt>
      <trkpt lat="45.61213" lon="5.94561">
        <ele>698.3</ele>
        <time>2015-03-31T13:46:36Z</time>
      </trkpt>
      <trkpt lat="45.61199" lon="5.94563">
        <ele>697.9</ele>
        <time>2015-03-31T13:46:39Z</time>
      </trkpt>
      <trkpt lat="45.61187" lon="5.9457">
        <ele>697.2</ele>
        <time>2015-03-31T13:46:42Z</time>
      </trkpt>
      <trkpt lat="45.6118" lon="5.94582">
        <ele>696.4</ele>
        <time>2015-03-31T13:46:45Z</time>
      </trkpt>
      <trkpt lat="45.61174" lon="5.94595">
        <ele>694.8</ele>
        <time>2015-03-31T13:46:51Z</time>
      </trkpt>
      <trkpt lat="45.61167" lon="5.94608">
        <ele>693.8</ele>
        <time>2015-03-31T13:46:55Z</time>
      </trkpt>
      <trkpt lat="45.61167" lon="5.94623">
        <ele>693.1</ele>
        <time>2015-03-31T13:46:59Z</time>
      </trkpt>
      <trkpt lat="45.61167" lon="5.94637">
        <ele>692.5</ele>
        <time>2015-03-31T13:47:03Z</time>
      </trkpt>
      <trkpt lat="45.61168" lon="5.94653">
        <ele>692.2</ele>
        <time>2015-03-31T13:47:09Z</time>
      </trkpt>
      <trkpt lat="45.6117" lon="5.94668">
        <ele>692.4</ele>
        <time>2015-03-31T13:47:15Z</time>
      </trkpt>
      <trkpt lat="45.6117" lon="5.94683">
        <ele>692.9</ele>
        <time>2015-03-31T13:47:22Z</time>
      </trkpt>
      <trkpt lat="45.61172" lon="5.94696">
        <ele>693.4</ele>
        <time>2015-03-31T13:47:27Z</time>
      </trkpt>
      <trkpt lat="45.61175" lon="5.94709">
        <ele>694</ele>
        <time>2015-03-31T13:47:32Z</time>
      </trkpt>
      <trkpt lat="45.61176" lon="5.94723">
        <ele>694.7</ele>
        <time>2015-03-31T13:47:37Z</time>
      </trkpt>
      <trkpt lat="45.61178" lon="5.94736">
        <ele>695.4</ele>
        <time>2015-03-31T13:47:42Z</time>
      </trkpt>
      <trkpt lat="45.61182" lon="5.94749">
        <ele>696.3</ele>
        <time>2015-03-31T13:47:47Z</time>
      </trkpt>
      <trkpt lat="45.61189" lon="5.94757">
        <ele>697.4</ele>
        <time>2015-03-31T13:47:53Z</time>
      </trkpt>
      <trkpt lat="45.61196" lon="5.94747">
        <ele>700.3</ele>
        <time>2015-03-31T13:49:53Z</time>
      </trkpt>
      <trkpt lat="45.61197" lon="5.94732">
        <ele>700.4</ele>
        <time>2015-03-31T13:49:59Z</time>
      </trkpt>
      <trkpt lat="45.61198" lon="5.94717">
        <ele>700.5</ele>
        <time>2015-03-31T13:50:05Z</time>
      </trkpt>
      <trkpt lat="45.61202" lon="5.94705">
        <ele>700.9</ele>
        <time>2015-03-31T13:50:10Z</time>
      </trkpt>
      <trkpt lat="45.61208" lon="5.94694">
        <ele>701.5</ele>
        <time>2015-03-31T13:50:15Z</time>
      </trkpt>
      <trkpt lat="45.61214" lon="5.94683">
        <ele>702.1</ele>
        <time>2015-03-31T13:50:20Z</time>
      </trkpt>
      <trkpt lat="45.61219" lon="5.94671">
        <ele>702.7</ele>
        <time>2015-03-31T13:50:25Z</time>
      </trkpt>
      <trkpt lat="45.61225" lon="5.9466">
        <ele>703.3</ele>
        <time>2015-03-31T13:50:30Z</time>
      </trkpt>
      <trkpt lat="45.61232" lon="5.94649">
        <ele>704.1</ele>
        <time>2015-03-31T13:50:35Z</time>
      </trkpt>
      <trkpt lat="45.6124" lon="5.9464">
        <ele>705.1</ele>
        <time>2015-03-31T13:50:40Z</time>
      </trkpt>
      <trkpt lat="45.61248" lon="5.94631">
        <ele>706</ele>
        <time>2015-03-31T13:50:45Z</time>
      </trkpt>
      <trkpt lat="45.61258" lon="5.94627">
        <ele>706.9</ele>
        <time>2015-03-31T13:50:50Z</time>
      </trkpt>
      <trkpt lat="45.61267" lon="5.94624">
        <ele>708</ele>
        <time>2015-03-31T13:50:55Z</time>
      </trkpt>
      <trkpt lat="45.61277" lon="5.94621">
        <ele>709.3</ele>
        <time>2015-03-31T13:51:00Z</time>
      </trkpt>
      <trkpt lat="45.61286" lon="5.94618">
        <ele>711</ele>
        <time>2015-03-31T13:51:07Z</time>
      </trkpt>
      <trkpt lat="45.61296" lon="5.94615">
        <ele>712.6</ele>
        <time>2015-03-31T13:51:14Z</time>
      </trkpt>
      <trkpt lat="45.61307" lon="5.94612">
        <ele>713.9</ele>
        <time>2015-03-31T13:51:19Z</time>
      </trkpt>
      <trkpt lat="45.61316" lon="5.9461">
        <ele>714.9</ele>
        <time>2015-03-31T13:51:23Z</time>
      </trkpt>
      <trkpt lat="45.61326" lon="5.94609">
        <ele>715.9</ele>
        <time>2015-03-31T13:51:27Z</time>
      </trkpt>
      <trkpt lat="45.61336" lon="5.94608">
        <ele>716.8</ele>
        <time>2015-03-31T13:51:31Z</time>
      </trkpt>
      <trkpt lat="45.61345" lon="5.94608">
        <ele>717.7</ele>
        <time>2015-03-31T13:51:35Z</time>
      </trkpt>
      <trkpt lat="45.61354" lon="5.9461">
        <ele>719.3</ele>
        <time>2015-03-31T13:51:41Z</time>
      </trkpt>
      <trkpt lat="45.61364" lon="5.94614">
        <ele>720.7</ele>
        <time>2015-03-31T13:51:46Z</time>
      </trkpt>
      <trkpt lat="45.61374" lon="5.94617">
        <ele>721.9</ele>
        <time>2015-03-31T13:51:51Z</time>
      </trkpt>
      <trkpt lat="45.61384" lon="5.94619">
        <ele>723.2</ele>
        <time>2015-03-31T13:51:56Z</time>
      </trkpt>
      <trkpt lat="45.61394" lon="5.94623">
        <ele>724.4</ele>
        <time>2015-03-31T13:52:01Z</time>
      </trkpt>
      <trkpt lat="45.61405" lon="5.94626">
        <ele>725.7</ele>
        <time>2015-03-31T13:52:06Z</time>
      </trkpt>
      <trkpt lat="45.61415" lon="5.9463">
        <ele>726.9</ele>
        <time>2015-03-31T13:52:11Z</time>
      </trkpt>
      <trkpt lat="45.61425" lon="5.94634">
        <ele>728.3</ele>
        <time>2015-03-31T13:52:16Z</time>
      </trkpt>
      <trkpt lat="45.61435" lon="5.94638">
        <ele>729.5</ele>
        <time>2015-03-31T13:52:21Z</time>
      </trkpt>
      <trkpt lat="45.61444" lon="5.94642">
        <ele>730.3</ele>
        <time>2015-03-31T13:52:26Z</time>
      </trkpt>
      <trkpt lat="45.61454" lon="5.94646">
        <ele>731.2</ele>
        <time>2015-03-31T13:52:31Z</time>
      </trkpt>
      <trkpt lat="45.61464" lon="5.9465">
        <ele>732</ele>
        <time>2015-03-31T13:52:36Z</time>
      </trkpt>
      <trkpt lat="45.61475" lon="5.94654">
        <ele>732.7</ele>
        <time>2015-03-31T13:52:41Z</time>
      </trkpt>
      <trkpt lat="45.61483" lon="5.94658">
        <ele>733.2</ele>
        <time>2015-03-31T13:52:45Z</time>
      </trkpt>
      <trkpt lat="45.61494" lon="5.94661">
        <ele>733.6</ele>
        <time>2015-03-31T13:52:49Z</time>
      </trkpt>
      <trkpt lat="45.61504" lon="5.94662">
        <ele>733.8</ele>
        <time>2015-03-31T13:52:53Z</time>
      </trkpt>
      <trkpt lat="45.61513" lon="5.94667">
        <ele>734.1</ele>
        <time>2015-03-31T13:52:58Z</time>
      </trkpt>
      <trkpt lat="45.61523" lon="5.94674">
        <ele>734.3</ele>
        <time>2015-03-31T13:53:02Z</time>
      </trkpt>
      <trkpt lat="45.61531" lon="5.9468">
        <ele>734.4</ele>
        <time>2015-03-31T13:53:05Z</time>
      </trkpt>
      <trkpt lat="45.6154" lon="5.94689">
        <ele>734.6</ele>
        <time>2015-03-31T13:53:09Z</time>
      </trkpt>
      <trkpt lat="45.61549" lon="5.94698">
        <ele>734.8</ele>
        <time>2015-03-31T13:53:13Z</time>
      </trkpt>
      <trkpt lat="45.61557" lon="5.94709">
        <ele>735.1</ele>
        <time>2015-03-31T13:53:17Z</time>
      </trkpt>
      <trkpt lat="45.61565" lon="5.94721">
        <ele>735.5</ele>
        <time>2015-03-31T13:53:21Z</time>
      </trkpt>
      <trkpt lat="45.61572" lon="5.94734">
        <ele>736.3</ele>
        <time>2015-03-31T13:53:25Z</time>
      </trkpt>
      <trkpt lat="45.61579" lon="5.94746">
        <ele>737.3</ele>
        <time>2015-03-31T13:53:29Z</time>
      </trkpt>
      <trkpt lat="45.61586" lon="5.94757">
        <ele>738.2</ele>
        <time>2015-03-31T13:53:33Z</time>
      </trkpt>
      <trkpt lat="45.61594" lon="5.94767">
        <ele>738.9</ele>
        <time>2015-03-31T13:53:37Z</time>
      </trkpt>
      <trkpt lat="45.61602" lon="5.94776">
        <ele>739.6</ele>
        <time>2015-03-31T13:53:41Z</time>
      </trkpt>
      <trkpt lat="45.61608" lon="5.94786">
        <ele>740.4</ele>
        <time>2015-03-31T13:53:45Z</time>
      </trkpt>
      <trkpt lat="45.61616" lon="5.94796">
        <ele>740.9</ele>
        <time>2015-03-31T13:53:49Z</time>
      </trkpt>
      <trkpt lat="45.61622" lon="5.94806">
        <ele>741.3</ele>
        <time>2015-03-31T13:53:53Z</time>
      </trkpt>
      <trkpt lat="45.6163" lon="5.94816">
        <ele>741.6</ele>
        <time>2015-03-31T13:53:57Z</time>
      </trkpt>
      <trkpt lat="45.61638" lon="5.94826">
        <ele>742</ele>
        <time>2015-03-31T13:54:01Z</time>
      </trkpt>
      <trkpt lat="45.61644" lon="5.94837">
        <ele>742.4</ele>
        <time>2015-03-31T13:54:05Z</time>
      </trkpt>
      <trkpt lat="45.61651" lon="5.94847">
        <ele>742.8</ele>
        <time>2015-03-31T13:54:09Z</time>
      </trkpt>
      <trkpt lat="45.61659" lon="5.94855">
        <ele>743.3</ele>
        <time>2015-03-31T13:54:13Z</time>
      </trkpt>
      <trkpt lat="45.61669" lon="5.94858">
        <ele>743.9</ele>
        <time>2015-03-31T13:54:17Z</time>
      </trkpt>
      <trkpt lat="45.61679" lon="5.94857">
        <ele>744.5</ele>
        <time>2015-03-31T13:54:21Z</time>
      </trkpt>
      <trkpt lat="45.61689" lon="5.94855">
        <ele>745.2</ele>
        <time>2015-03-31T13:54:25Z</time>
      </trkpt>
      <trkpt lat="45.61699" lon="5.94855">
        <ele>745.9</ele>
        <time>2015-03-31T13:54:29Z</time>
      </trkpt>
      <trkpt lat="45.61709" lon="5.94858">
        <ele>746.7</ele>
        <time>2015-03-31T13:54:33Z</time>
      </trkpt>
      <trkpt lat="45.61716" lon="5.94865">
        <ele>747.7</ele>
        <time>2015-03-31T13:54:38Z</time>
      </trkpt>
      <trkpt lat="45.61723" lon="5.94876">
        <ele>749</ele>
        <time>2015-03-31T13:54:44Z</time>
      </trkpt>
      <trkpt lat="45.61729" lon="5.94887">
        <ele>750.1</ele>
        <time>2015-03-31T13:54:49Z</time>
      </trkpt>
      <trkpt lat="45.61736" lon="5.94897">
        <ele>751.3</ele>
        <time>2015-03-31T13:54:55Z</time>
      </trkpt>
      <trkpt lat="45.61743" lon="5.94905">
        <ele>752.1</ele>
        <time>2015-03-31T13:54:59Z</time>
      </trkpt>
      <trkpt lat="45.61752" lon="5.94914">
        <ele>753</ele>
        <time>2015-03-31T13:55:03Z</time>
      </trkpt>
      <trkpt lat="45.6176" lon="5.94923">
        <ele>753.9</ele>
        <time>2015-03-31T13:55:07Z</time>
      </trkpt>
      <trkpt lat="45.61769" lon="5.94931">
        <ele>754.8</ele>
        <time>2015-03-31T13:55:11Z</time>
      </trkpt>
      <trkpt lat="45.61778" lon="5.94938">
        <ele>755.9</ele>
        <time>2015-03-31T13:55:16Z</time>
      </trkpt>
      <trkpt lat="45.61787" lon="5.94945">
        <ele>756.5</ele>
        <time>2015-03-31T13:55:19Z</time>
      </trkpt>
      <trkpt lat="45.61799" lon="5.94947">
        <ele>757.4</ele>
        <time>2015-03-31T13:55:23Z</time>
      </trkpt>
      <trkpt lat="45.61806" lon="5.94939">
        <ele>758.1</ele>
        <time>2015-03-31T13:55:27Z</time>
      </trkpt>
      <trkpt lat="45.61808" lon="5.94926">
        <ele>758.7</ele>
        <time>2015-03-31T13:55:31Z</time>
      </trkpt>
      <trkpt lat="45.61806" lon="5.94913">
        <ele>759.4</ele>
        <time>2015-03-31T13:55:35Z</time>
      </trkpt>
      <trkpt lat="45.618" lon="5.94902">
        <ele>759.9</ele>
        <time>2015-03-31T13:55:38Z</time>
      </trkpt>
      <trkpt lat="45.61802" lon="5.94886">
        <ele>760.8</ele>
        <time>2015-03-31T13:55:43Z</time>
      </trkpt>
      <trkpt lat="45.61809" lon="5.94875">
        <ele>761.4</ele>
        <time>2015-03-31T13:55:47Z</time>
      </trkpt>
      <trkpt lat="45.61818" lon="5.94869">
        <ele>762</ele>
        <time>2015-03-31T13:55:51Z</time>
      </trkpt>
      <trkpt lat="45.61829" lon="5.94864">
        <ele>762.7</ele>
        <time>2015-03-31T13:55:56Z</time>
      </trkpt>
      <trkpt lat="45.61838" lon="5.94861">
        <ele>763.4</ele>
        <time>2015-03-31T13:56:00Z</time>
      </trkpt>
      <trkpt lat="45.61847" lon="5.94855">
        <ele>764.2</ele>
        <time>2015-03-31T13:56:04Z</time>
      </trkpt>
      <trkpt lat="45.61857" lon="5.94851">
        <ele>764.7</ele>
        <time>2015-03-31T13:56:08Z</time>
      </trkpt>
      <trkpt lat="45.61867" lon="5.9485">
        <ele>765.4</ele>
        <time>2015-03-31T13:56:12Z</time>
      </trkpt>
      <trkpt lat="45.61878" lon="5.94847">
        <ele>766.2</ele>
        <time>2015-03-31T13:56:16Z</time>
      </trkpt>
      <trkpt lat="45.61888" lon="5.94843">
        <ele>766.9</ele>
        <time>2015-03-31T13:56:20Z</time>
      </trkpt>
      <trkpt lat="45.61897" lon="5.94843">
        <ele>767.9</ele>
        <time>2015-03-31T13:56:24Z</time>
      </trkpt>
      <trkpt lat="45.61908" lon="5.94842">
        <ele>769.1</ele>
        <time>2015-03-31T13:56:29Z</time>
      </trkpt>
      <trkpt lat="45.61918" lon="5.94842">
        <ele>770.2</ele>
        <time>2015-03-31T13:56:34Z</time>
      </trkpt>
      <trkpt lat="45.61928" lon="5.94845">
        <ele>771.4</ele>
        <time>2015-03-31T13:56:39Z</time>
      </trkpt>
      <trkpt lat="45.61938" lon="5.94849">
        <ele>772.8</ele>
        <time>2015-03-31T13:56:44Z</time>
      </trkpt>
      <trkpt lat="45.61947" lon="5.94855">
        <ele>774.1</ele>
        <time>2015-03-31T13:56:49Z</time>
      </trkpt>
      <trkpt lat="45.61955" lon="5.94864">
        <ele>775.7</ele>
        <time>2015-03-31T13:56:55Z</time>
      </trkpt>
      <trkpt lat="45.61962" lon="5.94874">
        <ele>777.4</ele>
        <time>2015-03-31T13:57:01Z</time>
      </trkpt>
      <trkpt lat="45.61971" lon="5.94882">
        <ele>778.7</ele>
        <time>2015-03-31T13:57:06Z</time>
      </trkpt>
      <trkpt lat="45.61979" lon="5.94893">
        <ele>779.9</ele>
        <time>2015-03-31T13:57:11Z</time>
      </trkpt>
      <trkpt lat="45.61988" lon="5.94898">
        <ele>780.9</ele>
        <time>2015-03-31T13:57:15Z</time>
      </trkpt>
      <trkpt lat="45.61997" lon="5.94901">
        <ele>781.7</ele>
        <time>2015-03-31T13:57:19Z</time>
      </trkpt>
      <trkpt lat="45.62006" lon="5.94902">
        <ele>782.7</ele>
        <time>2015-03-31T13:57:23Z</time>
      </trkpt>
      <trkpt lat="45.62016" lon="5.94904">
        <ele>783.7</ele>
        <time>2015-03-31T13:57:28Z</time>
      </trkpt>
      <trkpt lat="45.62027" lon="5.94906">
        <ele>784.8</ele>
        <time>2015-03-31T13:57:33Z</time>
      </trkpt>
      <trkpt lat="45.62037" lon="5.94907">
        <ele>785.6</ele>
        <time>2015-03-31T13:57:37Z</time>
      </trkpt>
      <trkpt lat="45.62047" lon="5.94909">
        <ele>786.5</ele>
        <time>2015-03-31T13:57:41Z</time>
      </trkpt>
      <trkpt lat="45.62058" lon="5.9491">
        <ele>787.6</ele>
        <time>2015-03-31T13:57:46Z</time>
      </trkpt>
      <trkpt lat="45.62067" lon="5.94911">
        <ele>788.5</ele>
        <time>2015-03-31T13:57:50Z</time>
      </trkpt>
      <trkpt lat="45.62077" lon="5.94914">
        <ele>789.3</ele>
        <time>2015-03-31T13:57:54Z</time>
      </trkpt>
      <trkpt lat="45.62087" lon="5.94917">
        <ele>790.1</ele>
        <time>2015-03-31T13:57:58Z</time>
      </trkpt>
      <trkpt lat="45.62096" lon="5.94922">
        <ele>790.9</ele>
        <time>2015-03-31T13:58:02Z</time>
      </trkpt>
      <trkpt lat="45.62105" lon="5.94928">
        <ele>791.6</ele>
        <time>2015-03-31T13:58:06Z</time>
      </trkpt>
      <trkpt lat="45.62113" lon="5.94936">
        <ele>792.6</ele>
        <time>2015-03-31T13:58:11Z</time>
      </trkpt>
      <trkpt lat="45.62122" lon="5.94943">
        <ele>793.7</ele>
        <time>2015-03-31T13:58:17Z</time>
      </trkpt>
      <trkpt lat="45.62131" lon="5.94948">
        <ele>794.8</ele>
        <time>2015-03-31T13:58:22Z</time>
      </trkpt>
      <trkpt lat="45.6214" lon="5.94952">
        <ele>795.8</ele>
        <time>2015-03-31T13:58:27Z</time>
      </trkpt>
      <trkpt lat="45.62149" lon="5.94955">
        <ele>796.7</ele>
        <time>2015-03-31T13:58:32Z</time>
      </trkpt>
      <trkpt lat="45.62158" lon="5.94958">
        <ele>797.6</ele>
        <time>2015-03-31T13:58:37Z</time>
      </trkpt>
      <trkpt lat="45.62168" lon="5.9496">
        <ele>798.4</ele>
        <time>2015-03-31T13:58:42Z</time>
      </trkpt>
      <trkpt lat="45.62178" lon="5.94962">
        <ele>799.3</ele>
        <time>2015-03-31T13:58:47Z</time>
      </trkpt>
      <trkpt lat="45.62188" lon="5.94964">
        <ele>800.2</ele>
        <time>2015-03-31T13:58:53Z</time>
      </trkpt>
      <trkpt lat="45.62199" lon="5.94965">
        <ele>801.2</ele>
        <time>2015-03-31T13:58:59Z</time>
      </trkpt>
      <trkpt lat="45.62208" lon="5.9497">
        <ele>802.3</ele>
        <time>2015-03-31T13:59:05Z</time>
      </trkpt>
      <trkpt lat="45.62217" lon="5.94976">
        <ele>803.3</ele>
        <time>2015-03-31T13:59:10Z</time>
      </trkpt>
      <trkpt lat="45.62227" lon="5.94979">
        <ele>804.2</ele>
        <time>2015-03-31T13:59:15Z</time>
      </trkpt>
      <trkpt lat="45.62237" lon="5.9498">
        <ele>805.2</ele>
        <time>2015-03-31T13:59:20Z</time>
      </trkpt>
      <trkpt lat="45.62247" lon="5.9498">
        <ele>806.2</ele>
        <time>2015-03-31T13:59:25Z</time>
      </trkpt>
      <trkpt lat="45.62257" lon="5.94983">
        <ele>807.2</ele>
        <time>2015-03-31T13:59:30Z</time>
      </trkpt>
      <trkpt lat="45.62265" lon="5.94988">
        <ele>808.2</ele>
        <time>2015-03-31T13:59:35Z</time>
      </trkpt>
      <trkpt lat="45.62274" lon="5.94996">
        <ele>809.3</ele>
        <time>2015-03-31T13:59:41Z</time>
      </trkpt>
      <trkpt lat="45.62282" lon="5.95003">
        <ele>810.5</ele>
        <time>2015-03-31T13:59:47Z</time>
      </trkpt>
      <trkpt lat="45.62289" lon="5.95011">
        <ele>811.8</ele>
        <time>2015-03-31T13:59:54Z</time>
      </trkpt>
      <trkpt lat="45.62299" lon="5.95014">
        <ele>813</ele>
        <time>2015-03-31T14:00:00Z</time>
      </trkpt>
      <trkpt lat="45.62308" lon="5.95016">
        <ele>814.3</ele>
        <time>2015-03-31T14:00:06Z</time>
      </trkpt>
      <trkpt lat="45.62317" lon="5.95021">
        <ele>815.7</ele>
        <time>2015-03-31T14:00:12Z</time>
      </trkpt>
      <trkpt lat="45.62324" lon="5.95031">
        <ele>817</ele>
        <time>2015-03-31T14:00:18Z</time>
      </trkpt>
      <trkpt lat="45.62333" lon="5.95035">
        <ele>818.1</ele>
        <time>2015-03-31T14:00:23Z</time>
      </trkpt>
      <trkpt lat="45.62342" lon="5.95039">
        <ele>819.3</ele>
        <time>2015-03-31T14:00:29Z</time>
      </trkpt>
      <trkpt lat="45.62351" lon="5.95046">
        <ele>820.3</ele>
        <time>2015-03-31T14:00:35Z</time>
      </trkpt>
      <trkpt lat="45.62357" lon="5.95056">
        <ele>821.5</ele>
        <time>2015-03-31T14:00:41Z</time>
      </trkpt>
      <trkpt lat="45.62361" lon="5.95069">
        <ele>823.1</ele>
        <time>2015-03-31T14:00:49Z</time>
      </trkpt>
      <trkpt lat="45.62367" lon="5.95079">
        <ele>824.7</ele>
        <time>2015-03-31T14:00:56Z</time>
      </trkpt>
      <trkpt lat="45.62374" lon="5.95088">
        <ele>825.9</ele>
        <time>2015-03-31T14:01:02Z</time>
      </trkpt>
      <trkpt lat="45.62381" lon="5.95096">
        <ele>827.1</ele>
        <time>2015-03-31T14:01:08Z</time>
      </trkpt>
      <trkpt lat="45.62387" lon="5.95105">
        <ele>828.9</ele>
        <time>2015-03-31T14:01:16Z</time>
      </trkpt>
      <trkpt lat="45.62395" lon="5.95115">
        <ele>830.8</ele>
        <time>2015-03-31T14:01:26Z</time>
      </trkpt>
      <trkpt lat="45.62403" lon="5.9512">
        <ele>832.3</ele>
        <time>2015-03-31T14:01:34Z</time>
      </trkpt>
      <trkpt lat="45.62413" lon="5.95124">
        <ele>833.7</ele>
        <time>2015-03-31T14:01:42Z</time>
      </trkpt>
      <trkpt lat="45.62422" lon="5.95126">
        <ele>835.1</ele>
        <time>2015-03-31T14:01:49Z</time>
      </trkpt>
      <trkpt lat="45.62431" lon="5.95131">
        <ele>836.8</ele>
        <time>2015-03-31T14:02:00Z</time>
      </trkpt>
      <trkpt lat="45.62442" lon="5.95133">
        <ele>838</ele>
        <time>2015-03-31T14:02:08Z</time>
      </trkpt>
      <trkpt lat="45.62453" lon="5.95134">
        <ele>839.3</ele>
        <time>2015-03-31T14:02:16Z</time>
      </trkpt>
      <trkpt lat="45.62463" lon="5.95136">
        <ele>840.6</ele>
        <time>2015-03-31T14:02:24Z</time>
      </trkpt>
      <trkpt lat="45.62472" lon="5.95138">
        <ele>841.8</ele>
        <time>2015-03-31T14:02:32Z</time>
      </trkpt>
      <trkpt lat="45.62482" lon="5.95139">
        <ele>842.9</ele>
        <time>2015-03-31T14:02:40Z</time>
      </trkpt>
      <trkpt lat="45.62493" lon="5.95141">
        <ele>843.7</ele>
        <time>2015-03-31T14:02:46Z</time>
      </trkpt>
      <trkpt lat="45.62503" lon="5.95142">
        <ele>844.5</ele>
        <time>2015-03-31T14:02:52Z</time>
      </trkpt>
      <trkpt lat="45.62512" lon="5.95138">
        <ele>845.4</ele>
        <time>2015-03-31T14:02:58Z</time>
      </trkpt>
      <trkpt lat="45.62521" lon="5.95133">
        <ele>845.9</ele>
        <time>2015-03-31T14:03:03Z</time>
      </trkpt>
      <trkpt lat="45.6253" lon="5.95128">
        <ele>846.4</ele>
        <time>2015-03-31T14:03:09Z</time>
      </trkpt>
      <trkpt lat="45.62541" lon="5.95126">
        <ele>847.2</ele>
        <time>2015-03-31T14:03:15Z</time>
      </trkpt>
      <trkpt lat="45.62551" lon="5.95126">
        <ele>847.7</ele>
        <time>2015-03-31T14:03:19Z</time>
      </trkpt>
      <trkpt lat="45.62562" lon="5.95127">
        <ele>848.6</ele>
        <time>2015-03-31T14:03:26Z</time>
      </trkpt>
      <trkpt lat="45.62572" lon="5.95128">
        <ele>849.4</ele>
        <time>2015-03-31T14:03:31Z</time>
      </trkpt>
      <trkpt lat="45.62582" lon="5.95129">
        <ele>850.3</ele>
        <time>2015-03-31T14:03:37Z</time>
      </trkpt>
      <trkpt lat="45.62591" lon="5.9513">
        <ele>851.1</ele>
        <time>2015-03-31T14:03:42Z</time>
      </trkpt>
      <trkpt lat="45.62601" lon="5.95134">
        <ele>851.8</ele>
        <time>2015-03-31T14:03:47Z</time>
      </trkpt>
      <trkpt lat="45.6261" lon="5.95137">
        <ele>852.6</ele>
        <time>2015-03-31T14:03:53Z</time>
      </trkpt>
      <trkpt lat="45.6262" lon="5.95138">
        <ele>853.5</ele>
        <time>2015-03-31T14:04:00Z</time>
      </trkpt>
      <trkpt lat="45.62629" lon="5.95145">
        <ele>854.6</ele>
        <time>2015-03-31T14:04:07Z</time>
      </trkpt>
      <trkpt lat="45.62635" lon="5.95157">
        <ele>856.1</ele>
        <time>2015-03-31T14:04:15Z</time>
      </trkpt>
      <trkpt lat="45.6264" lon="5.95169">
        <ele>857.7</ele>
        <time>2015-03-31T14:04:23Z</time>
      </trkpt>
      <trkpt lat="45.62644" lon="5.9518">
        <ele>859.3</ele>
        <time>2015-03-31T14:04:31Z</time>
      </trkpt>
      <trkpt lat="45.6265" lon="5.95191">
        <ele>860.6</ele>
        <time>2015-03-31T14:04:38Z</time>
      </trkpt>
      <trkpt lat="45.62657" lon="5.95201">
        <ele>862.2</ele>
        <time>2015-03-31T14:04:47Z</time>
      </trkpt>
      <trkpt lat="45.62665" lon="5.95209">
        <ele>863.5</ele>
        <time>2015-03-31T14:04:56Z</time>
      </trkpt>
      <trkpt lat="45.62671" lon="5.95221">
        <ele>864.6</ele>
        <time>2015-03-31T14:05:03Z</time>
      </trkpt>
      <trkpt lat="45.62674" lon="5.95234">
        <ele>866.4</ele>
        <time>2015-03-31T14:05:12Z</time>
      </trkpt>
      <trkpt lat="45.62678" lon="5.95245">
        <ele>868.2</ele>
        <time>2015-03-31T14:05:21Z</time>
      </trkpt>
      <trkpt lat="45.62684" lon="5.95256">
        <ele>869.9</ele>
        <time>2015-03-31T14:05:30Z</time>
      </trkpt>
      <trkpt lat="45.62692" lon="5.9526">
        <ele>871.7</ele>
        <time>2015-03-31T14:05:39Z</time>
      </trkpt>
      <trkpt lat="45.62701" lon="5.95268">
        <ele>873.6</ele>
        <time>2015-03-31T14:05:50Z</time>
      </trkpt>
      <trkpt lat="45.62709" lon="5.95275">
        <ele>875.2</ele>
        <time>2015-03-31T14:05:59Z</time>
      </trkpt>
      <trkpt lat="45.62718" lon="5.95277">
        <ele>876.4</ele>
        <time>2015-03-31T14:06:07Z</time>
      </trkpt>
      <trkpt lat="45.62728" lon="5.95283">
        <ele>878.1</ele>
        <time>2015-03-31T14:06:17Z</time>
      </trkpt>
      <trkpt lat="45.62735" lon="5.95292">
        <ele>879.7</ele>
        <time>2015-03-31T14:06:26Z</time>
      </trkpt>
      <trkpt lat="45.6274" lon="5.95304">
        <ele>881.4</ele>
        <time>2015-03-31T14:06:34Z</time>
      </trkpt>
      <trkpt lat="45.62744" lon="5.95316">
        <ele>883.2</ele>
        <time>2015-03-31T14:06:42Z</time>
      </trkpt>
      <trkpt lat="45.6275" lon="5.95326">
        <ele>885.4</ele>
        <time>2015-03-31T14:06:52Z</time>
      </trkpt>
      <trkpt lat="45.62756" lon="5.95338">
        <ele>887.3</ele>
        <time>2015-03-31T14:07:01Z</time>
      </trkpt>
      <trkpt lat="45.62759" lon="5.95351">
        <ele>888.9</ele>
        <time>2015-03-31T14:07:09Z</time>
      </trkpt>
      <trkpt lat="45.62762" lon="5.95365">
        <ele>891.7</ele>
        <time>2015-03-31T14:07:21Z</time>
      </trkpt>
      <trkpt lat="45.62769" lon="5.95375">
        <ele>894</ele>
        <time>2015-03-31T14:07:31Z</time>
      </trkpt>
      <trkpt lat="45.62776" lon="5.95385">
        <ele>896.6</ele>
        <time>2015-03-31T14:07:43Z</time>
      </trkpt>
      <trkpt lat="45.62784" lon="5.95394">
        <ele>898.4</ele>
        <time>2015-03-31T14:07:52Z</time>
      </trkpt>
      <trkpt lat="45.62791" lon="5.95403">
        <ele>902.4</ele>
        <time>2015-03-31T14:08:35Z</time>
      </trkpt>
      <trkpt lat="45.628" lon="5.95409">
        <ele>903</ele>
        <time>2015-03-31T14:08:44Z</time>
      </trkpt>
      <trkpt lat="45.62809" lon="5.95412">
        <ele>904</ele>
        <time>2015-03-31T14:08:52Z</time>
      </trkpt>
      <trkpt lat="45.62819" lon="5.95417">
        <ele>905</ele>
        <time>2015-03-31T14:08:59Z</time>
      </trkpt>
      <trkpt lat="45.62828" lon="5.95422">
        <ele>906.3</ele>
        <time>2015-03-31T14:09:08Z</time>
      </trkpt>
      <trkpt lat="45.62836" lon="5.95428">
        <ele>908</ele>
        <time>2015-03-31T14:09:17Z</time>
      </trkpt>
      <trkpt lat="45.62845" lon="5.95434">
        <ele>909.4</ele>
        <time>2015-03-31T14:09:25Z</time>
      </trkpt>
      <trkpt lat="45.62853" lon="5.95439">
        <ele>910.9</ele>
        <time>2015-03-31T14:09:34Z</time>
      </trkpt>
      <trkpt lat="45.62862" lon="5.95444">
        <ele>912.3</ele>
        <time>2015-03-31T14:09:41Z</time>
      </trkpt>
      <trkpt lat="45.62872" lon="5.95446">
        <ele>913.5</ele>
        <time>2015-03-31T14:09:48Z</time>
      </trkpt>
      <trkpt lat="45.62881" lon="5.95446">
        <ele>915.4</ele>
        <time>2015-03-31T14:09:58Z</time>
      </trkpt>
      <trkpt lat="45.62891" lon="5.95441">
        <ele>916.8</ele>
        <time>2015-03-31T14:10:07Z</time>
      </trkpt>
      <trkpt lat="45.629" lon="5.95437">
        <ele>918.2</ele>
        <time>2015-03-31T14:10:16Z</time>
      </trkpt>
      <trkpt lat="45.62909" lon="5.95436">
        <ele>919.6</ele>
        <time>2015-03-31T14:10:25Z</time>
      </trkpt>
      <trkpt lat="45.62918" lon="5.95433">
        <ele>921.4</ele>
        <time>2015-03-31T14:10:35Z</time>
      </trkpt>
      <trkpt lat="45.62928" lon="5.9543">
        <ele>923</ele>
        <time>2015-03-31T14:10:44Z</time>
      </trkpt>
      <trkpt lat="45.62938" lon="5.95432">
        <ele>924.7</ele>
        <time>2015-03-31T14:10:52Z</time>
      </trkpt>
      <trkpt lat="45.62947" lon="5.95437">
        <ele>926.3</ele>
        <time>2015-03-31T14:11:00Z</time>
      </trkpt>
      <trkpt lat="45.62956" lon="5.95441">
        <ele>927.9</ele>
        <time>2015-03-31T14:11:10Z</time>
      </trkpt>
      <trkpt lat="45.62966" lon="5.95444">
        <ele>929.2</ele>
        <time>2015-03-31T14:11:18Z</time>
      </trkpt>
      <trkpt lat="45.62975" lon="5.95444">
        <ele>930.1</ele>
        <time>2015-03-31T14:11:24Z</time>
      </trkpt>
      <trkpt lat="45.62984" lon="5.95441">
        <ele>930.9</ele>
        <time>2015-03-31T14:11:30Z</time>
      </trkpt>
      <trkpt lat="45.62994" lon="5.95441">
        <ele>931.9</ele>
        <time>2015-03-31T14:11:37Z</time>
      </trkpt>
      <trkpt lat="45.63004" lon="5.95439">
        <ele>932.8</ele>
        <time>2015-03-31T14:11:44Z</time>
      </trkpt>
      <trkpt lat="45.63014" lon="5.95435">
        <ele>933.8</ele>
        <time>2015-03-31T14:11:51Z</time>
      </trkpt>
      <trkpt lat="45.63023" lon="5.9543">
        <ele>934.6</ele>
        <time>2015-03-31T14:11:57Z</time>
      </trkpt>
      <trkpt lat="45.63032" lon="5.95426">
        <ele>935.6</ele>
        <time>2015-03-31T14:12:04Z</time>
      </trkpt>
      <trkpt lat="45.6304" lon="5.95422">
        <ele>936.7</ele>
        <time>2015-03-31T14:12:12Z</time>
      </trkpt>
      <trkpt lat="45.6305" lon="5.95422">
        <ele>938.1</ele>
        <time>2015-03-31T14:12:21Z</time>
      </trkpt>
      <trkpt lat="45.63059" lon="5.9542">
        <ele>938.9</ele>
        <time>2015-03-31T14:12:27Z</time>
      </trkpt>
      <trkpt lat="45.63069" lon="5.95416">
        <ele>940.2</ele>
        <time>2015-03-31T14:12:35Z</time>
      </trkpt>
      <trkpt lat="45.63077" lon="5.95408">
        <ele>941.6</ele>
        <time>2015-03-31T14:12:44Z</time>
      </trkpt>
      <trkpt lat="45.63083" lon="5.95398">
        <ele>943</ele>
        <time>2015-03-31T14:12:52Z</time>
      </trkpt>
      <trkpt lat="45.63091" lon="5.95389">
        <ele>944.5</ele>
        <time>2015-03-31T14:13:00Z</time>
      </trkpt>
      <trkpt lat="45.63098" lon="5.9538">
        <ele>946</ele>
        <time>2015-03-31T14:13:07Z</time>
      </trkpt>
      <trkpt lat="45.63104" lon="5.95369">
        <ele>947.1</ele>
        <time>2015-03-31T14:13:14Z</time>
      </trkpt>
      <trkpt lat="45.63111" lon="5.9536">
        <ele>947.9</ele>
        <time>2015-03-31T14:13:21Z</time>
      </trkpt>
      <trkpt lat="45.63119" lon="5.95353">
        <ele>949.2</ele>
        <time>2015-03-31T14:13:30Z</time>
      </trkpt>
      <trkpt lat="45.63128" lon="5.95346">
        <ele>950.4</ele>
        <time>2015-03-31T14:13:37Z</time>
      </trkpt>
      <trkpt lat="45.63136" lon="5.9534">
        <ele>951.4</ele>
        <time>2015-03-31T14:13:43Z</time>
      </trkpt>
      <trkpt lat="45.63147" lon="5.95335">
        <ele>953.5</ele>
        <time>2015-03-31T14:13:55Z</time>
      </trkpt>
      <trkpt lat="45.63156" lon="5.95333">
        <ele>955.2</ele>
        <time>2015-03-31T14:14:14Z</time>
      </trkpt>
      <trkpt lat="45.63166" lon="5.95329">
        <ele>956.1</ele>
        <time>2015-03-31T14:14:24Z</time>
      </trkpt>
      <trkpt lat="45.63175" lon="5.95324">
        <ele>956.8</ele>
        <time>2015-03-31T14:14:32Z</time>
      </trkpt>
      <trkpt lat="45.63184" lon="5.95322">
        <ele>957.6</ele>
        <time>2015-03-31T14:14:40Z</time>
      </trkpt>
      <trkpt lat="45.63194" lon="5.95327">
        <ele>958.2</ele>
        <time>2015-03-31T14:14:47Z</time>
      </trkpt>
      <trkpt lat="45.63203" lon="5.9533">
        <ele>958.6</ele>
        <time>2015-03-31T14:14:52Z</time>
      </trkpt>
      <trkpt lat="45.63212" lon="5.9533">
        <ele>959</ele>
        <time>2015-03-31T14:14:57Z</time>
      </trkpt>
      <trkpt lat="45.63223" lon="5.9533">
        <ele>959.4</ele>
        <time>2015-03-31T14:15:02Z</time>
      </trkpt>
      <trkpt lat="45.63233" lon="5.9533">
        <ele>959.9</ele>
        <time>2015-03-31T14:15:06Z</time>
      </trkpt>
      <trkpt lat="45.63243" lon="5.95323">
        <ele>960.4</ele>
        <time>2015-03-31T14:15:11Z</time>
      </trkpt>
      <trkpt lat="45.63252" lon="5.9532">
        <ele>960.9</ele>
        <time>2015-03-31T14:15:17Z</time>
      </trkpt>
      <trkpt lat="45.63262" lon="5.95315">
        <ele>961.4</ele>
        <time>2015-03-31T14:15:23Z</time>
      </trkpt>
      <trkpt lat="45.63273" lon="5.95313">
        <ele>961.8</ele>
        <time>2015-03-31T14:15:28Z</time>
      </trkpt>
      <trkpt lat="45.63282" lon="5.95309">
        <ele>962</ele>
        <time>2015-03-31T14:15:32Z</time>
      </trkpt>
      <trkpt lat="45.63291" lon="5.95302">
        <ele>962.2</ele>
        <time>2015-03-31T14:15:36Z</time>
      </trkpt>
      <trkpt lat="45.633" lon="5.95298">
        <ele>962.6</ele>
        <time>2015-03-31T14:15:40Z</time>
      </trkpt>
      <trkpt lat="45.63309" lon="5.95294">
        <ele>962.9</ele>
        <time>2015-03-31T14:15:44Z</time>
      </trkpt>
      <trkpt lat="45.63321" lon="5.95292">
        <ele>963.1</ele>
        <time>2015-03-31T14:15:48Z</time>
      </trkpt>
      <trkpt lat="45.6333" lon="5.95289">
        <ele>963.4</ele>
        <time>2015-03-31T14:15:52Z</time>
      </trkpt>
      <trkpt lat="45.63339" lon="5.95289">
        <ele>963.6</ele>
        <time>2015-03-31T14:15:57Z</time>
      </trkpt>
      <trkpt lat="45.63346" lon="5.9528">
        <ele>964</ele>
        <time>2015-03-31T14:16:03Z</time>
      </trkpt>
      <trkpt lat="45.63356" lon="5.95271">
        <ele>964.2</ele>
        <time>2015-03-31T14:16:07Z</time>
      </trkpt>
      <trkpt lat="45.63364" lon="5.95265">
        <ele>964.2</ele>
        <time>2015-03-31T14:16:10Z</time>
      </trkpt>
      <trkpt lat="45.63374" lon="5.95257">
        <ele>964.3</ele>
        <time>2015-03-31T14:16:14Z</time>
      </trkpt>
      <trkpt lat="45.63383" lon="5.95256">
        <ele>963.9</ele>
        <time>2015-03-31T14:16:17Z</time>
      </trkpt>
      <trkpt lat="45.63392" lon="5.95252">
        <ele>963.6</ele>
        <time>2015-03-31T14:16:20Z</time>
      </trkpt>
      <trkpt lat="45.63403" lon="5.95247">
        <ele>963.7</ele>
        <time>2015-03-31T14:16:24Z</time>
      </trkpt>
      <trkpt lat="45.63411" lon="5.95239">
        <ele>963.6</ele>
        <time>2015-03-31T14:16:27Z</time>
      </trkpt>
      <trkpt lat="45.63418" lon="5.95229">
        <ele>963.4</ele>
        <time>2015-03-31T14:16:30Z</time>
      </trkpt>
      <trkpt lat="45.63424" lon="5.95217">
        <ele>963.2</ele>
        <time>2015-03-31T14:16:34Z</time>
      </trkpt>
      <trkpt lat="45.63431" lon="5.95205">
        <ele>963</ele>
        <time>2015-03-31T14:16:39Z</time>
      </trkpt>
      <trkpt lat="45.63432" lon="5.95192">
        <ele>963.5</ele>
        <time>2015-03-31T14:16:47Z</time>
      </trkpt>
      <trkpt lat="45.63431" lon="5.95178">
        <ele>964.3</ele>
        <time>2015-03-31T14:16:56Z</time>
      </trkpt>
      <trkpt lat="45.63426" lon="5.95167">
        <ele>964.7</ele>
        <time>2015-03-31T14:17:02Z</time>
      </trkpt>
      <trkpt lat="45.63417" lon="5.95164">
        <ele>965.1</ele>
        <time>2015-03-31T14:17:10Z</time>
      </trkpt>
      <trkpt lat="45.63407" lon="5.95158">
        <ele>966.4</ele>
        <time>2015-03-31T14:17:20Z</time>
      </trkpt>
      <trkpt lat="45.63398" lon="5.95152">
        <ele>967</ele>
        <time>2015-03-31T14:17:27Z</time>
      </trkpt>
      <trkpt lat="45.63388" lon="5.95149">
        <ele>967.3</ele>
        <time>2015-03-31T14:17:34Z</time>
      </trkpt>
      <trkpt lat="45.6338" lon="5.95143">
        <ele>967.7</ele>
        <time>2015-03-31T14:17:40Z</time>
      </trkpt>
      <trkpt lat="45.63372" lon="5.95137">
        <ele>968.4</ele>
        <time>2015-03-31T14:17:47Z</time>
      </trkpt>
      <trkpt lat="45.63363" lon="5.95132">
        <ele>969.9</ele>
        <time>2015-03-31T14:17:58Z</time>
      </trkpt>
      <trkpt lat="45.63354" lon="5.9513">
        <ele>972.4</ele>
        <time>2015-03-31T14:23:03Z</time>
      </trkpt>
      <trkpt lat="45.63345" lon="5.95125">
        <ele>972.6</ele>
        <time>2015-03-31T14:23:09Z</time>
      </trkpt>
      <trkpt lat="45.63335" lon="5.95123">
        <ele>972.9</ele>
        <time>2015-03-31T14:23:21Z</time>
      </trkpt>
      <trkpt lat="45.63326" lon="5.95125">
        <ele>973.2</ele>
        <time>2015-03-31T14:23:31Z</time>
      </trkpt>
      <trkpt lat="45.63317" lon="5.95119">
        <ele>973.2</ele>
        <time>2015-03-31T14:23:40Z</time>
      </trkpt>
      <trkpt lat="45.6331" lon="5.9511">
        <ele>973.9</ele>
        <time>2015-03-31T14:23:51Z</time>
      </trkpt>
      <trkpt lat="45.63304" lon="5.95099">
        <ele>975.5</ele>
        <time>2015-03-31T14:24:06Z</time>
      </trkpt>
      <trkpt lat="45.63296" lon="5.95092">
        <ele>976.2</ele>
        <time>2015-03-31T14:24:16Z</time>
      </trkpt>
      <trkpt lat="45.6329" lon="5.95082">
        <ele>976.4</ele>
        <time>2015-03-31T14:24:20Z</time>
      </trkpt>
      <trkpt lat="45.63283" lon="5.95072">
        <ele>976.6</ele>
        <time>2015-03-31T14:24:24Z</time>
      </trkpt>
      <trkpt lat="45.63276" lon="5.95062">
        <ele>976.7</ele>
        <time>2015-03-31T14:24:30Z</time>
      </trkpt>
      <trkpt lat="45.63267" lon="5.9505">
        <ele>976.6</ele>
        <time>2015-03-31T14:24:35Z</time>
      </trkpt>
      <trkpt lat="45.63259" lon="5.95037">
        <ele>976.5</ele>
        <time>2015-03-31T14:24:38Z</time>
      </trkpt>
      <trkpt lat="45.63251" lon="5.95025">
        <ele>976.5</ele>
        <time>2015-03-31T14:24:41Z</time>
      </trkpt>
      <trkpt lat="45.63244" lon="5.95012">
        <ele>976.3</ele>
        <time>2015-03-31T14:24:44Z</time>
      </trkpt>
      <trkpt lat="45.63237" lon="5.95003">
        <ele>976.1</ele>
        <time>2015-03-31T14:24:46Z</time>
      </trkpt>
      <trkpt lat="45.63229" lon="5.94994">
        <ele>975.8</ele>
        <time>2015-03-31T14:24:48Z</time>
      </trkpt>
      <trkpt lat="45.63221" lon="5.94985">
        <ele>975.5</ele>
        <time>2015-03-31T14:24:50Z</time>
      </trkpt>
      <trkpt lat="45.63212" lon="5.94975">
        <ele>975.1</ele>
        <time>2015-03-31T14:24:53Z</time>
      </trkpt>
      <trkpt lat="45.63204" lon="5.94967">
        <ele>974.8</ele>
        <time>2015-03-31T14:24:56Z</time>
      </trkpt>
      <trkpt lat="45.63196" lon="5.94957">
        <ele>974.5</ele>
        <time>2015-03-31T14:25:00Z</time>
      </trkpt>
      <trkpt lat="45.6319" lon="5.94946">
        <ele>974.3</ele>
        <time>2015-03-31T14:25:04Z</time>
      </trkpt>
      <trkpt lat="45.63183" lon="5.94938">
        <ele>974.9</ele>
        <time>2015-03-31T14:25:12Z</time>
      </trkpt>
      <trkpt lat="45.63175" lon="5.94931">
        <ele>975.9</ele>
        <time>2015-03-31T14:25:24Z</time>
      </trkpt>
      <trkpt lat="45.63168" lon="5.94922">
        <ele>976.6</ele>
        <time>2015-03-31T14:25:36Z</time>
      </trkpt>
      <trkpt lat="45.6316" lon="5.94912">
        <ele>977.2</ele>
        <time>2015-03-31T14:25:51Z</time>
      </trkpt>
      <trkpt lat="45.63152" lon="5.94906">
        <ele>977.9</ele>
        <time>2015-03-31T14:25:59Z</time>
      </trkpt>
      <trkpt lat="45.63141" lon="5.949">
        <ele>978.3</ele>
        <time>2015-03-31T14:26:05Z</time>
      </trkpt>
      <trkpt lat="45.63134" lon="5.94889">
        <ele>978.4</ele>
        <time>2015-03-31T14:26:09Z</time>
      </trkpt>
      <trkpt lat="45.63125" lon="5.94881">
        <ele>978.3</ele>
        <time>2015-03-31T14:26:13Z</time>
      </trkpt>
      <trkpt lat="45.63115" lon="5.94876">
        <ele>977.8</ele>
        <time>2015-03-31T14:26:16Z</time>
      </trkpt>
      <trkpt lat="45.63106" lon="5.9487">
        <ele>977.4</ele>
        <time>2015-03-31T14:26:18Z</time>
      </trkpt>
      <trkpt lat="45.63097" lon="5.94866">
        <ele>976.9</ele>
        <time>2015-03-31T14:26:20Z</time>
      </trkpt>
      <trkpt lat="45.63086" lon="5.94862">
        <ele>976.3</ele>
        <time>2015-03-31T14:26:23Z</time>
      </trkpt>
      <trkpt lat="45.63077" lon="5.94857">
        <ele>975.9</ele>
        <time>2015-03-31T14:26:25Z</time>
      </trkpt>
      <trkpt lat="45.63066" lon="5.94848">
        <ele>975.2</ele>
        <time>2015-03-31T14:26:28Z</time>
      </trkpt>
      <trkpt lat="45.63058" lon="5.94839">
        <ele>973.8</ele>
        <time>2015-03-31T14:26:36Z</time>
      </trkpt>
      <trkpt lat="45.63052" lon="5.94829">
        <ele>973.4</ele>
        <time>2015-03-31T14:26:48Z</time>
      </trkpt>
      <trkpt lat="45.63043" lon="5.94824">
        <ele>973.4</ele>
        <time>2015-03-31T14:26:53Z</time>
      </trkpt>
      <trkpt lat="45.63033" lon="5.94822">
        <ele>973.3</ele>
        <time>2015-03-31T14:26:58Z</time>
      </trkpt>
      <trkpt lat="45.63024" lon="5.94821">
        <ele>973.1</ele>
        <time>2015-03-31T14:27:02Z</time>
      </trkpt>
      <trkpt lat="45.63014" lon="5.94817">
        <ele>972.7</ele>
        <time>2015-03-31T14:27:07Z</time>
      </trkpt>
      <trkpt lat="45.63005" lon="5.94817">
        <ele>972.1</ele>
        <time>2015-03-31T14:27:12Z</time>
      </trkpt>
      <trkpt lat="45.62997" lon="5.94809">
        <ele>970.8</ele>
        <time>2015-03-31T14:27:17Z</time>
      </trkpt>
      <trkpt lat="45.62986" lon="5.94807">
        <ele>969.3</ele>
        <time>2015-03-31T14:27:21Z</time>
      </trkpt>
      <trkpt lat="45.62976" lon="5.94805">
        <ele>967.3</ele>
        <time>2015-03-31T14:27:26Z</time>
      </trkpt>
      <trkpt lat="45.62968" lon="5.94801">
        <ele>965.7</ele>
        <time>2015-03-31T14:27:30Z</time>
      </trkpt>
      <trkpt lat="45.62958" lon="5.94804">
        <ele>963.5</ele>
        <time>2015-03-31T14:27:35Z</time>
      </trkpt>
      <trkpt lat="45.62948" lon="5.94799">
        <ele>961</ele>
        <time>2015-03-31T14:27:41Z</time>
      </trkpt>
      <trkpt lat="45.62939" lon="5.94788">
        <ele>958.5</ele>
        <time>2015-03-31T14:27:47Z</time>
      </trkpt>
      <trkpt lat="45.62932" lon="5.9478">
        <ele>956.3</ele>
        <time>2015-03-31T14:27:51Z</time>
      </trkpt>
      <trkpt lat="45.6293" lon="5.94767">
        <ele>949.8</ele>
        <time>2015-03-31T14:28:11Z</time>
      </trkpt>
      <trkpt lat="45.62924" lon="5.94757">
        <ele>947.2</ele>
        <time>2015-03-31T14:28:20Z</time>
      </trkpt>
      <trkpt lat="45.62915" lon="5.94752">
        <ele>944.9</ele>
        <time>2015-03-31T14:28:26Z</time>
      </trkpt>
      <trkpt lat="45.62913" lon="5.94737">
        <ele>943.2</ele>
        <time>2015-03-31T14:28:30Z</time>
      </trkpt>
      <trkpt lat="45.62906" lon="5.94726">
        <ele>941.7</ele>
        <time>2015-03-31T14:28:33Z</time>
      </trkpt>
      <trkpt lat="45.62896" lon="5.9472">
        <ele>940.5</ele>
        <time>2015-03-31T14:28:35Z</time>
      </trkpt>
      <trkpt lat="45.62888" lon="5.9471">
        <ele>939.3</ele>
        <time>2015-03-31T14:28:37Z</time>
      </trkpt>
      <trkpt lat="45.6288" lon="5.94703">
        <ele>938</ele>
        <time>2015-03-31T14:28:40Z</time>
      </trkpt>
      <trkpt lat="45.6287" lon="5.94702">
        <ele>935.7</ele>
        <time>2015-03-31T14:28:44Z</time>
      </trkpt>
      <trkpt lat="45.62861" lon="5.94698">
        <ele>933.6</ele>
        <time>2015-03-31T14:28:48Z</time>
      </trkpt>
      <trkpt lat="45.62851" lon="5.94694">
        <ele>931.8</ele>
        <time>2015-03-31T14:28:51Z</time>
      </trkpt>
      <trkpt lat="45.62842" lon="5.94686">
        <ele>930.6</ele>
        <time>2015-03-31T14:28:53Z</time>
      </trkpt>
      <trkpt lat="45.62832" lon="5.94679">
        <ele>928.7</ele>
        <time>2015-03-31T14:28:56Z</time>
      </trkpt>
      <trkpt lat="45.6282" lon="5.94678">
        <ele>927</ele>
        <time>2015-03-31T14:28:59Z</time>
      </trkpt>
      <trkpt lat="45.62809" lon="5.94679">
        <ele>925.3</ele>
        <time>2015-03-31T14:29:02Z</time>
      </trkpt>
      <trkpt lat="45.62798" lon="5.94675">
        <ele>924</ele>
        <time>2015-03-31T14:29:05Z</time>
      </trkpt>
      <trkpt lat="45.62788" lon="5.94672">
        <ele>922.6</ele>
        <time>2015-03-31T14:29:09Z</time>
      </trkpt>
      <trkpt lat="45.62779" lon="5.94667">
        <ele>918.5</ele>
        <time>2015-03-31T14:29:26Z</time>
      </trkpt>
      <trkpt lat="45.62768" lon="5.9467">
        <ele>918.3</ele>
        <time>2015-03-31T14:30:00Z</time>
      </trkpt>
      <trkpt lat="45.62758" lon="5.94667">
        <ele>917.9</ele>
        <time>2015-03-31T14:30:03Z</time>
      </trkpt>
      <trkpt lat="45.62745" lon="5.94662">
        <ele>917.4</ele>
        <time>2015-03-31T14:30:06Z</time>
      </trkpt>
      <trkpt lat="45.62732" lon="5.94663">
        <ele>916.9</ele>
        <time>2015-03-31T14:30:09Z</time>
      </trkpt>
      <trkpt lat="45.62719" lon="5.94665">
        <ele>916.5</ele>
        <time>2015-03-31T14:30:12Z</time>
      </trkpt>
      <trkpt lat="45.62708" lon="5.94665">
        <ele>916.1</ele>
        <time>2015-03-31T14:30:14Z</time>
      </trkpt>
      <trkpt lat="45.62696" lon="5.94659">
        <ele>915.6</ele>
        <time>2015-03-31T14:30:16Z</time>
      </trkpt>
      <trkpt lat="45.62684" lon="5.94655">
        <ele>915.2</ele>
        <time>2015-03-31T14:30:18Z</time>
      </trkpt>
      <trkpt lat="45.62671" lon="5.94648">
        <ele>914.4</ele>
        <time>2015-03-31T14:30:20Z</time>
      </trkpt>
      <trkpt lat="45.62659" lon="5.9464">
        <ele>913.4</ele>
        <time>2015-03-31T14:30:22Z</time>
      </trkpt>
      <trkpt lat="45.62647" lon="5.94634">
        <ele>912.7</ele>
        <time>2015-03-31T14:30:24Z</time>
      </trkpt>
      <trkpt lat="45.62633" lon="5.94629">
        <ele>911.3</ele>
        <time>2015-03-31T14:30:26Z</time>
      </trkpt>
      <trkpt lat="45.62619" lon="5.94625">
        <ele>910.1</ele>
        <time>2015-03-31T14:30:28Z</time>
      </trkpt>
      <trkpt lat="45.62605" lon="5.94615">
        <ele>908.6</ele>
        <time>2015-03-31T14:30:30Z</time>
      </trkpt>
      <trkpt lat="45.62592" lon="5.94605">
        <ele>907.1</ele>
        <time>2015-03-31T14:30:32Z</time>
      </trkpt>
      <trkpt lat="45.6258" lon="5.946">
        <ele>905.8</ele>
        <time>2015-03-31T14:30:34Z</time>
      </trkpt>
      <trkpt lat="45.62569" lon="5.94594">
        <ele>904.4</ele>
        <time>2015-03-31T14:30:36Z</time>
      </trkpt>
      <trkpt lat="45.6256" lon="5.94584">
        <ele>903.1</ele>
        <time>2015-03-31T14:30:38Z</time>
      </trkpt>
      <trkpt lat="45.6255" lon="5.94575">
        <ele>901.7</ele>
        <time>2015-03-31T14:30:40Z</time>
      </trkpt>
      <trkpt lat="45.62539" lon="5.94567">
        <ele>900.3</ele>
        <time>2015-03-31T14:30:42Z</time>
      </trkpt>
      <trkpt lat="45.62531" lon="5.94558">
        <ele>898.9</ele>
        <time>2015-03-31T14:30:44Z</time>
      </trkpt>
      <trkpt lat="45.62525" lon="5.94546">
        <ele>897.4</ele>
        <time>2015-03-31T14:30:46Z</time>
      </trkpt>
      <trkpt lat="45.62514" lon="5.94538">
        <ele>895.3</ele>
        <time>2015-03-31T14:30:49Z</time>
      </trkpt>
      <trkpt lat="45.62502" lon="5.94538">
        <ele>893.9</ele>
        <time>2015-03-31T14:30:51Z</time>
      </trkpt>
      <trkpt lat="45.62488" lon="5.94534">
        <ele>892.4</ele>
        <time>2015-03-31T14:30:53Z</time>
      </trkpt>
      <trkpt lat="45.62474" lon="5.94532">
        <ele>891.1</ele>
        <time>2015-03-31T14:30:55Z</time>
      </trkpt>
      <trkpt lat="45.62464" lon="5.9453">
        <ele>889.7</ele>
        <time>2015-03-31T14:30:57Z</time>
      </trkpt>
      <trkpt lat="45.62453" lon="5.94529">
        <ele>888</ele>
        <time>2015-03-31T14:30:59Z</time>
      </trkpt>
      <trkpt lat="45.62441" lon="5.94528">
        <ele>886.5</ele>
        <time>2015-03-31T14:31:01Z</time>
      </trkpt>
      <trkpt lat="45.62428" lon="5.94532">
        <ele>885.1</ele>
        <time>2015-03-31T14:31:03Z</time>
      </trkpt>
      <trkpt lat="45.62419" lon="5.94534">
        <ele>883.4</ele>
        <time>2015-03-31T14:31:05Z</time>
      </trkpt>
      <trkpt lat="45.6241" lon="5.94531">
        <ele>880.7</ele>
        <time>2015-03-31T14:31:09Z</time>
      </trkpt>
      <trkpt lat="45.62409" lon="5.94546">
        <ele>877.2</ele>
        <time>2015-03-31T14:31:14Z</time>
      </trkpt>
      <trkpt lat="45.624" lon="5.94553">
        <ele>873.6</ele>
        <time>2015-03-31T14:31:20Z</time>
      </trkpt>
      <trkpt lat="45.62389" lon="5.94546">
        <ele>871.8</ele>
        <time>2015-03-31T14:31:23Z</time>
      </trkpt>
      <trkpt lat="45.62379" lon="5.94541">
        <ele>870.2</ele>
        <time>2015-03-31T14:31:26Z</time>
      </trkpt>
      <trkpt lat="45.62368" lon="5.94536">
        <ele>869</ele>
        <time>2015-03-31T14:31:29Z</time>
      </trkpt>
      <trkpt lat="45.62358" lon="5.94529">
        <ele>867.9</ele>
        <time>2015-03-31T14:31:32Z</time>
      </trkpt>
      <trkpt lat="45.62348" lon="5.94524">
        <ele>867.1</ele>
        <time>2015-03-31T14:31:35Z</time>
      </trkpt>
      <trkpt lat="45.62339" lon="5.94516">
        <ele>866.4</ele>
        <time>2015-03-31T14:31:39Z</time>
      </trkpt>
      <trkpt lat="45.62333" lon="5.94506">
        <ele>866.5</ele>
        <time>2015-03-31T14:31:43Z</time>
      </trkpt>
      <trkpt lat="45.62329" lon="5.94494">
        <ele>866.6</ele>
        <time>2015-03-31T14:31:47Z</time>
      </trkpt>
      <trkpt lat="45.62321" lon="5.94485">
        <ele>866.6</ele>
        <time>2015-03-31T14:31:52Z</time>
      </trkpt>
      <trkpt lat="45.62314" lon="5.94475">
        <ele>866.5</ele>
        <time>2015-03-31T14:31:56Z</time>
      </trkpt>
      <trkpt lat="45.62303" lon="5.94468">
        <ele>866.3</ele>
        <time>2015-03-31T14:31:59Z</time>
      </trkpt>
      <trkpt lat="45.62294" lon="5.94456">
        <ele>866.3</ele>
        <time>2015-03-31T14:32:02Z</time>
      </trkpt>
      <trkpt lat="45.62286" lon="5.94443">
        <ele>866.2</ele>
        <time>2015-03-31T14:32:05Z</time>
      </trkpt>
      <trkpt lat="45.62277" lon="5.94436">
        <ele>865.6</ele>
        <time>2015-03-31T14:32:08Z</time>
      </trkpt>
      <trkpt lat="45.62263" lon="5.94436">
        <ele>865.2</ele>
        <time>2015-03-31T14:32:11Z</time>
      </trkpt>
      <trkpt lat="45.62254" lon="5.94435">
        <ele>864.9</ele>
        <time>2015-03-31T14:32:13Z</time>
      </trkpt>
      <trkpt lat="45.62244" lon="5.94434">
        <ele>864.6</ele>
        <time>2015-03-31T14:32:15Z</time>
      </trkpt>
      <trkpt lat="45.62233" lon="5.9443">
        <ele>864.3</ele>
        <time>2015-03-31T14:32:17Z</time>
      </trkpt>
      <trkpt lat="45.62223" lon="5.94423">
        <ele>863.7</ele>
        <time>2015-03-31T14:32:19Z</time>
      </trkpt>
      <trkpt lat="45.62211" lon="5.94415">
        <ele>862.8</ele>
        <time>2015-03-31T14:32:22Z</time>
      </trkpt>
      <trkpt lat="45.62201" lon="5.94412">
        <ele>862.1</ele>
        <time>2015-03-31T14:32:24Z</time>
      </trkpt>
      <trkpt lat="45.62189" lon="5.94409">
        <ele>861.4</ele>
        <time>2015-03-31T14:32:26Z</time>
      </trkpt>
      <trkpt lat="45.62179" lon="5.94406">
        <ele>860.5</ele>
        <time>2015-03-31T14:32:28Z</time>
      </trkpt>
      <trkpt lat="45.6217" lon="5.94406">
        <ele>859.4</ele>
        <time>2015-03-31T14:32:30Z</time>
      </trkpt>
      <trkpt lat="45.6216" lon="5.94405">
        <ele>858.3</ele>
        <time>2015-03-31T14:32:32Z</time>
      </trkpt>
      <trkpt lat="45.62149" lon="5.94404">
        <ele>856.8</ele>
        <time>2015-03-31T14:32:34Z</time>
      </trkpt>
      <trkpt lat="45.62134" lon="5.94399">
        <ele>855.3</ele>
        <time>2015-03-31T14:32:36Z</time>
      </trkpt>
      <trkpt lat="45.62119" lon="5.94393">
        <ele>853.4</ele>
        <time>2015-03-31T14:32:38Z</time>
      </trkpt>
      <trkpt lat="45.62105" lon="5.94389">
        <ele>851.4</ele>
        <time>2015-03-31T14:32:40Z</time>
      </trkpt>
      <trkpt lat="45.62092" lon="5.9439">
        <ele>849.8</ele>
        <time>2015-03-31T14:32:42Z</time>
      </trkpt>
      <trkpt lat="45.62081" lon="5.9439">
        <ele>846.9</ele>
        <time>2015-03-31T14:32:45Z</time>
      </trkpt>
      <trkpt lat="45.62071" lon="5.94388">
        <ele>844.7</ele>
        <time>2015-03-31T14:32:48Z</time>
      </trkpt>
      <trkpt lat="45.6206" lon="5.94387">
        <ele>842</ele>
        <time>2015-03-31T14:32:52Z</time>
      </trkpt>
      <trkpt lat="45.62051" lon="5.94374">
        <ele>839.9</ele>
        <time>2015-03-31T14:32:55Z</time>
      </trkpt>
      <trkpt lat="45.62045" lon="5.94362">
        <ele>838.6</ele>
        <time>2015-03-31T14:32:57Z</time>
      </trkpt>
      <trkpt lat="45.62035" lon="5.94358">
        <ele>835.9</ele>
        <time>2015-03-31T14:33:01Z</time>
      </trkpt>
      <trkpt lat="45.62025" lon="5.94352">
        <ele>834</ele>
        <time>2015-03-31T14:33:04Z</time>
      </trkpt>
      <trkpt lat="45.62015" lon="5.94357">
        <ele>830.4</ele>
        <time>2015-03-31T14:33:09Z</time>
      </trkpt>
      <trkpt lat="45.62005" lon="5.9436">
        <ele>828.3</ele>
        <time>2015-03-31T14:33:12Z</time>
      </trkpt>
      <trkpt lat="45.61994" lon="5.94358">
        <ele>826.4</ele>
        <time>2015-03-31T14:33:15Z</time>
      </trkpt>
      <trkpt lat="45.61984" lon="5.94356">
        <ele>825.2</ele>
        <time>2015-03-31T14:33:17Z</time>
      </trkpt>
      <trkpt lat="45.61975" lon="5.94353">
        <ele>824.2</ele>
        <time>2015-03-31T14:33:19Z</time>
      </trkpt>
      <trkpt lat="45.61965" lon="5.94347">
        <ele>822.4</ele>
        <time>2015-03-31T14:33:23Z</time>
      </trkpt>
      <trkpt lat="45.61956" lon="5.94346">
        <ele>820.8</ele>
        <time>2015-03-31T14:33:27Z</time>
      </trkpt>
      <trkpt lat="45.61945" lon="5.94352">
        <ele>819.2</ele>
        <time>2015-03-31T14:33:31Z</time>
      </trkpt>
      <trkpt lat="45.61934" lon="5.94353">
        <ele>817</ele>
        <time>2015-03-31T14:33:35Z</time>
      </trkpt>
      <trkpt lat="45.61924" lon="5.94355">
        <ele>811.5</ele>
        <time>2015-03-31T14:33:48Z</time>
      </trkpt>
      <trkpt lat="45.61911" lon="5.94355">
        <ele>810</ele>
        <time>2015-03-31T14:33:51Z</time>
      </trkpt>
      <trkpt lat="45.61902" lon="5.94352">
        <ele>809.2</ele>
        <time>2015-03-31T14:33:53Z</time>
      </trkpt>
      <trkpt lat="45.61892" lon="5.94343">
        <ele>807</ele>
        <time>2015-03-31T14:33:58Z</time>
      </trkpt>
      <trkpt lat="45.61885" lon="5.94333">
        <ele>805.8</ele>
        <time>2015-03-31T14:34:03Z</time>
      </trkpt>
      <trkpt lat="45.61875" lon="5.94327">
        <ele>804.8</ele>
        <time>2015-03-31T14:34:11Z</time>
      </trkpt>
      <trkpt lat="45.61865" lon="5.94322">
        <ele>804.2</ele>
        <time>2015-03-31T14:34:16Z</time>
      </trkpt>
      <trkpt lat="45.61855" lon="5.9432">
        <ele>803.4</ele>
        <time>2015-03-31T14:34:20Z</time>
      </trkpt>
      <trkpt lat="45.61844" lon="5.94319">
        <ele>802.3</ele>
        <time>2015-03-31T14:34:24Z</time>
      </trkpt>
      <trkpt lat="45.61832" lon="5.94317">
        <ele>800.7</ele>
        <time>2015-03-31T14:34:28Z</time>
      </trkpt>
      <trkpt lat="45.61821" lon="5.94317">
        <ele>798.9</ele>
        <time>2015-03-31T14:34:32Z</time>
      </trkpt>
      <trkpt lat="45.6181" lon="5.94313">
        <ele>797.3</ele>
        <time>2015-03-31T14:34:36Z</time>
      </trkpt>
      <trkpt lat="45.61798" lon="5.94308">
        <ele>796.3</ele>
        <time>2015-03-31T14:34:39Z</time>
      </trkpt>
      <trkpt lat="45.61788" lon="5.94305">
        <ele>795</ele>
        <time>2015-03-31T14:34:43Z</time>
      </trkpt>
      <trkpt lat="45.61778" lon="5.94306">
        <ele>793.5</ele>
        <time>2015-03-31T14:34:47Z</time>
      </trkpt>
      <trkpt lat="45.61769" lon="5.94294">
        <ele>792</ele>
        <time>2015-03-31T14:34:51Z</time>
      </trkpt>
      <trkpt lat="45.6176" lon="5.94288">
        <ele>791.1</ele>
        <time>2015-03-31T14:34:53Z</time>
      </trkpt>
      <trkpt lat="45.61751" lon="5.94278">
        <ele>790.3</ele>
        <time>2015-03-31T14:34:55Z</time>
      </trkpt>
      <trkpt lat="45.61744" lon="5.94267">
        <ele>789.5</ele>
        <time>2015-03-31T14:34:57Z</time>
      </trkpt>
      <trkpt lat="45.61739" lon="5.94257">
        <ele>788.1</ele>
        <time>2015-03-31T14:35:01Z</time>
      </trkpt>
      <trkpt lat="45.61731" lon="5.94247">
        <ele>786.4</ele>
        <time>2015-03-31T14:35:06Z</time>
      </trkpt>
      <trkpt lat="45.61721" lon="5.94244">
        <ele>784.9</ele>
        <time>2015-03-31T14:35:10Z</time>
      </trkpt>
      <trkpt lat="45.61712" lon="5.9424">
        <ele>783.1</ele>
        <time>2015-03-31T14:35:14Z</time>
      </trkpt>
      <trkpt lat="45.61702" lon="5.94232">
        <ele>781.1</ele>
        <time>2015-03-31T14:35:18Z</time>
      </trkpt>
      <trkpt lat="45.61694" lon="5.94223">
        <ele>779.8</ele>
        <time>2015-03-31T14:35:20Z</time>
      </trkpt>
      <trkpt lat="45.61685" lon="5.94214">
        <ele>778.2</ele>
        <time>2015-03-31T14:35:22Z</time>
      </trkpt>
      <trkpt lat="45.61676" lon="5.94212">
        <ele>776.7</ele>
        <time>2015-03-31T14:35:24Z</time>
      </trkpt>
      <trkpt lat="45.61665" lon="5.94211">
        <ele>775.4</ele>
        <time>2015-03-31T14:35:26Z</time>
      </trkpt>
      <trkpt lat="45.61652" lon="5.94213">
        <ele>773.9</ele>
        <time>2015-03-31T14:35:28Z</time>
      </trkpt>
      <trkpt lat="45.61641" lon="5.94211">
        <ele>772.4</ele>
        <time>2015-03-31T14:35:30Z</time>
      </trkpt>
      <trkpt lat="45.61629" lon="5.94205">
        <ele>771.1</ele>
        <time>2015-03-31T14:35:32Z</time>
      </trkpt>
      <trkpt lat="45.61619" lon="5.94198">
        <ele>769.8</ele>
        <time>2015-03-31T14:35:34Z</time>
      </trkpt>
      <trkpt lat="45.61611" lon="5.94191">
        <ele>768.4</ele>
        <time>2015-03-31T14:35:36Z</time>
      </trkpt>
      <trkpt lat="45.616" lon="5.94186">
        <ele>767</ele>
        <time>2015-03-31T14:35:38Z</time>
      </trkpt>
      <trkpt lat="45.61588" lon="5.94186">
        <ele>765.2</ele>
        <time>2015-03-31T14:35:41Z</time>
      </trkpt>
      <trkpt lat="45.61579" lon="5.94183">
        <ele>764.4</ele>
        <time>2015-03-31T14:35:43Z</time>
      </trkpt>
      <trkpt lat="45.61567" lon="5.94174">
        <ele>763.1</ele>
        <time>2015-03-31T14:35:46Z</time>
      </trkpt>
      <trkpt lat="45.61555" lon="5.94169">
        <ele>761.9</ele>
        <time>2015-03-31T14:35:48Z</time>
      </trkpt>
      <trkpt lat="45.61545" lon="5.9417">
        <ele>760.1</ele>
        <time>2015-03-31T14:35:51Z</time>
      </trkpt>
      <trkpt lat="45.61537" lon="5.94177">
        <ele>758.3</ele>
        <time>2015-03-31T14:35:54Z</time>
      </trkpt>
      <trkpt lat="45.61527" lon="5.94184">
        <ele>756.2</ele>
        <time>2015-03-31T14:35:57Z</time>
      </trkpt>
      <trkpt lat="45.61516" lon="5.94184">
        <ele>755</ele>
        <time>2015-03-31T14:35:59Z</time>
      </trkpt>
      <trkpt lat="45.61507" lon="5.94176">
        <ele>753.3</ele>
        <time>2015-03-31T14:36:01Z</time>
      </trkpt>
      <trkpt lat="45.61502" lon="5.94164">
        <ele>751.5</ele>
        <time>2015-03-31T14:36:03Z</time>
      </trkpt>
      <trkpt lat="45.61503" lon="5.94149">
        <ele>749.1</ele>
        <time>2015-03-31T14:36:06Z</time>
      </trkpt>
      <trkpt lat="45.61502" lon="5.94135">
        <ele>745.8</ele>
        <time>2015-03-31T14:36:10Z</time>
      </trkpt>
      <trkpt lat="45.61495" lon="5.94122">
        <ele>743.4</ele>
        <time>2015-03-31T14:36:13Z</time>
      </trkpt>
      <trkpt lat="45.61484" lon="5.94116">
        <ele>741.7</ele>
        <time>2015-03-31T14:36:15Z</time>
      </trkpt>
      <trkpt lat="45.61477" lon="5.94108">
        <ele>733</ele>
        <time>2015-03-31T14:36:28Z</time>
      </trkpt>
      <trkpt lat="45.61465" lon="5.94103">
        <ele>731.5</ele>
        <time>2015-03-31T14:36:31Z</time>
      </trkpt>
      <trkpt lat="45.61456" lon="5.941">
        <ele>730.6</ele>
        <time>2015-03-31T14:36:33Z</time>
      </trkpt>
      <trkpt lat="45.61445" lon="5.94098">
        <ele>729.7</ele>
        <time>2015-03-31T14:36:35Z</time>
      </trkpt>
      <trkpt lat="45.61436" lon="5.94095">
        <ele>728.8</ele>
        <time>2015-03-31T14:36:37Z</time>
      </trkpt>
      <trkpt lat="45.61428" lon="5.94089">
        <ele>727.9</ele>
        <time>2015-03-31T14:36:39Z</time>
      </trkpt>
      <trkpt lat="45.61419" lon="5.94083">
        <ele>726.5</ele>
        <time>2015-03-31T14:36:42Z</time>
      </trkpt>
      <trkpt lat="45.61409" lon="5.94078">
        <ele>724.7</ele>
        <time>2015-03-31T14:36:45Z</time>
      </trkpt>
      <trkpt lat="45.61397" lon="5.94074">
        <ele>723.4</ele>
        <time>2015-03-31T14:36:48Z</time>
      </trkpt>
      <trkpt lat="45.61385" lon="5.9407">
        <ele>722.9</ele>
        <time>2015-03-31T14:36:50Z</time>
      </trkpt>
      <trkpt lat="45.61374" lon="5.94066">
        <ele>722</ele>
        <time>2015-03-31T14:36:52Z</time>
      </trkpt>
      <trkpt lat="45.61366" lon="5.94057">
        <ele>721.4</ele>
        <time>2015-03-31T14:36:54Z</time>
      </trkpt>
      <trkpt lat="45.61357" lon="5.9405">
        <ele>720.6</ele>
        <time>2015-03-31T14:36:56Z</time>
      </trkpt>
      <trkpt lat="45.61348" lon="5.94042">
        <ele>719.9</ele>
        <time>2015-03-31T14:36:58Z</time>
      </trkpt>
      <trkpt lat="45.6134" lon="5.94032">
        <ele>719.2</ele>
        <time>2015-03-31T14:37:00Z</time>
      </trkpt>
      <trkpt lat="45.61334" lon="5.94021">
        <ele>718.4</ele>
        <time>2015-03-31T14:37:03Z</time>
      </trkpt>
      <trkpt lat="45.61329" lon="5.94009">
        <ele>717.6</ele>
        <time>2015-03-31T14:37:06Z</time>
      </trkpt>
      <trkpt lat="45.61318" lon="5.93996">
        <ele>716.7</ele>
        <time>2015-03-31T14:37:09Z</time>
      </trkpt>
      <trkpt lat="45.61307" lon="5.93987">
        <ele>715.7</ele>
        <time>2015-03-31T14:37:12Z</time>
      </trkpt>
      <trkpt lat="45.61296" lon="5.93984">
        <ele>714.6</ele>
        <time>2015-03-31T14:37:15Z</time>
      </trkpt>
      <trkpt lat="45.61285" lon="5.9398">
        <ele>713.3</ele>
        <time>2015-03-31T14:37:19Z</time>
      </trkpt>
      <trkpt lat="45.61272" lon="5.93976">
        <ele>712.3</ele>
        <time>2015-03-31T14:37:22Z</time>
      </trkpt>
      <trkpt lat="45.6126" lon="5.93974">
        <ele>711.4</ele>
        <time>2015-03-31T14:37:25Z</time>
      </trkpt>
      <trkpt lat="45.61249" lon="5.93973">
        <ele>710.5</ele>
        <time>2015-03-31T14:37:28Z</time>
      </trkpt>
      <trkpt lat="45.61238" lon="5.93973">
        <ele>709.9</ele>
        <time>2015-03-31T14:37:30Z</time>
      </trkpt>
      <trkpt lat="45.61228" lon="5.93975">
        <ele>708.8</ele>
        <time>2015-03-31T14:37:32Z</time>
      </trkpt>
      <trkpt lat="45.61216" lon="5.93979">
        <ele>707.2</ele>
        <time>2015-03-31T14:37:35Z</time>
      </trkpt>
      <trkpt lat="45.61205" lon="5.93984">
        <ele>705.8</ele>
        <time>2015-03-31T14:37:38Z</time>
      </trkpt>
      <trkpt lat="45.61194" lon="5.9399">
        <ele>704</ele>
        <time>2015-03-31T14:37:42Z</time>
      </trkpt>
      <trkpt lat="45.61184" lon="5.93996">
        <ele>702</ele>
        <time>2015-03-31T14:37:45Z</time>
      </trkpt>
      <trkpt lat="45.61174" lon="5.94002">
        <ele>700</ele>
        <time>2015-03-31T14:37:48Z</time>
      </trkpt>
      <trkpt lat="45.61163" lon="5.9401">
        <ele>697.6</ele>
        <time>2015-03-31T14:37:52Z</time>
      </trkpt>
      <trkpt lat="45.61154" lon="5.94015">
        <ele>695.1</ele>
        <time>2015-03-31T14:37:56Z</time>
      </trkpt>
      <trkpt lat="45.61145" lon="5.94023">
        <ele>692.5</ele>
        <time>2015-03-31T14:38:00Z</time>
      </trkpt>
      <trkpt lat="45.61134" lon="5.94031">
        <ele>690.6</ele>
        <time>2015-03-31T14:38:03Z</time>
      </trkpt>
      <trkpt lat="45.61123" lon="5.94033">
        <ele>689.2</ele>
        <time>2015-03-31T14:38:05Z</time>
      </trkpt>
      <trkpt lat="45.61112" lon="5.9403">
        <ele>687.8</ele>
        <time>2015-03-31T14:38:07Z</time>
      </trkpt>
      <trkpt lat="45.61103" lon="5.94025">
        <ele>686.8</ele>
        <time>2015-03-31T14:38:09Z</time>
      </trkpt>
      <trkpt lat="45.61098" lon="5.94012">
        <ele>685.2</ele>
        <time>2015-03-31T14:38:12Z</time>
      </trkpt>
      <trkpt lat="45.61094" lon="5.94">
        <ele>683.7</ele>
        <time>2015-03-31T14:38:14Z</time>
      </trkpt>
      <trkpt lat="45.61086" lon="5.93992">
        <ele>682.3</ele>
        <time>2015-03-31T14:38:16Z</time>
      </trkpt>
      <trkpt lat="45.61074" lon="5.93985">
        <ele>680.4</ele>
        <time>2015-03-31T14:38:19Z</time>
      </trkpt>
      <trkpt lat="45.61066" lon="5.93976">
        <ele>677.6</ele>
        <time>2015-03-31T14:38:23Z</time>
      </trkpt>
      <trkpt lat="45.61059" lon="5.93968">
        <ele>676.2</ele>
        <time>2015-03-31T14:38:25Z</time>
      </trkpt>
      <trkpt lat="45.61053" lon="5.93958">
        <ele>672.9</ele>
        <time>2015-03-31T14:38:31Z</time>
      </trkpt>
      <trkpt lat="45.61052" lon="5.9394">
        <ele>666.5</ele>
        <time>2015-03-31T14:38:46Z</time>
      </trkpt>
      <trkpt lat="45.61047" lon="5.93927">
        <ele>664.8</ele>
        <time>2015-03-31T14:38:49Z</time>
      </trkpt>
      <trkpt lat="45.61039" lon="5.93921">
        <ele>662.2</ele>
        <time>2015-03-31T14:38:54Z</time>
      </trkpt>
      <trkpt lat="45.61029" lon="5.93911">
        <ele>660.6</ele>
        <time>2015-03-31T14:38:57Z</time>
      </trkpt>
      <trkpt lat="45.61018" lon="5.93903">
        <ele>658.7</ele>
        <time>2015-03-31T14:39:00Z</time>
      </trkpt>
      <trkpt lat="45.61007" lon="5.93893">
        <ele>656.6</ele>
        <time>2015-03-31T14:39:03Z</time>
      </trkpt>
      <trkpt lat="45.60998" lon="5.93886">
        <ele>655.3</ele>
        <time>2015-03-31T14:39:05Z</time>
      </trkpt>
      <trkpt lat="45.60989" lon="5.93877">
        <ele>653</ele>
        <time>2015-03-31T14:39:08Z</time>
      </trkpt>
      <trkpt lat="45.60979" lon="5.93879">
        <ele>646.6</ele>
        <time>2015-03-31T14:39:17Z</time>
      </trkpt>
      <trkpt lat="45.60967" lon="5.93881">
        <ele>643.7</ele>
        <time>2015-03-31T14:39:21Z</time>
      </trkpt>
      <trkpt lat="45.60958" lon="5.9388">
        <ele>642.1</ele>
        <time>2015-03-31T14:39:23Z</time>
      </trkpt>
      <trkpt lat="45.60948" lon="5.93871">
        <ele>640.7</ele>
        <time>2015-03-31T14:39:25Z</time>
      </trkpt>
      <trkpt lat="45.60942" lon="5.93855">
        <ele>639.2</ele>
        <time>2015-03-31T14:39:27Z</time>
      </trkpt>
      <trkpt lat="45.60935" lon="5.93847">
        <ele>636.2</ele>
        <time>2015-03-31T14:39:31Z</time>
      </trkpt>
      <trkpt lat="45.60923" lon="5.93843">
        <ele>633.1</ele>
        <time>2015-03-31T14:39:35Z</time>
      </trkpt>
      <trkpt lat="45.6091" lon="5.93833">
        <ele>630.6</ele>
        <time>2015-03-31T14:39:38Z</time>
      </trkpt>
      <trkpt lat="45.60897" lon="5.93828">
        <ele>628.8</ele>
        <time>2015-03-31T14:39:40Z</time>
      </trkpt>
      <trkpt lat="45.60884" lon="5.93822">
        <ele>627.2</ele>
        <time>2015-03-31T14:39:42Z</time>
      </trkpt>
      <trkpt lat="45.60872" lon="5.93818">
        <ele>625</ele>
        <time>2015-03-31T14:39:44Z</time>
      </trkpt>
      <trkpt lat="45.60859" lon="5.93815">
        <ele>622.6</ele>
        <time>2015-03-31T14:39:46Z</time>
      </trkpt>
      <trkpt lat="45.60848" lon="5.93809">
        <ele>620.4</ele>
        <time>2015-03-31T14:39:48Z</time>
      </trkpt>
      <trkpt lat="45.60838" lon="5.93805">
        <ele>618.3</ele>
        <time>2015-03-31T14:39:50Z</time>
      </trkpt>
      <trkpt lat="45.60828" lon="5.93799">
        <ele>616</ele>
        <time>2015-03-31T14:39:52Z</time>
      </trkpt>
      <trkpt lat="45.60819" lon="5.93793">
        <ele>613.8</ele>
        <time>2015-03-31T14:39:54Z</time>
      </trkpt>
      <trkpt lat="45.60809" lon="5.93785">
        <ele>610.6</ele>
        <time>2015-03-31T14:39:57Z</time>
      </trkpt>
      <trkpt lat="45.608" lon="5.93776">
        <ele>607.6</ele>
        <time>2015-03-31T14:40:00Z</time>
      </trkpt>
      <trkpt lat="45.60791" lon="5.9377">
        <ele>604.7</ele>
        <time>2015-03-31T14:40:03Z</time>
      </trkpt>
      <trkpt lat="45.60778" lon="5.93766">
        <ele>602.2</ele>
        <time>2015-03-31T14:40:06Z</time>
      </trkpt>
      <trkpt lat="45.60765" lon="5.93764">
        <ele>600.4</ele>
        <time>2015-03-31T14:40:08Z</time>
      </trkpt>
      <trkpt lat="45.60749" lon="5.93765">
        <ele>598.5</ele>
        <time>2015-03-31T14:40:10Z</time>
      </trkpt>
      <trkpt lat="45.60735" lon="5.93771">
        <ele>596.8</ele>
        <time>2015-03-31T14:40:12Z</time>
      </trkpt>
      <trkpt lat="45.60725" lon="5.93774">
        <ele>595.1</ele>
        <time>2015-03-31T14:40:14Z</time>
      </trkpt>
      <trkpt lat="45.60715" lon="5.93775">
        <ele>592.7</ele>
        <time>2015-03-31T14:40:17Z</time>
      </trkpt>
      <trkpt lat="45.60704" lon="5.9378">
        <ele>590.5</ele>
        <time>2015-03-31T14:40:20Z</time>
      </trkpt>
      <trkpt lat="45.60698" lon="5.93794">
        <ele>588.1</ele>
        <time>2015-03-31T14:40:23Z</time>
      </trkpt>
      <trkpt lat="45.607" lon="5.9381">
        <ele>585.7</ele>
        <time>2015-03-31T14:40:26Z</time>
      </trkpt>
      <trkpt lat="45.60697" lon="5.93828">
        <ele>583.6</ele>
        <time>2015-03-31T14:40:29Z</time>
      </trkpt>
      <trkpt lat="45.60692" lon="5.93844">
        <ele>582.2</ele>
        <time>2015-03-31T14:40:31Z</time>
      </trkpt>
      <trkpt lat="45.6069" lon="5.9386">
        <ele>580.9</ele>
        <time>2015-03-31T14:40:33Z</time>
      </trkpt>
      <trkpt lat="45.60689" lon="5.93878">
        <ele>579.6</ele>
        <time>2015-03-31T14:40:35Z</time>
      </trkpt>
      <trkpt lat="45.60692" lon="5.93896">
        <ele>578.5</ele>
        <time>2015-03-31T14:40:37Z</time>
      </trkpt>
      <trkpt lat="45.60696" lon="5.9391">
        <ele>577.5</ele>
        <time>2015-03-31T14:40:39Z</time>
      </trkpt>
      <trkpt lat="45.60701" lon="5.93924">
        <ele>575.9</ele>
        <time>2015-03-31T14:40:43Z</time>
      </trkpt>
      <trkpt lat="45.60704" lon="5.93938">
        <ele>574.7</ele>
        <time>2015-03-31T14:40:48Z</time>
      </trkpt>
      <trkpt lat="45.60706" lon="5.93952">
        <ele>574.1</ele>
        <time>2015-03-31T14:40:52Z</time>
      </trkpt>
      <trkpt lat="45.60709" lon="5.93969">
        <ele>573.5</ele>
        <time>2015-03-31T14:40:55Z</time>
      </trkpt>
      <trkpt lat="45.60715" lon="5.93982">
        <ele>572.8</ele>
        <time>2015-03-31T14:40:57Z</time>
      </trkpt>
      <trkpt lat="45.60723" lon="5.93997">
        <ele>572.1</ele>
        <time>2015-03-31T14:40:59Z</time>
      </trkpt>
      <trkpt lat="45.6073" lon="5.94009">
        <ele>571.4</ele>
        <time>2015-03-31T14:41:01Z</time>
      </trkpt>
      <trkpt lat="45.60738" lon="5.94018">
        <ele>570.8</ele>
        <time>2015-03-31T14:41:03Z</time>
      </trkpt>
      <trkpt lat="45.60748" lon="5.94028">
        <ele>570.1</ele>
        <time>2015-03-31T14:41:05Z</time>
      </trkpt>
      <trkpt lat="45.60757" lon="5.94039">
        <ele>569.4</ele>
        <time>2015-03-31T14:41:07Z</time>
      </trkpt>
      <trkpt lat="45.60764" lon="5.94049">
        <ele>568.9</ele>
        <time>2015-03-31T14:41:09Z</time>
      </trkpt>
      <trkpt lat="45.6077" lon="5.9406">
        <ele>568.1</ele>
        <time>2015-03-31T14:41:13Z</time>
      </trkpt>
      <trkpt lat="45.60774" lon="5.94072">
        <ele>567.6</ele>
        <time>2015-03-31T14:41:19Z</time>
      </trkpt>
      <trkpt lat="45.6078" lon="5.94085">
        <ele>567.6</ele>
        <time>2015-03-31T14:41:25Z</time>
      </trkpt>
      <trkpt lat="45.60784" lon="5.94097">
        <ele>568.1</ele>
        <time>2015-03-31T14:41:31Z</time>
      </trkpt>
      <trkpt lat="45.6079" lon="5.94107">
        <ele>568.7</ele>
        <time>2015-03-31T14:41:37Z</time>
      </trkpt>
      <trkpt lat="45.60798" lon="5.94115">
        <ele>569.2</ele>
        <time>2015-03-31T14:41:43Z</time>
      </trkpt>
      <trkpt lat="45.6079" lon="5.94122">
        <ele>571</ele>
        <time>2015-03-31T14:41:57Z</time>
      </trkpt>
      <trkpt lat="45.6078" lon="5.94123">
        <ele>571.8</ele>
        <time>2015-03-31T14:42:04Z</time>
      </trkpt>
      <trkpt lat="45.6077" lon="5.94121">
        <ele>572.7</ele>
        <time>2015-03-31T14:42:10Z</time>
      </trkpt>
      <trkpt lat="45.6076" lon="5.94119">
        <ele>574</ele>
        <time>2015-03-31T14:42:17Z</time>
      </trkpt>
      <trkpt lat="45.60751" lon="5.94118">
        <ele>574.9</ele>
        <time>2015-03-31T14:42:23Z</time>
      </trkpt>
      <trkpt lat="45.60743" lon="5.94125">
        <ele>575.7</ele>
        <time>2015-03-31T14:42:29Z</time>
      </trkpt>
      <trkpt lat="45.60735" lon="5.94131">
        <ele>576.3</ele>
        <time>2015-03-31T14:42:34Z</time>
      </trkpt>
      <trkpt lat="45.60727" lon="5.94141">
        <ele>577.1</ele>
        <time>2015-03-31T14:42:42Z</time>
      </trkpt>
      <trkpt lat="45.6073" lon="5.94155">
        <ele>578.4</ele>
        <time>2015-03-31T14:42:53Z</time>
      </trkpt>
      <trkpt lat="45.60733" lon="5.94169">
        <ele>584.1</ele>
        <time>2015-03-31T14:43:27Z</time>
      </trkpt>
      <trkpt lat="45.60739" lon="5.94179">
        <ele>585</ele>
        <time>2015-03-31T14:43:34Z</time>
      </trkpt>
      <trkpt lat="45.60744" lon="5.9419">
        <ele>585.6</ele>
        <time>2015-03-31T14:43:38Z</time>
      </trkpt>
      <trkpt lat="45.60749" lon="5.94203">
        <ele>586.4</ele>
        <time>2015-03-31T14:43:44Z</time>
      </trkpt>
      <trkpt lat="45.60753" lon="5.94215">
        <ele>587.2</ele>
        <time>2015-03-31T14:43:49Z</time>
      </trkpt>
      <trkpt lat="45.60756" lon="5.94228">
        <ele>588.3</ele>
        <time>2015-03-31T14:43:56Z</time>
      </trkpt>
      <trkpt lat="45.6076" lon="5.9424">
        <ele>589.2</ele>
        <time>2015-03-31T14:44:02Z</time>
      </trkpt>
      <trkpt lat="45.60763" lon="5.94253">
        <ele>590.3</ele>
        <time>2015-03-31T14:44:10Z</time>
      </trkpt>
      <trkpt lat="45.60767" lon="5.94266">
        <ele>591.4</ele>
        <time>2015-03-31T14:44:18Z</time>
      </trkpt>
      <trkpt lat="45.60773" lon="5.94276">
        <ele>592.5</ele>
        <time>2015-03-31T14:44:25Z</time>
      </trkpt>
      <trkpt lat="45.60781" lon="5.94283">
        <ele>593.8</ele>
        <time>2015-03-31T14:44:34Z</time>
      </trkpt>
      <trkpt lat="45.60788" lon="5.94291">
        <ele>595.2</ele>
        <time>2015-03-31T14:44:42Z</time>
      </trkpt>
      <trkpt lat="45.60797" lon="5.94299">
        <ele>596.7</ele>
        <time>2015-03-31T14:44:52Z</time>
      </trkpt>
      <trkpt lat="45.60807" lon="5.94303">
        <ele>598.1</ele>
        <time>2015-03-31T14:45:00Z</time>
      </trkpt>
      <trkpt lat="45.60816" lon="5.94308">
        <ele>599.6</ele>
        <time>2015-03-31T14:45:08Z</time>
      </trkpt>
      <trkpt lat="45.60825" lon="5.94314">
        <ele>601.2</ele>
        <time>2015-03-31T14:45:16Z</time>
      </trkpt>
      <trkpt lat="45.60834" lon="5.94318">
        <ele>602.8</ele>
        <time>2015-03-31T14:45:25Z</time>
      </trkpt>
      <trkpt lat="45.60842" lon="5.94326">
        <ele>604.6</ele>
        <time>2015-03-31T14:45:34Z</time>
      </trkpt>
      <trkpt lat="45.60848" lon="5.94335">
        <ele>606.1</ele>
        <time>2015-03-31T14:45:43Z</time>
      </trkpt>
      <trkpt lat="45.60856" lon="5.94344">
        <ele>607.2</ele>
        <time>2015-03-31T14:45:50Z</time>
      </trkpt>
      <trkpt lat="45.60864" lon="5.9435">
        <ele>609</ele>
        <time>2015-03-31T14:45:59Z</time>
      </trkpt>
      <trkpt lat="45.60871" lon="5.94359">
        <ele>610.3</ele>
        <time>2015-03-31T14:46:06Z</time>
      </trkpt>
      <trkpt lat="45.60879" lon="5.94367">
        <ele>611.8</ele>
        <time>2015-03-31T14:46:14Z</time>
      </trkpt>
      <trkpt lat="45.60887" lon="5.94374">
        <ele>613.4</ele>
        <time>2015-03-31T14:46:22Z</time>
      </trkpt>
      <trkpt lat="45.60895" lon="5.94379">
        <ele>614.5</ele>
        <time>2015-03-31T14:46:28Z</time>
      </trkpt>
      <trkpt lat="45.60903" lon="5.94386">
        <ele>616.1</ele>
        <time>2015-03-31T14:46:36Z</time>
      </trkpt>
      <trkpt lat="45.60911" lon="5.94395">
        <ele>618</ele>
        <time>2015-03-31T14:46:44Z</time>
      </trkpt>
      <trkpt lat="45.60914" lon="5.94408">
        <ele>619.6</ele>
        <time>2015-03-31T14:46:51Z</time>
      </trkpt>
      <trkpt lat="45.60913" lon="5.94423">
        <ele>621.3</ele>
        <time>2015-03-31T14:46:59Z</time>
      </trkpt>
      <trkpt lat="45.60909" lon="5.94435">
        <ele>622.8</ele>
        <time>2015-03-31T14:47:07Z</time>
      </trkpt>
      <trkpt lat="45.60904" lon="5.94449">
        <ele>623.4</ele>
        <time>2015-03-31T14:47:12Z</time>
      </trkpt>
      <trkpt lat="45.60902" lon="5.94463">
        <ele>623.2</ele>
        <time>2015-03-31T14:47:17Z</time>
      </trkpt>
      <trkpt lat="45.60899" lon="5.94476">
        <ele>622.5</ele>
        <time>2015-03-31T14:47:22Z</time>
      </trkpt>
      <trkpt lat="45.60892" lon="5.94486">
        <ele>621.6</ele>
        <time>2015-03-31T14:47:26Z</time>
      </trkpt>
      <trkpt lat="45.60883" lon="5.94491">
        <ele>618.9</ele>
        <time>2015-03-31T14:47:36Z</time>
      </trkpt>
      <trkpt lat="45.60875" lon="5.94496">
        <ele>617.8</ele>
        <time>2015-03-31T14:47:40Z</time>
      </trkpt>
      <trkpt lat="45.60866" lon="5.94499">
        <ele>616.9</ele>
        <time>2015-03-31T14:47:43Z</time>
      </trkpt>
      <trkpt lat="45.60855" lon="5.94505">
        <ele>614.9</ele>
        <time>2015-03-31T14:47:47Z</time>
      </trkpt>
      <trkpt lat="45.60844" lon="5.94512">
        <ele>613.4</ele>
        <time>2015-03-31T14:47:50Z</time>
      </trkpt>
      <trkpt lat="45.60836" lon="5.94521">
        <ele>611.6</ele>
        <time>2015-03-31T14:47:53Z</time>
      </trkpt>
      <trkpt lat="45.60827" lon="5.9453">
        <ele>609.2</ele>
        <time>2015-03-31T14:47:57Z</time>
      </trkpt>
      <trkpt lat="45.60819" lon="5.94538">
        <ele>607.2</ele>
        <time>2015-03-31T14:48:00Z</time>
      </trkpt>
      <trkpt lat="45.60809" lon="5.9455">
        <ele>605.3</ele>
        <time>2015-03-31T14:48:03Z</time>
      </trkpt>
      <trkpt lat="45.608" lon="5.94562">
        <ele>603.8</ele>
        <time>2015-03-31T14:48:05Z</time>
      </trkpt>
      <trkpt lat="45.60789" lon="5.94575">
        <ele>602.4</ele>
        <time>2015-03-31T14:48:07Z</time>
      </trkpt>
      <trkpt lat="45.60778" lon="5.94591">
        <ele>601</ele>
        <time>2015-03-31T14:48:09Z</time>
      </trkpt>
      <trkpt lat="45.60768" lon="5.9461">
        <ele>599.7</ele>
        <time>2015-03-31T14:48:11Z</time>
      </trkpt>
      <trkpt lat="45.60759" lon="5.9463">
        <ele>598.3</ele>
        <time>2015-03-31T14:48:13Z</time>
      </trkpt>
      <trkpt lat="45.60751" lon="5.94648">
        <ele>596.6</ele>
        <time>2015-03-31T14:48:15Z</time>
      </trkpt>
      <trkpt lat="45.60746" lon="5.94664">
        <ele>595</ele>
        <time>2015-03-31T14:48:17Z</time>
      </trkpt>
      <trkpt lat="45.60741" lon="5.94678">
        <ele>593.6</ele>
        <time>2015-03-31T14:48:19Z</time>
      </trkpt>
      <trkpt lat="45.60738" lon="5.94692">
        <ele>592.4</ele>
        <time>2015-03-31T14:48:21Z</time>
      </trkpt>
      <trkpt lat="45.60734" lon="5.94708">
        <ele>591.3</ele>
        <time>2015-03-31T14:48:23Z</time>
      </trkpt>
      <trkpt lat="45.60728" lon="5.94721">
        <ele>590.3</ele>
        <time>2015-03-31T14:48:25Z</time>
      </trkpt>
      <trkpt lat="45.60723" lon="5.94731">
        <ele>589.5</ele>
        <time>2015-03-31T14:48:27Z</time>
      </trkpt>
      <trkpt lat="45.60715" lon="5.94741">
        <ele>588.4</ele>
        <time>2015-03-31T14:48:30Z</time>
      </trkpt>
      <trkpt lat="45.60708" lon="5.9475">
        <ele>587.3</ele>
        <time>2015-03-31T14:48:34Z</time>
      </trkpt>
      <trkpt lat="45.60702" lon="5.94761">
        <ele>586.2</ele>
        <time>2015-03-31T14:48:39Z</time>
      </trkpt>
      <trkpt lat="45.60699" lon="5.94774">
        <ele>585.4</ele>
        <time>2015-03-31T14:48:45Z</time>
      </trkpt>
      <trkpt lat="45.60694" lon="5.9479">
        <ele>583</ele>
        <time>2015-03-31T14:52:10Z</time>
      </trkpt>
      <trkpt lat="45.60689" lon="5.94803">
        <ele>579.9</ele>
        <time>2015-03-31T14:52:14Z</time>
      </trkpt>
      <trkpt lat="45.60686" lon="5.94816">
        <ele>580.9</ele>
        <time>2015-03-31T14:52:19Z</time>
      </trkpt>
      <trkpt lat="45.60682" lon="5.94828">
        <ele>581.5</ele>
        <time>2015-03-31T14:52:26Z</time>
      </trkpt>
      <trkpt lat="45.60684" lon="5.94843">
        <ele>583.3</ele>
        <time>2015-03-31T14:52:32Z</time>
      </trkpt>
      <trkpt lat="45.60686" lon="5.94858">
        <ele>583.5</ele>
        <time>2015-03-31T14:52:37Z</time>
      </trkpt>
      <trkpt lat="45.60684" lon="5.94871">
        <ele>583.5</ele>
        <time>2015-03-31T14:52:41Z</time>
      </trkpt>
      <trkpt lat="45.60683" lon="5.94884">
        <ele>583.5</ele>
        <time>2015-03-31T14:52:45Z</time>
      </trkpt>
      <trkpt lat="45.60679" lon="5.94896">
        <ele>583.5</ele>
        <time>2015-03-31T14:52:48Z</time>
      </trkpt>
      <trkpt lat="45.60671" lon="5.94908">
        <ele>583.5</ele>
        <time>2015-03-31T14:52:51Z</time>
      </trkpt>
      <trkpt lat="45.60664" lon="5.94918">
        <ele>583.4</ele>
        <time>2015-03-31T14:52:53Z</time>
      </trkpt>
      <trkpt lat="45.60656" lon="5.94926">
        <ele>583.3</ele>
        <time>2015-03-31T14:52:55Z</time>
      </trkpt>
      <trkpt lat="45.60647" lon="5.94933">
        <ele>582.9</ele>
        <time>2015-03-31T14:52:58Z</time>
      </trkpt>
      <trkpt lat="45.60636" lon="5.94937">
        <ele>582.1</ele>
        <time>2015-03-31T14:53:01Z</time>
      </trkpt>
      <trkpt lat="45.60627" lon="5.94951">
        <ele>581.2</ele>
        <time>2015-03-31T14:53:04Z</time>
      </trkpt>
      <trkpt lat="45.60621" lon="5.94962">
        <ele>580.6</ele>
        <time>2015-03-31T14:53:06Z</time>
      </trkpt>
      <trkpt lat="45.60613" lon="5.94972">
        <ele>579.8</ele>
        <time>2015-03-31T14:53:08Z</time>
      </trkpt>
      <trkpt lat="45.60605" lon="5.94981">
        <ele>579</ele>
        <time>2015-03-31T14:53:10Z</time>
      </trkpt>
      <trkpt lat="45.60597" lon="5.9499">
        <ele>577.7</ele>
        <time>2015-03-31T14:53:13Z</time>
      </trkpt>
      <trkpt lat="45.60588" lon="5.94999">
        <ele>575.8</ele>
        <time>2015-03-31T14:53:17Z</time>
      </trkpt>
      <trkpt lat="45.60581" lon="5.95007">
        <ele>573.4</ele>
        <time>2015-03-31T14:53:22Z</time>
      </trkpt>
      <trkpt lat="45.60575" lon="5.95019">
        <ele>570.8</ele>
        <time>2015-03-31T14:53:29Z</time>
      </trkpt>
      <trkpt lat="45.60567" lon="5.95028">
        <ele>570</ele>
        <time>2015-03-31T14:53:32Z</time>
      </trkpt>
      <trkpt lat="45.60557" lon="5.95035">
        <ele>568.4</ele>
        <time>2015-03-31T14:53:35Z</time>
      </trkpt>
      <trkpt lat="45.60547" lon="5.95045">
        <ele>567</ele>
        <time>2015-03-31T14:53:38Z</time>
      </trkpt>
      <trkpt lat="45.60537" lon="5.95053">
        <ele>565.6</ele>
        <time>2015-03-31T14:53:41Z</time>
      </trkpt>
      <trkpt lat="45.6053" lon="5.95062">
        <ele>564.7</ele>
        <time>2015-03-31T14:53:43Z</time>
      </trkpt>
      <trkpt lat="45.6052" lon="5.95068">
        <ele>562.8</ele>
        <time>2015-03-31T14:53:47Z</time>
      </trkpt>
      <trkpt lat="45.60508" lon="5.95075">
        <ele>561.2</ele>
        <time>2015-03-31T14:53:50Z</time>
      </trkpt>
      <trkpt lat="45.60512" lon="5.95063">
        <ele>552.8</ele>
        <time>2015-03-31T14:54:28Z</time>
      </trkpt>
      <trkpt lat="45.6052" lon="5.95052">
        <ele>552.3</ele>
        <time>2015-03-31T14:54:31Z</time>
      </trkpt>
      <trkpt lat="45.6052" lon="5.95035">
        <ele>551.6</ele>
        <time>2015-03-31T14:54:34Z</time>
      </trkpt>
      <trkpt lat="45.60515" lon="5.95023">
        <ele>550.9</ele>
        <time>2015-03-31T14:54:36Z</time>
      </trkpt>
      <trkpt lat="45.6051" lon="5.9501">
        <ele>550.3</ele>
        <time>2015-03-31T14:54:38Z</time>
      </trkpt>
      <trkpt lat="45.60504" lon="5.94994">
        <ele>549.3</ele>
        <time>2015-03-31T14:54:40Z</time>
      </trkpt>
      <trkpt lat="45.60499" lon="5.94979">
        <ele>548.3</ele>
        <time>2015-03-31T14:54:42Z</time>
      </trkpt>
      <trkpt lat="45.60494" lon="5.94964">
        <ele>547.3</ele>
        <time>2015-03-31T14:54:44Z</time>
      </trkpt>
      <trkpt lat="45.60489" lon="5.94948">
        <ele>546.2</ele>
        <time>2015-03-31T14:54:46Z</time>
      </trkpt>
      <trkpt lat="45.60485" lon="5.94928">
        <ele>544.8</ele>
        <time>2015-03-31T14:54:48Z</time>
      </trkpt>
      <trkpt lat="45.60481" lon="5.94909">
        <ele>543.3</ele>
        <time>2015-03-31T14:54:50Z</time>
      </trkpt>
      <trkpt lat="45.60475" lon="5.94898">
        <ele>541.7</ele>
        <time>2015-03-31T14:54:52Z</time>
      </trkpt>
      <trkpt lat="45.60466" lon="5.94889">
        <ele>540.1</ele>
        <time>2015-03-31T14:54:54Z</time>
      </trkpt>
      <trkpt lat="45.60457" lon="5.94877">
        <ele>538.5</ele>
        <time>2015-03-31T14:54:56Z</time>
      </trkpt>
      <trkpt lat="45.60449" lon="5.94864">
        <ele>536.9</ele>
        <time>2015-03-31T14:54:58Z</time>
      </trkpt>
      <trkpt lat="45.60443" lon="5.9485">
        <ele>535.2</ele>
        <time>2015-03-31T14:55:00Z</time>
      </trkpt>
      <trkpt lat="45.60436" lon="5.94836">
        <ele>533.5</ele>
        <time>2015-03-31T14:55:02Z</time>
      </trkpt>
      <trkpt lat="45.6043" lon="5.94824">
        <ele>532</ele>
        <time>2015-03-31T14:55:04Z</time>
      </trkpt>
      <trkpt lat="45.60425" lon="5.94806">
        <ele>529.6</ele>
        <time>2015-03-31T14:55:07Z</time>
      </trkpt>
      <trkpt lat="45.60422" lon="5.94793">
        <ele>528.1</ele>
        <time>2015-03-31T14:55:09Z</time>
      </trkpt>
      <trkpt lat="45.60418" lon="5.94779">
        <ele>526.5</ele>
        <time>2015-03-31T14:55:11Z</time>
      </trkpt>
      <trkpt lat="45.60411" lon="5.94762">
        <ele>524.5</ele>
        <time>2015-03-31T14:55:13Z</time>
      </trkpt>
      <trkpt lat="45.60406" lon="5.94745">
        <ele>522.7</ele>
        <time>2015-03-31T14:55:15Z</time>
      </trkpt>
      <trkpt lat="45.60402" lon="5.9473">
        <ele>520.4</ele>
        <time>2015-03-31T14:55:17Z</time>
      </trkpt>
      <trkpt lat="45.60396" lon="5.94718">
        <ele>518.7</ele>
        <time>2015-03-31T14:55:19Z</time>
      </trkpt>
      <trkpt lat="45.60389" lon="5.94707">
        <ele>516.2</ele>
        <time>2015-03-31T14:55:21Z</time>
      </trkpt>
      <trkpt lat="45.60381" lon="5.94696">
        <ele>514.4</ele>
        <time>2015-03-31T14:55:23Z</time>
      </trkpt>
      <trkpt lat="45.60374" lon="5.94687">
        <ele>512.6</ele>
        <time>2015-03-31T14:55:25Z</time>
      </trkpt>
      <trkpt lat="45.60365" lon="5.94679">
        <ele>510.2</ele>
        <time>2015-03-31T14:55:28Z</time>
      </trkpt>
      <trkpt lat="45.60355" lon="5.94681">
        <ele>506.7</ele>
        <time>2015-03-31T14:55:33Z</time>
      </trkpt>
      <trkpt lat="45.60348" lon="5.94692">
        <ele>504.7</ele>
        <time>2015-03-31T14:55:36Z</time>
      </trkpt>
      <trkpt lat="45.60339" lon="5.94705">
        <ele>502.9</ele>
        <time>2015-03-31T14:55:39Z</time>
      </trkpt>
      <trkpt lat="45.6033" lon="5.94708">
        <ele>501.1</ele>
        <time>2015-03-31T14:55:42Z</time>
      </trkpt>
      <trkpt lat="45.60315" lon="5.94706">
        <ele>499.5</ele>
        <time>2015-03-31T14:55:45Z</time>
      </trkpt>
      <trkpt lat="45.60304" lon="5.94704">
        <ele>498.5</ele>
        <time>2015-03-31T14:55:47Z</time>
      </trkpt>
      <trkpt lat="45.60292" lon="5.94703">
        <ele>497.1</ele>
        <time>2015-03-31T14:55:49Z</time>
      </trkpt>
      <trkpt lat="45.60282" lon="5.94701">
        <ele>494.3</ele>
        <time>2015-03-31T14:55:53Z</time>
      </trkpt>
      <trkpt lat="45.60273" lon="5.94701">
        <ele>491.5</ele>
        <time>2015-03-31T14:55:57Z</time>
      </trkpt>
      <trkpt lat="45.60264" lon="5.94697">
        <ele>489.5</ele>
        <time>2015-03-31T14:56:00Z</time>
      </trkpt>
      <trkpt lat="45.60253" lon="5.94695">
        <ele>487.3</ele>
        <time>2015-03-31T14:56:03Z</time>
      </trkpt>
      <trkpt lat="45.60243" lon="5.94689">
        <ele>485.2</ele>
        <time>2015-03-31T14:56:06Z</time>
      </trkpt>
      <trkpt lat="45.60231" lon="5.94678">
        <ele>483.3</ele>
        <time>2015-03-31T14:56:09Z</time>
      </trkpt>
      <trkpt lat="45.6022" lon="5.9467">
        <ele>482</ele>
        <time>2015-03-31T14:56:11Z</time>
      </trkpt>
      <trkpt lat="45.60208" lon="5.94661">
        <ele>480.7</ele>
        <time>2015-03-31T14:56:13Z</time>
      </trkpt>
      <trkpt lat="45.60198" lon="5.94664">
        <ele>477.1</ele>
        <time>2015-03-31T14:56:18Z</time>
      </trkpt>
      <trkpt lat="45.60189" lon="5.94661">
        <ele>475.2</ele>
        <time>2015-03-31T14:56:21Z</time>
      </trkpt>
      <trkpt lat="45.60177" lon="5.94657">
        <ele>473.6</ele>
        <time>2015-03-31T14:56:24Z</time>
      </trkpt>
      <trkpt lat="45.60167" lon="5.94652">
        <ele>472.6</ele>
        <time>2015-03-31T14:56:26Z</time>
      </trkpt>
      <trkpt lat="45.60157" lon="5.94645">
        <ele>471.7</ele>
        <time>2015-03-31T14:56:28Z</time>
      </trkpt>
      <trkpt lat="45.60149" lon="5.94637">
        <ele>470.8</ele>
        <time>2015-03-31T14:56:30Z</time>
      </trkpt>
      <trkpt lat="45.60141" lon="5.94631">
        <ele>470.1</ele>
        <time>2015-03-31T14:56:32Z</time>
      </trkpt>
      <trkpt lat="45.60134" lon="5.94623">
        <ele>469.5</ele>
        <time>2015-03-31T14:56:34Z</time>
      </trkpt>
      <trkpt lat="45.60123" lon="5.94612">
        <ele>468.6</ele>
        <time>2015-03-31T14:56:37Z</time>
      </trkpt>
      <trkpt lat="45.60112" lon="5.946">
        <ele>467.9</ele>
        <time>2015-03-31T14:56:40Z</time>
      </trkpt>
      <trkpt lat="45.60105" lon="5.9459">
        <ele>467.5</ele>
        <time>2015-03-31T14:56:42Z</time>
      </trkpt>
      <trkpt lat="45.60096" lon="5.94582">
        <ele>467.2</ele>
        <time>2015-03-31T14:56:44Z</time>
      </trkpt>
      <trkpt lat="45.60088" lon="5.94575">
        <ele>466.9</ele>
        <time>2015-03-31T14:56:46Z</time>
      </trkpt>
      <trkpt lat="45.60078" lon="5.94571">
        <ele>466.6</ele>
        <time>2015-03-31T14:56:48Z</time>
      </trkpt>
      <trkpt lat="45.60068" lon="5.9457">
        <ele>466.4</ele>
        <time>2015-03-31T14:56:50Z</time>
      </trkpt>
      <trkpt lat="45.60057" lon="5.94573">
        <ele>466.1</ele>
        <time>2015-03-31T14:56:52Z</time>
      </trkpt>
      <trkpt lat="45.60047" lon="5.94575">
        <ele>465.9</ele>
        <time>2015-03-31T14:56:54Z</time>
      </trkpt>
      <trkpt lat="45.60036" lon="5.94577">
        <ele>465.8</ele>
        <time>2015-03-31T14:56:56Z</time>
      </trkpt>
      <trkpt lat="45.60026" lon="5.9458">
        <ele>465.6</ele>
        <time>2015-03-31T14:56:58Z</time>
      </trkpt>
      <trkpt lat="45.60015" lon="5.94583">
        <ele>465.4</ele>
        <time>2015-03-31T14:57:00Z</time>
      </trkpt>
      <trkpt lat="45.60005" lon="5.94586">
        <ele>465.1</ele>
        <time>2015-03-31T14:57:02Z</time>
      </trkpt>
      <trkpt lat="45.59994" lon="5.94585">
        <ele>464.9</ele>
        <time>2015-03-31T14:57:05Z</time>
      </trkpt>
      <trkpt lat="45.59987" lon="5.9457">
        <ele>464.6</ele>
        <time>2015-03-31T14:57:08Z</time>
      </trkpt>
      <trkpt lat="45.59982" lon="5.94556">
        <ele>464.2</ele>
        <time>2015-03-31T14:57:10Z</time>
      </trkpt>
      <trkpt lat="45.59976" lon="5.94541">
        <ele>463.9</ele>
        <time>2015-03-31T14:57:12Z</time>
      </trkpt>
      <trkpt lat="45.59971" lon="5.94526">
        <ele>463.5</ele>
        <time>2015-03-31T14:57:14Z</time>
      </trkpt>
      <trkpt lat="45.59968" lon="5.94512">
        <ele>461.6</ele>
        <time>2015-03-31T14:57:23Z</time>
      </trkpt>
      <trkpt lat="45.59965" lon="5.94496">
        <ele>460.9</ele>
        <time>2015-03-31T14:57:26Z</time>
      </trkpt>
      <trkpt lat="45.59961" lon="5.94482">
        <ele>459.9</ele>
        <time>2015-03-31T14:57:29Z</time>
      </trkpt>
      <trkpt lat="45.5995" lon="5.94485">
        <ele>458.6</ele>
        <time>2015-03-31T14:57:33Z</time>
      </trkpt>
      <trkpt lat="45.5994" lon="5.94498">
        <ele>457.2</ele>
        <time>2015-03-31T14:57:36Z</time>
      </trkpt>
      <trkpt lat="45.59933" lon="5.94507">
        <ele>456.5</ele>
        <time>2015-03-31T14:57:38Z</time>
      </trkpt>
      <trkpt lat="45.59923" lon="5.94519">
        <ele>455.5</ele>
        <time>2015-03-31T14:57:41Z</time>
      </trkpt>
      <trkpt lat="45.59913" lon="5.9453">
        <ele>454.5</ele>
        <time>2015-03-31T14:57:44Z</time>
      </trkpt>
      <trkpt lat="45.59905" lon="5.94538">
        <ele>453.8</ele>
        <time>2015-03-31T14:57:46Z</time>
      </trkpt>
      <trkpt lat="45.59895" lon="5.94545">
        <ele>453.2</ele>
        <time>2015-03-31T14:57:48Z</time>
      </trkpt>
      <trkpt lat="45.59887" lon="5.94539">
        <ele>451.7</ele>
        <time>2015-03-31T14:57:51Z</time>
      </trkpt>
      <trkpt lat="45.5989" lon="5.94527">
        <ele>450.9</ele>
        <time>2015-03-31T14:57:53Z</time>
      </trkpt>
      <trkpt lat="45.59892" lon="5.94514">
        <ele>449.6</ele>
        <time>2015-03-31T14:57:56Z</time>
      </trkpt>
      <trkpt lat="45.5988" lon="5.94515">
        <ele>447.8</ele>
        <time>2015-03-31T14:58:00Z</time>
      </trkpt>
      <trkpt lat="45.59869" lon="5.94522">
        <ele>446.8</ele>
        <time>2015-03-31T14:58:02Z</time>
      </trkpt>
      <trkpt lat="45.59858" lon="5.94527">
        <ele>445.8</ele>
        <time>2015-03-31T14:58:04Z</time>
      </trkpt>
      <trkpt lat="45.59845" lon="5.94532">
        <ele>444.4</ele>
        <time>2015-03-31T14:58:06Z</time>
      </trkpt>
      <trkpt lat="45.59833" lon="5.94539">
        <ele>442.7</ele>
        <time>2015-03-31T14:58:08Z</time>
      </trkpt>
      <trkpt lat="45.59822" lon="5.94546">
        <ele>441</ele>
        <time>2015-03-31T14:58:10Z</time>
      </trkpt>
      <trkpt lat="45.5981" lon="5.94557">
        <ele>439.5</ele>
        <time>2015-03-31T14:58:12Z</time>
      </trkpt>
      <trkpt lat="45.59796" lon="5.94572">
        <ele>438.2</ele>
        <time>2015-03-31T14:58:14Z</time>
      </trkpt>
      <trkpt lat="45.59783" lon="5.94587">
        <ele>436.5</ele>
        <time>2015-03-31T14:58:16Z</time>
      </trkpt>
      <trkpt lat="45.59771" lon="5.94598">
        <ele>435.1</ele>
        <time>2015-03-31T14:58:18Z</time>
      </trkpt>
      <trkpt lat="45.59759" lon="5.94604">
        <ele>433.2</ele>
        <time>2015-03-31T14:58:21Z</time>
      </trkpt>
      <trkpt lat="45.59748" lon="5.94604">
        <ele>431.7</ele>
        <time>2015-03-31T14:58:23Z</time>
      </trkpt>
      <trkpt lat="45.59734" lon="5.946">
        <ele>430.4</ele>
        <time>2015-03-31T14:58:25Z</time>
      </trkpt>
      <trkpt lat="45.59722" lon="5.94597">
        <ele>428.8</ele>
        <time>2015-03-31T14:58:27Z</time>
      </trkpt>
      <trkpt lat="45.59708" lon="5.94596">
        <ele>427.2</ele>
        <time>2015-03-31T14:58:29Z</time>
      </trkpt>
      <trkpt lat="45.59692" lon="5.94593">
        <ele>425.4</ele>
        <time>2015-03-31T14:58:31Z</time>
      </trkpt>
      <trkpt lat="45.59683" lon="5.94593">
        <ele>424.6</ele>
        <time>2015-03-31T14:58:32Z</time>
      </trkpt>
      <trkpt lat="45.59673" lon="5.9459">
        <ele>423.7</ele>
        <time>2015-03-31T14:58:33Z</time>
      </trkpt>
      <trkpt lat="45.59663" lon="5.94588">
        <ele>422.7</ele>
        <time>2015-03-31T14:58:34Z</time>
      </trkpt>
      <trkpt lat="45.59653" lon="5.94585">
        <ele>421.7</ele>
        <time>2015-03-31T14:58:35Z</time>
      </trkpt>
      <trkpt lat="45.59644" lon="5.9458">
        <ele>420.8</ele>
        <time>2015-03-31T14:58:36Z</time>
      </trkpt>
      <trkpt lat="45.59634" lon="5.94575">
        <ele>419.8</ele>
        <time>2015-03-31T14:58:37Z</time>
      </trkpt>
      <trkpt lat="45.59625" lon="5.94571">
        <ele>418.8</ele>
        <time>2015-03-31T14:58:38Z</time>
      </trkpt>
      <trkpt lat="45.59616" lon="5.94567">
        <ele>417.9</ele>
        <time>2015-03-31T14:58:39Z</time>
      </trkpt>
      <trkpt lat="45.59607" lon="5.94562">
        <ele>417</ele>
        <time>2015-03-31T14:58:40Z</time>
      </trkpt>
      <trkpt lat="45.59592" lon="5.94555">
        <ele>415.2</ele>
        <time>2015-03-31T14:58:42Z</time>
      </trkpt>
      <trkpt lat="45.59576" lon="5.94551">
        <ele>413.4</ele>
        <time>2015-03-31T14:58:44Z</time>
      </trkpt>
      <trkpt lat="45.59561" lon="5.94551">
        <ele>411.5</ele>
        <time>2015-03-31T14:58:46Z</time>
      </trkpt>
      <trkpt lat="45.59547" lon="5.94554">
        <ele>410</ele>
        <time>2015-03-31T14:58:48Z</time>
      </trkpt>
      <trkpt lat="45.59534" lon="5.94557">
        <ele>408.6</ele>
        <time>2015-03-31T14:58:50Z</time>
      </trkpt>
      <trkpt lat="45.59522" lon="5.94562">
        <ele>407.4</ele>
        <time>2015-03-31T14:58:52Z</time>
      </trkpt>
      <trkpt lat="45.59512" lon="5.9457">
        <ele>406.1</ele>
        <time>2015-03-31T14:58:54Z</time>
      </trkpt>
      <trkpt lat="45.59501" lon="5.94577">
        <ele>404.9</ele>
        <time>2015-03-31T14:58:56Z</time>
      </trkpt>
      <trkpt lat="45.59491" lon="5.94581">
        <ele>404</ele>
        <time>2015-03-31T14:58:58Z</time>
      </trkpt>
      <trkpt lat="45.59478" lon="5.94583">
        <ele>402.8</ele>
        <time>2015-03-31T14:59:01Z</time>
      </trkpt>
      <trkpt lat="45.59467" lon="5.94585">
        <ele>401.7</ele>
        <time>2015-03-31T14:59:04Z</time>
      </trkpt>
      <trkpt lat="45.59458" lon="5.94589">
        <ele>400.9</ele>
        <time>2015-03-31T14:59:06Z</time>
      </trkpt>
      <trkpt lat="45.59446" lon="5.94595">
        <ele>400</ele>
        <time>2015-03-31T14:59:08Z</time>
      </trkpt>
      <trkpt lat="45.59434" lon="5.94602">
        <ele>399</ele>
        <time>2015-03-31T14:59:10Z</time>
      </trkpt>
      <trkpt lat="45.59421" lon="5.94608">
        <ele>397.9</ele>
        <time>2015-03-31T14:59:12Z</time>
      </trkpt>
      <trkpt lat="45.59409" lon="5.94614">
        <ele>396.6</ele>
        <time>2015-03-31T14:59:14Z</time>
      </trkpt>
      <trkpt lat="45.594" lon="5.94617">
        <ele>395.4</ele>
        <time>2015-03-31T14:59:16Z</time>
      </trkpt>
      <trkpt lat="45.59391" lon="5.9462">
        <ele>393.6</ele>
        <time>2015-03-31T14:59:19Z</time>
      </trkpt>
      <trkpt lat="45.59383" lon="5.9461">
        <ele>387.6</ele>
        <time>2015-03-31T14:59:42Z</time>
      </trkpt>
      <trkpt lat="45.59375" lon="5.946">
        <ele>387</ele>
        <time>2015-03-31T14:59:44Z</time>
      </trkpt>
      <trkpt lat="45.59363" lon="5.94594">
        <ele>386.4</ele>
        <time>2015-03-31T14:59:46Z</time>
      </trkpt>
      <trkpt lat="45.5935" lon="5.94589">
        <ele>385.6</ele>
        <time>2015-03-31T14:59:48Z</time>
      </trkpt>
      <trkpt lat="45.59335" lon="5.94591">
        <ele>384.8</ele>
        <time>2015-03-31T14:59:50Z</time>
      </trkpt>
      <trkpt lat="45.5932" lon="5.94595">
        <ele>383.9</ele>
        <time>2015-03-31T14:59:52Z</time>
      </trkpt>
      <trkpt lat="45.59306" lon="5.94599">
        <ele>382.9</ele>
        <time>2015-03-31T14:59:54Z</time>
      </trkpt>
      <trkpt lat="45.59292" lon="5.94602">
        <ele>381.8</ele>
        <time>2015-03-31T14:59:56Z</time>
      </trkpt>
      <trkpt lat="45.59282" lon="5.946">
        <ele>380.3</ele>
        <time>2015-03-31T14:59:59Z</time>
      </trkpt>
      <trkpt lat="45.59271" lon="5.94599">
        <ele>376.4</ele>
        <time>2015-03-31T15:00:09Z</time>
      </trkpt>
      <trkpt lat="45.59258" lon="5.94599">
        <ele>375.4</ele>
        <time>2015-03-31T15:00:12Z</time>
      </trkpt>
      <trkpt lat="45.59246" lon="5.94596">
        <ele>374.4</ele>
        <time>2015-03-31T15:00:15Z</time>
      </trkpt>
      <trkpt lat="45.59233" lon="5.94592">
        <ele>373.4</ele>
        <time>2015-03-31T15:00:18Z</time>
      </trkpt>
      <trkpt lat="45.59222" lon="5.94588">
        <ele>375.6</ele>
        <time>2015-03-31T15:00:21Z</time>
      </trkpt>
      <trkpt lat="45.59211" lon="5.94583">
        <ele>374.5</ele>
        <time>2015-03-31T15:00:24Z</time>
      </trkpt>
      <trkpt lat="45.59198" lon="5.94575">
        <ele>373</ele>
        <time>2015-03-31T15:00:27Z</time>
      </trkpt>
      <trkpt lat="45.59188" lon="5.9457">
        <ele>372.1</ele>
        <time>2015-03-31T15:00:29Z</time>
      </trkpt>
      <trkpt lat="45.59177" lon="5.94565">
        <ele>371.1</ele>
        <time>2015-03-31T15:00:31Z</time>
      </trkpt>
      <trkpt lat="45.59166" lon="5.94558">
        <ele>370.1</ele>
        <time>2015-03-31T15:00:33Z</time>
      </trkpt>
      <trkpt lat="45.59154" lon="5.9455">
        <ele>369.2</ele>
        <time>2015-03-31T15:00:35Z</time>
      </trkpt>
      <trkpt lat="45.59142" lon="5.94543">
        <ele>368.3</ele>
        <time>2015-03-31T15:00:37Z</time>
      </trkpt>
      <trkpt lat="45.59129" lon="5.94538">
        <ele>367.5</ele>
        <time>2015-03-31T15:00:39Z</time>
      </trkpt>
      <trkpt lat="45.59115" lon="5.94538">
        <ele>366.4</ele>
        <time>2015-03-31T15:00:41Z</time>
      </trkpt>
      <trkpt lat="45.59099" lon="5.94543">
        <ele>365.4</ele>
        <time>2015-03-31T15:00:43Z</time>
      </trkpt>
      <trkpt lat="45.59082" lon="5.94549">
        <ele>364.8</ele>
        <time>2015-03-31T15:00:45Z</time>
      </trkpt>
      <trkpt lat="45.59073" lon="5.9455">
        <ele>364.3</ele>
        <time>2015-03-31T15:00:46Z</time>
      </trkpt>
      <trkpt lat="45.59064" lon="5.94551">
        <ele>363.8</ele>
        <time>2015-03-31T15:00:47Z</time>
      </trkpt>
      <trkpt lat="45.59054" lon="5.94552">
        <ele>363.3</ele>
        <time>2015-03-31T15:00:48Z</time>
      </trkpt>
      <trkpt lat="45.59044" lon="5.94552">
        <ele>362.8</ele>
        <time>2015-03-31T15:00:49Z</time>
      </trkpt>
      <trkpt lat="45.59035" lon="5.94554">
        <ele>362.3</ele>
        <time>2015-03-31T15:00:50Z</time>
      </trkpt>
      <trkpt lat="45.59025" lon="5.94555">
        <ele>361.7</ele>
        <time>2015-03-31T15:00:51Z</time>
      </trkpt>
      <trkpt lat="45.59014" lon="5.94557">
        <ele>361.1</ele>
        <time>2015-03-31T15:00:52Z</time>
      </trkpt>
      <trkpt lat="45.59004" lon="5.94559">
        <ele>360.5</ele>
        <time>2015-03-31T15:00:53Z</time>
      </trkpt>
      <trkpt lat="45.58993" lon="5.9456">
        <ele>359.8</ele>
        <time>2015-03-31T15:00:54Z</time>
      </trkpt>
      <trkpt lat="45.58982" lon="5.9456">
        <ele>359.2</ele>
        <time>2015-03-31T15:00:55Z</time>
      </trkpt>
      <trkpt lat="45.58973" lon="5.94559">
        <ele>358.4</ele>
        <time>2015-03-31T15:00:56Z</time>
      </trkpt>
      <trkpt lat="45.58958" lon="5.94549">
        <ele>356.9</ele>
        <time>2015-03-31T15:00:58Z</time>
      </trkpt>
      <trkpt lat="45.58949" lon="5.94528">
        <ele>355.5</ele>
        <time>2015-03-31T15:01:00Z</time>
      </trkpt>
      <trkpt lat="45.58943" lon="5.94504">
        <ele>353.9</ele>
        <time>2015-03-31T15:01:02Z</time>
      </trkpt>
      <trkpt lat="45.58935" lon="5.94482">
        <ele>352.1</ele>
        <time>2015-03-31T15:01:04Z</time>
      </trkpt>
      <trkpt lat="45.58921" lon="5.94467">
        <ele>350.4</ele>
        <time>2015-03-31T15:01:06Z</time>
      </trkpt>
      <trkpt lat="45.58912" lon="5.94462">
        <ele>349.5</ele>
        <time>2015-03-31T15:01:07Z</time>
      </trkpt>
      <trkpt lat="45.58902" lon="5.94458">
        <ele>348.6</ele>
        <time>2015-03-31T15:01:08Z</time>
      </trkpt>
      <trkpt lat="45.58893" lon="5.94454">
        <ele>347.7</ele>
        <time>2015-03-31T15:01:09Z</time>
      </trkpt>
      <trkpt lat="45.58883" lon="5.9445">
        <ele>346.8</ele>
        <time>2015-03-31T15:01:10Z</time>
      </trkpt>
      <trkpt lat="45.58873" lon="5.94446">
        <ele>345.9</ele>
        <time>2015-03-31T15:01:11Z</time>
      </trkpt>
      <trkpt lat="45.58864" lon="5.94444">
        <ele>345</ele>
        <time>2015-03-31T15:01:12Z</time>
      </trkpt>
      <trkpt lat="45.58855" lon="5.94445">
        <ele>344.1</ele>
        <time>2015-03-31T15:01:13Z</time>
      </trkpt>
      <trkpt lat="45.58845" lon="5.94448">
        <ele>343.3</ele>
        <time>2015-03-31T15:01:14Z</time>
      </trkpt>
      <trkpt lat="45.58836" lon="5.94454">
        <ele>342.4</ele>
        <time>2015-03-31T15:01:15Z</time>
      </trkpt>
      <trkpt lat="45.58827" lon="5.9446">
        <ele>341.6</ele>
        <time>2015-03-31T15:01:16Z</time>
      </trkpt>
      <trkpt lat="45.58818" lon="5.94466">
        <ele>340.8</ele>
        <time>2015-03-31T15:01:17Z</time>
      </trkpt>
      <trkpt lat="45.58809" lon="5.94469">
        <ele>340</ele>
        <time>2015-03-31T15:01:18Z</time>
      </trkpt>
      <trkpt lat="45.588" lon="5.94469">
        <ele>339.2</ele>
        <time>2015-03-31T15:01:19Z</time>
      </trkpt>
      <trkpt lat="45.58784" lon="5.94465">
        <ele>337.8</ele>
        <time>2015-03-31T15:01:21Z</time>
      </trkpt>
      <trkpt lat="45.58772" lon="5.94454">
        <ele>336.5</ele>
        <time>2015-03-31T15:01:23Z</time>
      </trkpt>
      <trkpt lat="45.58763" lon="5.94442">
        <ele>335.2</ele>
        <time>2015-03-31T15:01:25Z</time>
      </trkpt>
      <trkpt lat="45.58754" lon="5.94443">
        <ele>334</ele>
        <time>2015-03-31T15:01:27Z</time>
      </trkpt>
      <trkpt lat="45.58745" lon="5.94454">
        <ele>332.9</ele>
        <time>2015-03-31T15:01:29Z</time>
      </trkpt>
      <trkpt lat="45.58735" lon="5.94457">
        <ele>331.8</ele>
        <time>2015-03-31T15:01:31Z</time>
      </trkpt>
      <trkpt lat="45.58723" lon="5.9445">
        <ele>330.9</ele>
        <time>2015-03-31T15:01:33Z</time>
      </trkpt>
      <trkpt lat="45.5871" lon="5.94444">
        <ele>329.8</ele>
        <time>2015-03-31T15:01:35Z</time>
      </trkpt>
      <trkpt lat="45.58694" lon="5.9444">
        <ele>328.8</ele>
        <time>2015-03-31T15:01:37Z</time>
      </trkpt>
      <trkpt lat="45.58677" lon="5.94436">
        <ele>327.8</ele>
        <time>2015-03-31T15:01:39Z</time>
      </trkpt>
      <trkpt lat="45.5866" lon="5.94434">
        <ele>326.8</ele>
        <time>2015-03-31T15:01:41Z</time>
      </trkpt>
      <trkpt lat="45.58643" lon="5.94431">
        <ele>325.8</ele>
        <time>2015-03-31T15:01:43Z</time>
      </trkpt>
      <trkpt lat="45.58625" lon="5.94428">
        <ele>324.8</ele>
        <time>2015-03-31T15:01:45Z</time>
      </trkpt>
      <trkpt lat="45.58615" lon="5.94426">
        <ele>324.3</ele>
        <time>2015-03-31T15:01:46Z</time>
      </trkpt>
      <trkpt lat="45.58606" lon="5.94424">
        <ele>323.8</ele>
        <time>2015-03-31T15:01:47Z</time>
      </trkpt>
      <trkpt lat="45.58596" lon="5.94422">
        <ele>323.3</ele>
        <time>2015-03-31T15:01:48Z</time>
      </trkpt>
      <trkpt lat="45.58587" lon="5.9442">
        <ele>322.8</ele>
        <time>2015-03-31T15:01:49Z</time>
      </trkpt>
      <trkpt lat="45.58577" lon="5.94419">
        <ele>322.3</ele>
        <time>2015-03-31T15:01:50Z</time>
      </trkpt>
      <trkpt lat="45.58567" lon="5.94417">
        <ele>321.8</ele>
        <time>2015-03-31T15:01:51Z</time>
      </trkpt>
      <trkpt lat="45.58558" lon="5.94416">
        <ele>321.3</ele>
        <time>2015-03-31T15:01:52Z</time>
      </trkpt>
      <trkpt lat="45.58548" lon="5.94416">
        <ele>320.9</ele>
        <time>2015-03-31T15:01:53Z</time>
      </trkpt>
      <trkpt lat="45.58537" lon="5.94415">
        <ele>320.3</ele>
        <time>2015-03-31T15:01:54Z</time>
      </trkpt>
      <trkpt lat="45.58527" lon="5.94415">
        <ele>319.9</ele>
        <time>2015-03-31T15:01:55Z</time>
      </trkpt>
      <trkpt lat="45.58517" lon="5.94415">
        <ele>319.3</ele>
        <time>2015-03-31T15:01:56Z</time>
      </trkpt>
      <trkpt lat="45.58507" lon="5.94416">
        <ele>318.8</ele>
        <time>2015-03-31T15:01:57Z</time>
      </trkpt>
      <trkpt lat="45.58497" lon="5.94417">
        <ele>318.3</ele>
        <time>2015-03-31T15:01:58Z</time>
      </trkpt>
      <trkpt lat="45.58487" lon="5.94417">
        <ele>317.8</ele>
        <time>2015-03-31T15:01:59Z</time>
      </trkpt>
      <trkpt lat="45.58477" lon="5.94418">
        <ele>317.3</ele>
        <time>2015-03-31T15:02:00Z</time>
      </trkpt>
      <trkpt lat="45.58468" lon="5.94418">
        <ele>316.8</ele>
        <time>2015-03-31T15:02:01Z</time>
      </trkpt>
      <trkpt lat="45.58458" lon="5.94419">
        <ele>316.2</ele>
        <time>2015-03-31T15:02:02Z</time>
      </trkpt>
      <trkpt lat="45.58448" lon="5.9442">
        <ele>315.6</ele>
        <time>2015-03-31T15:02:03Z</time>
      </trkpt>
      <trkpt lat="45.58438" lon="5.94421">
        <ele>315.1</ele>
        <time>2015-03-31T15:02:04Z</time>
      </trkpt>
      <trkpt lat="45.58428" lon="5.94421">
        <ele>314.6</ele>
        <time>2015-03-31T15:02:05Z</time>
      </trkpt>
      <trkpt lat="45.58418" lon="5.9442">
        <ele>314</ele>
        <time>2015-03-31T15:02:06Z</time>
      </trkpt>
      <trkpt lat="45.58408" lon="5.94419">
        <ele>313.5</ele>
        <time>2015-03-31T15:02:07Z</time>
      </trkpt>
      <trkpt lat="45.58398" lon="5.94417">
        <ele>313.1</ele>
        <time>2015-03-31T15:02:08Z</time>
      </trkpt>
      <trkpt lat="45.58388" lon="5.94416">
        <ele>312.6</ele>
        <time>2015-03-31T15:02:09Z</time>
      </trkpt>
      <trkpt lat="45.58378" lon="5.94414">
        <ele>312.1</ele>
        <time>2015-03-31T15:02:10Z</time>
      </trkpt>
      <trkpt lat="45.58368" lon="5.94413">
        <ele>311.6</ele>
        <time>2015-03-31T15:02:11Z</time>
      </trkpt>
      <trkpt lat="45.58359" lon="5.94412">
        <ele>311.1</ele>
        <time>2015-03-31T15:02:12Z</time>
      </trkpt>
      <trkpt lat="45.58349" lon="5.94411">
        <ele>310.6</ele>
        <time>2015-03-31T15:02:13Z</time>
      </trkpt>
      <trkpt lat="45.58339" lon="5.9441">
        <ele>310.1</ele>
        <time>2015-03-31T15:02:14Z</time>
      </trkpt>
      <trkpt lat="45.58329" lon="5.94409">
        <ele>309.6</ele>
        <time>2015-03-31T15:02:15Z</time>
      </trkpt>
      <trkpt lat="45.58319" lon="5.94409">
        <ele>309.2</ele>
        <time>2015-03-31T15:02:16Z</time>
      </trkpt>
      <trkpt lat="45.58309" lon="5.94408">
        <ele>308.7</ele>
        <time>2015-03-31T15:02:17Z</time>
      </trkpt>
      <trkpt lat="45.58299" lon="5.94407">
        <ele>308.2</ele>
        <time>2015-03-31T15:02:18Z</time>
      </trkpt>
      <trkpt lat="45.58289" lon="5.94406">
        <ele>307.7</ele>
        <time>2015-03-31T15:02:19Z</time>
      </trkpt>
      <trkpt lat="45.5828" lon="5.94406">
        <ele>307.3</ele>
        <time>2015-03-31T15:02:20Z</time>
      </trkpt>
      <trkpt lat="45.58263" lon="5.94405">
        <ele>306.4</ele>
        <time>2015-03-31T15:02:22Z</time>
      </trkpt>
      <trkpt lat="45.58248" lon="5.94406">
        <ele>305.5</ele>
        <time>2015-03-31T15:02:24Z</time>
      </trkpt>
      <trkpt lat="45.58234" lon="5.94407">
        <ele>304.6</ele>
        <time>2015-03-31T15:02:26Z</time>
      </trkpt>
      <trkpt lat="45.58224" lon="5.94413">
        <ele>303.4</ele>
        <time>2015-03-31T15:02:29Z</time>
      </trkpt>
      <trkpt lat="45.58221" lon="5.94426">
        <ele>302.3</ele>
        <time>2015-03-31T15:02:32Z</time>
      </trkpt>
      <trkpt lat="45.58224" lon="5.94443">
        <ele>301.3</ele>
        <time>2015-03-31T15:02:35Z</time>
      </trkpt>
      <trkpt lat="45.58232" lon="5.94456">
        <ele>300.6</ele>
        <time>2015-03-31T15:02:38Z</time>
      </trkpt>
      <trkpt lat="45.58241" lon="5.94463">
        <ele>300.2</ele>
        <time>2015-03-31T15:02:41Z</time>
      </trkpt>
      <trkpt lat="45.58246" lon="5.94464">
        <ele>295.9</ele>
        <time>2015-03-31T15:02:43Z</time>
      </trkpt>
    </trkseg>
  </trk>
</gpx>